<?xml version='1.0' encoding='UTF-8'?><gpx version="1.1" creator="JPX - https://github.com/jenetics/jpx" xmlns="http://www.topografix.com/GPX/1/1"><trk><trkseg><trkpt lat="45.0800578" lon="7.8937729"><ele>397.99999999999994</ele><time>2026-04-14T13:34:37.296Z</time></trkpt><trkpt lat="45.0801109" lon="7.8938261"><ele>398.0</ele><time>2026-04-14T13:34:40.29Z</time></trkpt><trkpt lat="45.08013" lon="7.893921"><ele>398.0</ele><time>2026-04-14T13:34:44.284Z</time></trkpt><trkpt lat="45.0801592" lon="7.8940018"><ele>398.0</ele><time>2026-04-14T13:34:48.197Z</time></trkpt><trkpt lat="45.0802619" lon="7.8940426"><ele>398.0</ele><time>2026-04-14T13:35:38.28Z</time></trkpt><trkpt lat="45.0803223" lon="7.8940781"><ele>397.99999999999994</ele><time>2026-04-14T13:35:41.274Z</time></trkpt><trkpt lat="45.0803956" lon="7.8941153"><ele>398.0</ele><time>2026-04-14T13:35:44.269Z</time></trkpt><trkpt lat="45.0804712" lon="7.8941341"><ele>397.99999999999994</ele><time>2026-04-14T13:35:47.264Z</time></trkpt><trkpt lat="45.080521" lon="7.8942155"><ele>398.0</ele><time>2026-04-14T13:35:49.242Z</time></trkpt><trkpt lat="45.0805887" lon="7.8942839"><ele>398.0</ele><time>2026-04-14T13:35:52.176Z</time></trkpt><trkpt lat="45.0806646" lon="7.8943401"><ele>398.0</ele><time>2026-04-14T13:35:55.31Z</time></trkpt><trkpt lat="45.0807357" lon="7.8943793"><ele>397.99999999999994</ele><time>2026-04-14T13:35:58.285Z</time></trkpt><trkpt lat="45.0808119" lon="7.8944123"><ele>398.0</ele><time>2026-04-14T13:36:01.28Z</time></trkpt><trkpt lat="45.0809001" lon="7.8944273"><ele>398.66666666666663</ele><time>2026-04-14T13:36:04.276Z</time></trkpt><trkpt lat="45.0809641" lon="7.8944296"><ele>399.3333333333333</ele><time>2026-04-14T13:36:06.313Z</time></trkpt><trkpt lat="45.0810551" lon="7.8944203"><ele>400.0</ele><time>2026-04-14T13:36:09.308Z</time></trkpt><trkpt lat="45.0811395" lon="7.8944091"><ele>400.66666666666663</ele><time>2026-04-14T13:36:12.304Z</time></trkpt><trkpt lat="45.0812234" lon="7.8943733"><ele>401.3333333333333</ele><time>2026-04-14T13:36:15.298Z</time></trkpt><trkpt lat="45.0813087" lon="7.8943333"><ele>402.0</ele><time>2026-04-14T13:36:18.295Z</time></trkpt><trkpt lat="45.0813945" lon="7.8942729"><ele>402.8</ele><time>2026-04-14T13:36:21.29Z</time></trkpt><trkpt lat="45.0814667" lon="7.8942237"><ele>403.6</ele><time>2026-04-14T13:36:23.327Z</time></trkpt><trkpt lat="45.0815536" lon="7.8941537"><ele>404.40000000000003</ele><time>2026-04-14T13:36:25.305Z</time></trkpt><trkpt lat="45.0816207" lon="7.8941041"><ele>405.20000000000005</ele><time>2026-04-14T13:36:26.482Z</time></trkpt><trkpt lat="45.0817726" lon="7.8940027"><ele>406.0</ele><time>2026-04-14T13:36:28.194Z</time></trkpt><trkpt lat="45.0818373" lon="7.8939498"><ele>406.0</ele><time>2026-04-14T13:36:29.193Z</time></trkpt><trkpt lat="45.0818914" lon="7.8938935"><ele>406.0</ele><time>2026-04-14T13:36:30.194Z</time></trkpt><trkpt lat="45.0819366" lon="7.8938286"><ele>406.0</ele><time>2026-04-14T13:36:31.193Z</time></trkpt><trkpt lat="45.0820038" lon="7.8936841"><ele>406.0</ele><time>2026-04-14T13:36:33.194Z</time></trkpt><trkpt lat="45.0820449" lon="7.8935271"><ele>406.0</ele><time>2026-04-14T13:36:35.194Z</time></trkpt><trkpt lat="45.0820885" lon="7.893372"><ele>403.4</ele><time>2026-04-14T13:36:37.194Z</time></trkpt><trkpt lat="45.0821143" lon="7.8932298"><ele>400.8</ele><time>2026-04-14T13:36:39.193Z</time></trkpt><trkpt lat="45.0821296" lon="7.8931038"><ele>398.2</ele><time>2026-04-14T13:36:41.192Z</time></trkpt><trkpt lat="45.0821462" lon="7.8929845"><ele>395.59999999999997</ele><time>2026-04-14T13:36:43.193Z</time></trkpt><trkpt lat="45.0821699" lon="7.8928549"><ele>393.0</ele><time>2026-04-14T13:36:45.194Z</time></trkpt><trkpt lat="45.0821912" lon="7.8927324"><ele>393.0</ele><time>2026-04-14T13:36:47.193Z</time></trkpt><trkpt lat="45.0822116" lon="7.8926063"><ele>393.0</ele><time>2026-04-14T13:36:49.194Z</time></trkpt><trkpt lat="45.0822315" lon="7.8924772"><ele>393.0</ele><time>2026-04-14T13:36:51.194Z</time></trkpt><trkpt lat="45.082253" lon="7.8923515"><ele>393.0</ele><time>2026-04-14T13:36:53.195Z</time></trkpt><trkpt lat="45.082274" lon="7.8922304"><ele>393.0</ele><time>2026-04-14T13:36:55.195Z</time></trkpt><trkpt lat="45.0822994" lon="7.8921115"><ele>393.0</ele><time>2026-04-14T13:36:57.193Z</time></trkpt><trkpt lat="45.0823325" lon="7.8919982"><ele>393.0</ele><time>2026-04-14T13:36:59.193Z</time></trkpt><trkpt lat="45.0823874" lon="7.8919372"><ele>393.0</ele><time>2026-04-14T13:37:02.271Z</time></trkpt><trkpt lat="45.0824167" lon="7.8918365"><ele>393.0</ele><time>2026-04-14T13:37:03.23Z</time></trkpt><trkpt lat="45.0824909" lon="7.8917106"><ele>393.0</ele><time>2026-04-14T13:37:05.267Z</time></trkpt><trkpt lat="45.0825882" lon="7.8916483"><ele>396.59999999999997</ele><time>2026-04-14T13:37:07.302Z</time></trkpt><trkpt lat="45.0826808" lon="7.8916121"><ele>400.2</ele><time>2026-04-14T13:37:09.22Z</time></trkpt><trkpt lat="45.0827645" lon="7.8915449"><ele>403.8</ele><time>2026-04-14T13:37:11.256Z</time></trkpt><trkpt lat="45.0828355" lon="7.8914586"><ele>407.4</ele><time>2026-04-14T13:37:13.293Z</time></trkpt><trkpt lat="45.0828855" lon="7.8913559"><ele>411.0</ele><time>2026-04-14T13:37:15.329Z</time></trkpt><trkpt lat="45.082911" lon="7.8912448"><ele>411.0</ele><time>2026-04-14T13:37:17.245Z</time></trkpt><trkpt lat="45.0829352" lon="7.8911229"><ele>411.0</ele><time>2026-04-14T13:37:19.282Z</time></trkpt><trkpt lat="45.0829769" lon="7.891026"><ele>411.0</ele><time>2026-04-14T13:37:21.198Z</time></trkpt><trkpt lat="45.0830209" lon="7.8909232"><ele>411.0</ele><time>2026-04-14T13:37:23.235Z</time></trkpt><trkpt lat="45.0830417" lon="7.8908194"><ele>411.0</ele><time>2026-04-14T13:37:25.195Z</time></trkpt><trkpt lat="45.0830813" lon="7.8906945"><ele>411.0</ele><time>2026-04-14T13:37:27.195Z</time></trkpt><trkpt lat="45.0831212" lon="7.8905611"><ele>410.0</ele><time>2026-04-14T13:37:29.196Z</time></trkpt><trkpt lat="45.0831652" lon="7.8904263"><ele>409.0</ele><time>2026-04-14T13:37:31.193Z</time></trkpt><trkpt lat="45.0831986" lon="7.8902824"><ele>408.0</ele><time>2026-04-14T13:37:33.194Z</time></trkpt><trkpt lat="45.0832364" lon="7.8901351"><ele>407.0</ele><time>2026-04-14T13:37:35.194Z</time></trkpt><trkpt lat="45.0832841" lon="7.8899881"><ele>406.0</ele><time>2026-04-14T13:37:37.194Z</time></trkpt><trkpt lat="45.0833448" lon="7.8898308"><ele>406.0</ele><time>2026-04-14T13:37:39.196Z</time></trkpt><trkpt lat="45.0833779" lon="7.8897521"><ele>406.0</ele><time>2026-04-14T13:37:40.195Z</time></trkpt><trkpt lat="45.083416" lon="7.8896761"><ele>406.0</ele><time>2026-04-14T13:37:41.194Z</time></trkpt><trkpt lat="45.0834647" lon="7.8896025"><ele>406.0</ele><time>2026-04-14T13:37:42.194Z</time></trkpt><trkpt lat="45.0835129" lon="7.8895292"><ele>406.0</ele><time>2026-04-14T13:37:43.193Z</time></trkpt><trkpt lat="45.0835579" lon="7.8894533"><ele>406.0</ele><time>2026-04-14T13:37:44.193Z</time></trkpt><trkpt lat="45.0836069" lon="7.889369"><ele>406.0</ele><time>2026-04-14T13:37:45.193Z</time></trkpt><trkpt lat="45.0836545" lon="7.8892836"><ele>406.1666666666667</ele><time>2026-04-14T13:37:46.192Z</time></trkpt><trkpt lat="45.0837015" lon="7.8891945"><ele>406.33333333333337</ele><time>2026-04-14T13:37:47.193Z</time></trkpt><trkpt lat="45.0837455" lon="7.8891073"><ele>406.5</ele><time>2026-04-14T13:37:48.194Z</time></trkpt><trkpt lat="45.0837863" lon="7.889026"><ele>406.66666666666663</ele><time>2026-04-14T13:37:49.194Z</time></trkpt><trkpt lat="45.0838312" lon="7.8889502"><ele>406.8333333333333</ele><time>2026-04-14T13:37:50.194Z</time></trkpt><trkpt lat="45.0838748" lon="7.8888785"><ele>407.0</ele><time>2026-04-14T13:37:51.193Z</time></trkpt><trkpt lat="45.0839423" lon="7.8887498"><ele>407.0</ele><time>2026-04-14T13:37:53.194Z</time></trkpt><trkpt lat="45.0839925" lon="7.8886571"><ele>407.0</ele><time>2026-04-14T13:37:55.195Z</time></trkpt><trkpt lat="45.084067" lon="7.8886048"><ele>407.0</ele><time>2026-04-14T13:37:57.194Z</time></trkpt><trkpt lat="45.0841587" lon="7.8885887"><ele>407.0</ele><time>2026-04-14T13:37:59.194Z</time></trkpt><trkpt lat="45.0842621" lon="7.8885857"><ele>407.0</ele><time>2026-04-14T13:38:01.194Z</time></trkpt><trkpt lat="45.0843758" lon="7.8885703"><ele>404.6</ele><time>2026-04-14T13:38:03.192Z</time></trkpt><trkpt lat="45.0844885" lon="7.8885544"><ele>402.20000000000005</ele><time>2026-04-14T13:38:05.194Z</time></trkpt><trkpt lat="45.0845999" lon="7.888541"><ele>399.8</ele><time>2026-04-14T13:38:07.193Z</time></trkpt><trkpt lat="45.0847035" lon="7.8885192"><ele>397.4</ele><time>2026-04-14T13:38:09.194Z</time></trkpt><trkpt lat="45.0848029" lon="7.8885042"><ele>395.0</ele><time>2026-04-14T13:38:11.193Z</time></trkpt><trkpt lat="45.0849018" lon="7.8884943"><ele>396.49999999999994</ele><time>2026-04-14T13:38:13.193Z</time></trkpt><trkpt lat="45.0849956" lon="7.8884878"><ele>398.0</ele><time>2026-04-14T13:38:15.193Z</time></trkpt><trkpt lat="45.0850826" lon="7.8884721"><ele>399.5</ele><time>2026-04-14T13:38:17.194Z</time></trkpt><trkpt lat="45.0851628" lon="7.8884555"><ele>401.0</ele><time>2026-04-14T13:38:19.194Z</time></trkpt><trkpt lat="45.0852475" lon="7.8884443"><ele>402.49999999999994</ele><time>2026-04-14T13:38:21.193Z</time></trkpt><trkpt lat="45.0853267" lon="7.8884303"><ele>404.0</ele><time>2026-04-14T13:38:24.208Z</time></trkpt><trkpt lat="45.0853919" lon="7.888408"><ele>403.99999999999994</ele><time>2026-04-14T13:38:25.287Z</time></trkpt><trkpt lat="45.0854944" lon="7.8884047"><ele>404.0</ele><time>2026-04-14T13:38:27.203Z</time></trkpt><trkpt lat="45.0855804" lon="7.8883794"><ele>404.0</ele><time>2026-04-14T13:38:29.239Z</time></trkpt><trkpt lat="45.0856561" lon="7.8883588"><ele>404.0</ele><time>2026-04-14T13:38:31.275Z</time></trkpt><trkpt lat="45.0857272" lon="7.888354"><ele>403.99999999999994</ele><time>2026-04-14T13:38:33.194Z</time></trkpt><trkpt lat="45.0858052" lon="7.8883484"><ele>404.0</ele><time>2026-04-14T13:38:35.23Z</time></trkpt><trkpt lat="45.0858767" lon="7.8883086"><ele>405.16666666666663</ele><time>2026-04-14T13:38:37.266Z</time></trkpt><trkpt lat="45.0859449" lon="7.8882888"><ele>406.3333333333333</ele><time>2026-04-14T13:38:39.193Z</time></trkpt><trkpt lat="45.0860255" lon="7.8882691"><ele>407.5</ele><time>2026-04-14T13:38:41.22Z</time></trkpt><trkpt lat="45.0861066" lon="7.888242"><ele>408.66666666666663</ele><time>2026-04-14T13:38:43.256Z</time></trkpt><trkpt lat="45.0861749" lon="7.8881976"><ele>409.8333333333333</ele><time>2026-04-14T13:38:45.292Z</time></trkpt><trkpt lat="45.0862446" lon="7.8881783"><ele>411.0</ele><time>2026-04-14T13:38:47.209Z</time></trkpt><trkpt lat="45.0863267" lon="7.8881382"><ele>411.0</ele><time>2026-04-14T13:38:49.246Z</time></trkpt><trkpt lat="45.0864108" lon="7.8881034"><ele>411.0</ele><time>2026-04-14T13:38:51.197Z</time></trkpt><trkpt lat="45.0865058" lon="7.8880529"><ele>411.0</ele><time>2026-04-14T13:38:53.194Z</time></trkpt><trkpt lat="45.0865845" lon="7.8880051"><ele>411.0</ele><time>2026-04-14T13:38:55.194Z</time></trkpt><trkpt lat="45.0866674" lon="7.8879654"><ele>411.0</ele><time>2026-04-14T13:38:57.193Z</time></trkpt><trkpt lat="45.0867609" lon="7.8879199"><ele>412.6</ele><time>2026-04-14T13:38:59.192Z</time></trkpt><trkpt lat="45.0868425" lon="7.887875"><ele>414.20000000000005</ele><time>2026-04-14T13:39:01.194Z</time></trkpt><trkpt lat="45.0869388" lon="7.8878378"><ele>415.79999999999995</ele><time>2026-04-14T13:39:03.196Z</time></trkpt><trkpt lat="45.0870058" lon="7.8878373"><ele>417.4</ele><time>2026-04-14T13:39:04.195Z</time></trkpt><trkpt lat="45.0871273" lon="7.8878415"><ele>419.0</ele><time>2026-04-14T13:39:06.195Z</time></trkpt><trkpt lat="45.0872436" lon="7.8878636"><ele>418.99999999999994</ele><time>2026-04-14T13:39:08.193Z</time></trkpt><trkpt lat="45.0873562" lon="7.8878835"><ele>419.0</ele><time>2026-04-14T13:39:10.194Z</time></trkpt><trkpt lat="45.0874213" lon="7.8878988"><ele>419.0</ele><time>2026-04-14T13:39:11.194Z</time></trkpt><trkpt lat="45.0874843" lon="7.8879207"><ele>419.0</ele><time>2026-04-14T13:39:12.194Z</time></trkpt><trkpt lat="45.0876056" lon="7.8879751"><ele>418.99999999999994</ele><time>2026-04-14T13:39:14.195Z</time></trkpt><trkpt lat="45.0876768" lon="7.8880007"><ele>419.0</ele><time>2026-04-14T13:39:15.194Z</time></trkpt><trkpt lat="45.0877554" lon="7.8880274"><ele>417.8333333333333</ele><time>2026-04-14T13:39:16.193Z</time></trkpt><trkpt lat="45.0878344" lon="7.8880583"><ele>416.66666666666663</ele><time>2026-04-14T13:39:17.194Z</time></trkpt><trkpt lat="45.0879133" lon="7.8880891"><ele>415.5</ele><time>2026-04-14T13:39:18.194Z</time></trkpt><trkpt lat="45.0879937" lon="7.8881256"><ele>414.33333333333337</ele><time>2026-04-14T13:39:19.195Z</time></trkpt><trkpt lat="45.0880798" lon="7.8881627"><ele>413.1666666666667</ele><time>2026-04-14T13:39:20.195Z</time></trkpt><trkpt lat="45.0881709" lon="7.8882042"><ele>412.0</ele><time>2026-04-14T13:39:21.194Z</time></trkpt><trkpt lat="45.0882658" lon="7.8882495"><ele>410.0</ele><time>2026-04-14T13:39:22.194Z</time></trkpt><trkpt lat="45.0883604" lon="7.8883065"><ele>408.0</ele><time>2026-04-14T13:39:23.195Z</time></trkpt><trkpt lat="45.0884529" lon="7.8883757"><ele>406.0</ele><time>2026-04-14T13:39:24.195Z</time></trkpt><trkpt lat="45.0885434" lon="7.888456"><ele>404.0</ele><time>2026-04-14T13:39:25.194Z</time></trkpt><trkpt lat="45.0886399" lon="7.888538"><ele>402.0</ele><time>2026-04-14T13:39:26.194Z</time></trkpt><trkpt lat="45.0887359" lon="7.8886178"><ele>400.5</ele><time>2026-04-14T13:39:27.195Z</time></trkpt><trkpt lat="45.0888342" lon="7.8887004"><ele>399.0</ele><time>2026-04-14T13:39:28.195Z</time></trkpt><trkpt lat="45.0889327" lon="7.8887802"><ele>397.5</ele><time>2026-04-14T13:39:29.195Z</time></trkpt><trkpt lat="45.0890312" lon="7.8888591"><ele>396.0</ele><time>2026-04-14T13:39:30.194Z</time></trkpt><trkpt lat="45.089131" lon="7.8889397"><ele>395.0</ele><time>2026-04-14T13:39:31.196Z</time></trkpt><trkpt lat="45.0892274" lon="7.8890248"><ele>394.0</ele><time>2026-04-14T13:39:32.196Z</time></trkpt><trkpt lat="45.0893209" lon="7.8891178"><ele>393.0</ele><time>2026-04-14T13:39:33.196Z</time></trkpt><trkpt lat="45.0894055" lon="7.8892246"><ele>392.0</ele><time>2026-04-14T13:39:34.195Z</time></trkpt><trkpt lat="45.0894812" lon="7.8893412"><ele>389.0</ele><time>2026-04-14T13:39:35.196Z</time></trkpt><trkpt lat="45.0895483" lon="7.8894675"><ele>386.0</ele><time>2026-04-14T13:39:36.195Z</time></trkpt><trkpt lat="45.0896095" lon="7.8895972"><ele>383.0</ele><time>2026-04-14T13:39:37.195Z</time></trkpt><trkpt lat="45.0896712" lon="7.8897266"><ele>380.0</ele><time>2026-04-14T13:39:38.195Z</time></trkpt><trkpt lat="45.0897326" lon="7.889854"><ele>377.0</ele><time>2026-04-14T13:39:39.196Z</time></trkpt><trkpt lat="45.0897911" lon="7.8899836"><ele>374.8</ele><time>2026-04-14T13:39:40.195Z</time></trkpt><trkpt lat="45.0898422" lon="7.890117"><ele>372.6</ele><time>2026-04-14T13:39:41.195Z</time></trkpt><trkpt lat="45.089887" lon="7.890254"><ele>370.40000000000003</ele><time>2026-04-14T13:39:42.195Z</time></trkpt><trkpt lat="45.0899254" lon="7.8903901"><ele>368.20000000000005</ele><time>2026-04-14T13:39:43.196Z</time></trkpt><trkpt lat="45.0899642" lon="7.8905252"><ele>366.0</ele><time>2026-04-14T13:39:44.196Z</time></trkpt><trkpt lat="45.090011" lon="7.8906572"><ele>370.25</ele><time>2026-04-14T13:39:45.193Z</time></trkpt><trkpt lat="45.090075" lon="7.8907829"><ele>374.5</ele><time>2026-04-14T13:39:46.194Z</time></trkpt><trkpt lat="45.0901539" lon="7.8909028"><ele>378.75</ele><time>2026-04-14T13:39:47.194Z</time></trkpt><trkpt lat="45.090243" lon="7.8910187"><ele>383.0</ele><time>2026-04-14T13:39:48.193Z</time></trkpt><trkpt lat="45.0903415" lon="7.8911264"><ele>383.0</ele><time>2026-04-14T13:39:49.194Z</time></trkpt><trkpt lat="45.0904474" lon="7.8912177"><ele>383.0</ele><time>2026-04-14T13:39:50.193Z</time></trkpt><trkpt lat="45.0905638" lon="7.8912841"><ele>383.0</ele><time>2026-04-14T13:39:51.193Z</time></trkpt><trkpt lat="45.0906892" lon="7.8913271"><ele>383.0</ele><time>2026-04-14T13:39:52.194Z</time></trkpt><trkpt lat="45.0908196" lon="7.891346"><ele>380.0</ele><time>2026-04-14T13:39:53.194Z</time></trkpt><trkpt lat="45.0909506" lon="7.8913403"><ele>377.0</ele><time>2026-04-14T13:39:54.194Z</time></trkpt><trkpt lat="45.0910811" lon="7.8913141"><ele>374.0</ele><time>2026-04-14T13:39:55.194Z</time></trkpt><trkpt lat="45.0912113" lon="7.8912884"><ele>371.0</ele><time>2026-04-14T13:39:56.195Z</time></trkpt><trkpt lat="45.0913398" lon="7.8912748"><ele>371.0</ele><time>2026-04-14T13:39:57.194Z</time></trkpt><trkpt lat="45.0914641" lon="7.8912817"><ele>371.0</ele><time>2026-04-14T13:39:58.195Z</time></trkpt><trkpt lat="45.0915817" lon="7.8913085"><ele>371.0</ele><time>2026-04-14T13:39:59.195Z</time></trkpt><trkpt lat="45.0916975" lon="7.891335"><ele>371.0</ele><time>2026-04-14T13:40:00.195Z</time></trkpt><trkpt lat="45.0918108" lon="7.8913479"><ele>370.8</ele><time>2026-04-14T13:40:01.194Z</time></trkpt><trkpt lat="45.0919222" lon="7.8913452"><ele>370.6</ele><time>2026-04-14T13:40:02.195Z</time></trkpt><trkpt lat="45.0920306" lon="7.8913396"><ele>370.4</ele><time>2026-04-14T13:40:03.195Z</time></trkpt><trkpt lat="45.0921345" lon="7.8913374"><ele>370.2</ele><time>2026-04-14T13:40:04.195Z</time></trkpt><trkpt lat="45.0922373" lon="7.891333"><ele>370.0</ele><time>2026-04-14T13:40:05.195Z</time></trkpt><trkpt lat="45.0923363" lon="7.8913353"><ele>370.2</ele><time>2026-04-14T13:40:06.196Z</time></trkpt><trkpt lat="45.0924331" lon="7.8913415"><ele>370.4</ele><time>2026-04-14T13:40:07.194Z</time></trkpt><trkpt lat="45.0925276" lon="7.8913506"><ele>370.6</ele><time>2026-04-14T13:40:08.196Z</time></trkpt><trkpt lat="45.0926192" lon="7.8913628"><ele>370.8</ele><time>2026-04-14T13:40:09.195Z</time></trkpt><trkpt lat="45.0927062" lon="7.8913817"><ele>371.0</ele><time>2026-04-14T13:40:10.194Z</time></trkpt><trkpt lat="45.0927908" lon="7.8913984"><ele>371.0</ele><time>2026-04-14T13:40:11.194Z</time></trkpt><trkpt lat="45.0928725" lon="7.8914167"><ele>371.0</ele><time>2026-04-14T13:40:12.193Z</time></trkpt><trkpt lat="45.092951" lon="7.8914298"><ele>371.0</ele><time>2026-04-14T13:40:13.194Z</time></trkpt><trkpt lat="45.0930275" lon="7.8914359"><ele>371.0</ele><time>2026-04-14T13:40:14.194Z</time></trkpt><trkpt lat="45.0931011" lon="7.8914415"><ele>371.0</ele><time>2026-04-14T13:40:15.193Z</time></trkpt><trkpt lat="45.0931739" lon="7.8914467"><ele>371.0</ele><time>2026-04-14T13:40:16.193Z</time></trkpt><trkpt lat="45.0932441" lon="7.8914505"><ele>371.2857142857143</ele><time>2026-04-14T13:40:17.193Z</time></trkpt><trkpt lat="45.0933151" lon="7.8914496"><ele>371.57142857142856</ele><time>2026-04-14T13:40:18.194Z</time></trkpt><trkpt lat="45.0933837" lon="7.8914503"><ele>371.8571428571429</ele><time>2026-04-14T13:40:19.194Z</time></trkpt><trkpt lat="45.0934531" lon="7.8914478"><ele>372.1428571428571</ele><time>2026-04-14T13:40:20.196Z</time></trkpt><trkpt lat="45.0935202" lon="7.8914433"><ele>372.42857142857144</ele><time>2026-04-14T13:40:21.195Z</time></trkpt><trkpt lat="45.0935867" lon="7.8914363"><ele>372.7142857142857</ele><time>2026-04-14T13:40:22.194Z</time></trkpt><trkpt lat="45.0936505" lon="7.8914295"><ele>373.0</ele><time>2026-04-14T13:40:23.195Z</time></trkpt><trkpt lat="45.0937664" lon="7.8914133"><ele>373.0</ele><time>2026-04-14T13:40:25.195Z</time></trkpt><trkpt lat="45.0938692" lon="7.8913882"><ele>373.0</ele><time>2026-04-14T13:40:27.196Z</time></trkpt><trkpt lat="45.0939652" lon="7.8913554"><ele>373.0</ele><time>2026-04-14T13:40:29.194Z</time></trkpt><trkpt lat="45.0940639" lon="7.8913266"><ele>373.0</ele><time>2026-04-14T13:40:31.193Z</time></trkpt><trkpt lat="45.0941636" lon="7.8912951"><ele>373.0</ele><time>2026-04-14T13:40:33.193Z</time></trkpt><trkpt lat="45.0942633" lon="7.8912593"><ele>372.4</ele><time>2026-04-14T13:40:35.194Z</time></trkpt><trkpt lat="45.0943597" lon="7.8912165"><ele>371.79999999999995</ele><time>2026-04-14T13:40:37.194Z</time></trkpt><trkpt lat="45.0944502" lon="7.8911683"><ele>371.2</ele><time>2026-04-14T13:40:39.194Z</time></trkpt><trkpt lat="45.0945385" lon="7.8911264"><ele>370.6</ele><time>2026-04-14T13:40:41.193Z</time></trkpt><trkpt lat="45.0946222" lon="7.891079"><ele>370.0</ele><time>2026-04-14T13:40:43.193Z</time></trkpt><trkpt lat="45.0947066" lon="7.8910284"><ele>370.0</ele><time>2026-04-14T13:40:45.194Z</time></trkpt><trkpt lat="45.0947901" lon="7.8909785"><ele>370.0</ele><time>2026-04-14T13:40:47.194Z</time></trkpt><trkpt lat="45.0948684" lon="7.8909287"><ele>370.0</ele><time>2026-04-14T13:40:49.194Z</time></trkpt><trkpt lat="45.0949499" lon="7.8908787"><ele>370.0</ele><time>2026-04-14T13:40:51.196Z</time></trkpt><trkpt lat="45.0950148" lon="7.8908437"><ele>370.0</ele><time>2026-04-14T13:40:54.29Z</time></trkpt><trkpt lat="45.0950684" lon="7.890772"><ele>370.0</ele><time>2026-04-14T13:40:55.247Z</time></trkpt><trkpt lat="45.095184" lon="7.8907517"><ele>371.8333333333333</ele><time>2026-04-14T13:40:57.205Z</time></trkpt><trkpt lat="45.0952715" lon="7.8906904"><ele>373.66666666666663</ele><time>2026-04-14T13:40:59.161Z</time></trkpt><trkpt lat="45.0953579" lon="7.8906413"><ele>375.5</ele><time>2026-04-14T13:41:01.236Z</time></trkpt><trkpt lat="45.0954368" lon="7.8905988"><ele>377.3333333333333</ele><time>2026-04-14T13:41:03.272Z</time></trkpt><trkpt lat="45.0955032" lon="7.8905622"><ele>379.1666666666667</ele><time>2026-04-14T13:41:05.194Z</time></trkpt><trkpt lat="45.0955809" lon="7.8905194"><ele>381.0</ele><time>2026-04-14T13:41:07.225Z</time></trkpt><trkpt lat="45.0956529" lon="7.8904721"><ele>381.0</ele><time>2026-04-14T13:41:09.26Z</time></trkpt><trkpt lat="45.09572" lon="7.8904104"><ele>381.0</ele><time>2026-04-14T13:41:11.193Z</time></trkpt><trkpt lat="45.0957998" lon="7.8903415"><ele>381.0</ele><time>2026-04-14T13:41:13.193Z</time></trkpt><trkpt lat="45.0958923" lon="7.8902702"><ele>381.0</ele><time>2026-04-14T13:41:15.194Z</time></trkpt><trkpt lat="45.0959691" lon="7.8901681"><ele>381.0</ele><time>2026-04-14T13:41:17.194Z</time></trkpt><trkpt lat="45.0959406" lon="7.8900017"><ele>381.20000000000005</ele><time>2026-04-14T13:41:19.195Z</time></trkpt><trkpt lat="45.0958862" lon="7.8899118"><ele>381.40000000000003</ele><time>2026-04-14T13:41:20.196Z</time></trkpt><trkpt lat="45.0958253" lon="7.8898158"><ele>381.6</ele><time>2026-04-14T13:41:21.196Z</time></trkpt><trkpt lat="45.0957641" lon="7.8897141"><ele>381.8</ele><time>2026-04-14T13:41:22.195Z</time></trkpt><trkpt lat="45.0957" lon="7.88961"><ele>382.0</ele><time>2026-04-14T13:41:23.196Z</time></trkpt><trkpt lat="45.0956318" lon="7.8895032"><ele>385.20000000000005</ele><time>2026-04-14T13:41:24.195Z</time></trkpt><trkpt lat="45.0955658" lon="7.8893904"><ele>388.4</ele><time>2026-04-14T13:41:25.194Z</time></trkpt><trkpt lat="45.0955097" lon="7.8892697"><ele>391.6</ele><time>2026-04-14T13:41:26.194Z</time></trkpt><trkpt lat="45.0954699" lon="7.8891378"><ele>394.79999999999995</ele><time>2026-04-14T13:41:27.194Z</time></trkpt><trkpt lat="45.0954506" lon="7.8890015"><ele>398.0</ele><time>2026-04-14T13:41:28.194Z</time></trkpt><trkpt lat="45.095449" lon="7.8888625"><ele>398.3333333333333</ele><time>2026-04-14T13:41:29.194Z</time></trkpt><trkpt lat="45.0954563" lon="7.888729"><ele>398.66666666666663</ele><time>2026-04-14T13:41:30.194Z</time></trkpt><trkpt lat="45.0954708" lon="7.8886029"><ele>399.0</ele><time>2026-04-14T13:41:31.194Z</time></trkpt><trkpt lat="45.095482" lon="7.8884853"><ele>399.33333333333337</ele><time>2026-04-14T13:41:32.194Z</time></trkpt><trkpt lat="45.0954976" lon="7.8883736"><ele>399.6666666666667</ele><time>2026-04-14T13:41:33.193Z</time></trkpt><trkpt lat="45.0955148" lon="7.8882699"><ele>400.0</ele><time>2026-04-14T13:41:34.193Z</time></trkpt><trkpt lat="45.0955375" lon="7.8881744"><ele>400.00000000000006</ele><time>2026-04-14T13:41:35.194Z</time></trkpt><trkpt lat="45.0955641" lon="7.8880874"><ele>400.0</ele><time>2026-04-14T13:41:36.195Z</time></trkpt><trkpt lat="45.09563" lon="7.8879503"><ele>400.0</ele><time>2026-04-14T13:41:38.195Z</time></trkpt><trkpt lat="45.0957025" lon="7.8878577"><ele>400.0</ele><time>2026-04-14T13:41:40.195Z</time></trkpt><trkpt lat="45.0957689" lon="7.8877816"><ele>400.00000000000006</ele><time>2026-04-14T13:41:42.194Z</time></trkpt><trkpt lat="45.0958377" lon="7.8877192"><ele>400.0</ele><time>2026-04-14T13:41:44.193Z</time></trkpt><trkpt lat="45.0959078" lon="7.8876761"><ele>397.6666666666667</ele><time>2026-04-14T13:41:46.194Z</time></trkpt><trkpt lat="45.0959946" lon="7.8876231"><ele>395.33333333333337</ele><time>2026-04-14T13:41:50.242Z</time></trkpt><trkpt lat="45.0960493" lon="7.8875517"><ele>393.0</ele><time>2026-04-14T13:41:52.276Z</time></trkpt><trkpt lat="45.0960825" lon="7.8874687"><ele>390.66666666666663</ele><time>2026-04-14T13:41:54.194Z</time></trkpt><trkpt lat="45.0961166" lon="7.8873635"><ele>388.3333333333333</ele><time>2026-04-14T13:41:57.194Z</time></trkpt><trkpt lat="45.0960435" lon="7.8873565"><ele>386.0</ele><time>2026-04-14T13:41:59.22Z</time></trkpt><trkpt lat="45.0959605" lon="7.887256"><ele>385.99999999999994</ele><time>2026-04-14T13:42:01.255Z</time></trkpt><trkpt lat="45.0959139" lon="7.8871737"><ele>386.0</ele><time>2026-04-14T13:42:03.29Z</time></trkpt><trkpt lat="45.0958474" lon="7.8870805"><ele>386.0</ele><time>2026-04-14T13:42:06.284Z</time></trkpt><trkpt lat="45.0958028" lon="7.8870144"><ele>386.0</ele><time>2026-04-14T13:42:08.319Z</time></trkpt><trkpt lat="45.0957468" lon="7.8869706"><ele>385.99999999999994</ele><time>2026-04-14T13:42:10.235Z</time></trkpt><trkpt lat="45.0956796" lon="7.8868802"><ele>386.0</ele><time>2026-04-14T13:42:13.23Z</time></trkpt><trkpt lat="45.0956506" lon="7.8867976"><ele>391.3333333333333</ele><time>2026-04-14T13:42:15.264Z</time></trkpt><trkpt lat="45.0956058" lon="7.8867221"><ele>396.66666666666663</ele><time>2026-04-14T13:42:17.3Z</time></trkpt><trkpt lat="45.095571" lon="7.8866409"><ele>402.0</ele><time>2026-04-14T13:42:19.215Z</time></trkpt><trkpt lat="45.0955516" lon="7.8865481"><ele>407.33333333333337</ele><time>2026-04-14T13:42:21.252Z</time></trkpt><trkpt lat="45.0955199" lon="7.8864111"><ele>412.6666666666667</ele><time>2026-04-14T13:42:24.245Z</time></trkpt><trkpt lat="45.095509" lon="7.8863084"><ele>418.0</ele><time>2026-04-14T13:42:26.279Z</time></trkpt><trkpt lat="45.0954988" lon="7.8861974"><ele>418.00000000000006</ele><time>2026-04-14T13:42:28.339Z</time></trkpt><trkpt lat="45.0954924" lon="7.8860981"><ele>418.0</ele><time>2026-04-14T13:42:30.23Z</time></trkpt><trkpt lat="45.0954625" lon="7.8859949"><ele>418.0</ele><time>2026-04-14T13:42:32.266Z</time></trkpt><trkpt lat="45.0954139" lon="7.8858871"><ele>418.0</ele><time>2026-04-14T13:42:34.302Z</time></trkpt><trkpt lat="45.0953312" lon="7.8857976"><ele>418.00000000000006</ele><time>2026-04-14T13:42:36.195Z</time></trkpt><trkpt lat="45.0952832" lon="7.8857358"><ele>418.0</ele><time>2026-04-14T13:42:37.196Z</time></trkpt><trkpt lat="45.095228" lon="7.8856681"><ele>416.4</ele><time>2026-04-14T13:42:38.195Z</time></trkpt><trkpt lat="45.0951687" lon="7.8855963"><ele>414.79999999999995</ele><time>2026-04-14T13:42:39.196Z</time></trkpt><trkpt lat="45.0951052" lon="7.8855159"><ele>413.2</ele><time>2026-04-14T13:42:40.195Z</time></trkpt><trkpt lat="45.09504" lon="7.8854241"><ele>411.6</ele><time>2026-04-14T13:42:41.194Z</time></trkpt><trkpt lat="45.0949695" lon="7.8853201"><ele>410.0</ele><time>2026-04-14T13:42:42.194Z</time></trkpt><trkpt lat="45.0948924" lon="7.8852046"><ele>404.5</ele><time>2026-04-14T13:42:43.194Z</time></trkpt><trkpt lat="45.0948215" lon="7.8850741"><ele>399.0</ele><time>2026-04-14T13:42:44.195Z</time></trkpt><trkpt lat="45.0947536" lon="7.8849451"><ele>393.5</ele><time>2026-04-14T13:42:45.193Z</time></trkpt><trkpt lat="45.094688" lon="7.8848145"><ele>388.0</ele><time>2026-04-14T13:42:46.193Z</time></trkpt><trkpt lat="45.0946295" lon="7.8846834"><ele>388.0</ele><time>2026-04-14T13:42:47.194Z</time></trkpt><trkpt lat="45.0945782" lon="7.8845473"><ele>388.0</ele><time>2026-04-14T13:42:48.195Z</time></trkpt><trkpt lat="45.0945304" lon="7.884409"><ele>388.0</ele><time>2026-04-14T13:42:49.194Z</time></trkpt><trkpt lat="45.0944929" lon="7.8842702"><ele>388.0</ele><time>2026-04-14T13:42:50.195Z</time></trkpt><trkpt lat="45.0944672" lon="7.8841338"><ele>388.0</ele><time>2026-04-14T13:42:51.194Z</time></trkpt><trkpt lat="45.0944568" lon="7.883998"><ele>384.4</ele><time>2026-04-14T13:42:52.196Z</time></trkpt><trkpt lat="45.0944523" lon="7.8838603"><ele>380.79999999999995</ele><time>2026-04-14T13:42:53.195Z</time></trkpt><trkpt lat="45.0944488" lon="7.8837237"><ele>377.2</ele><time>2026-04-14T13:42:54.196Z</time></trkpt><trkpt lat="45.0944429" lon="7.8835901"><ele>373.6</ele><time>2026-04-14T13:42:55.196Z</time></trkpt><trkpt lat="45.0944317" lon="7.8834613"><ele>370.0</ele><time>2026-04-14T13:42:56.196Z</time></trkpt><trkpt lat="45.0944139" lon="7.8833379"><ele>369.99999999999994</ele><time>2026-04-14T13:42:57.194Z</time></trkpt><trkpt lat="45.0943923" lon="7.8832222"><ele>370.0</ele><time>2026-04-14T13:42:58.193Z</time></trkpt><trkpt lat="45.0943688" lon="7.8831136"><ele>370.0</ele><time>2026-04-14T13:42:59.194Z</time></trkpt><trkpt lat="45.0943436" lon="7.8830134"><ele>370.0</ele><time>2026-04-14T13:43:00.193Z</time></trkpt><trkpt lat="45.0943165" lon="7.8829214"><ele>370.0</ele><time>2026-04-14T13:43:01.193Z</time></trkpt><trkpt lat="45.094288" lon="7.8828376"><ele>369.99999999999994</ele><time>2026-04-14T13:43:02.195Z</time></trkpt><trkpt lat="45.0942594" lon="7.8827571"><ele>370.0</ele><time>2026-04-14T13:43:03.193Z</time></trkpt><trkpt lat="45.0942119" lon="7.8826095"><ele>371.25</ele><time>2026-04-14T13:43:05.193Z</time></trkpt><trkpt lat="45.0941836" lon="7.8825251"><ele>372.5</ele><time>2026-04-14T13:43:07.193Z</time></trkpt><trkpt lat="45.0940154" lon="7.8823206"><ele>373.75</ele><time>2026-04-14T13:43:56.306Z</time></trkpt><trkpt lat="45.093957" lon="7.8822646"><ele>375.0</ele><time>2026-04-14T13:43:58.222Z</time></trkpt><trkpt lat="45.0938622" lon="7.8822287"><ele>375.0</ele><time>2026-04-14T13:44:00.257Z</time></trkpt><trkpt lat="45.0937524" lon="7.8821788"><ele>375.0</ele><time>2026-04-14T13:44:04.207Z</time></trkpt><trkpt lat="45.0936953" lon="7.882138"><ele>375.0</ele><time>2026-04-14T13:44:06.242Z</time></trkpt><trkpt lat="45.0936256" lon="7.8820618"><ele>375.0</ele><time>2026-04-14T13:44:08.277Z</time></trkpt><trkpt lat="45.0935327" lon="7.8819473"><ele>375.0</ele><time>2026-04-14T13:44:12.228Z</time></trkpt><trkpt lat="45.0934385" lon="7.8818287"><ele>375.5</ele><time>2026-04-14T13:44:16.299Z</time></trkpt><trkpt lat="45.093388" lon="7.8817639"><ele>376.0</ele><time>2026-04-14T13:44:18.216Z</time></trkpt><trkpt lat="45.0933188" lon="7.8816828"><ele>376.5</ele><time>2026-04-14T13:44:21.209Z</time></trkpt><trkpt lat="45.0932704" lon="7.881619"><ele>377.0</ele><time>2026-04-14T13:44:23.243Z</time></trkpt><trkpt lat="45.0932446" lon="7.881506"><ele>377.5</ele><time>2026-04-14T13:44:26.238Z</time></trkpt><trkpt lat="45.0933414" lon="7.8814592"><ele>378.0</ele><time>2026-04-14T13:44:30.194Z</time></trkpt><trkpt lat="45.0933981" lon="7.8815023"><ele>380.25</ele><time>2026-04-14T13:44:34.259Z</time></trkpt><trkpt lat="45.0935118" lon="7.881608"><ele>382.5</ele><time>2026-04-14T13:44:37.253Z</time></trkpt><trkpt lat="45.0935909" lon="7.8816314"><ele>384.75</ele><time>2026-04-14T13:44:40.246Z</time></trkpt><trkpt lat="45.0937706" lon="7.8815204"><ele>387.0</ele><time>2026-04-14T13:44:46.232Z</time></trkpt><trkpt lat="45.0938515" lon="7.8813968"><ele>387.0</ele><time>2026-04-14T13:44:50.195Z</time></trkpt><trkpt lat="45.0939373" lon="7.8812685"><ele>387.0</ele><time>2026-04-14T13:44:55.212Z</time></trkpt><trkpt lat="45.0939808" lon="7.8812031"><ele>387.0</ele><time>2026-04-14T13:44:59.281Z</time></trkpt><trkpt lat="45.0940424" lon="7.8811318"><ele>387.0</ele><time>2026-04-14T13:45:00.239Z</time></trkpt><trkpt lat="45.0940944" lon="7.8810675"><ele>387.0</ele><time>2026-04-14T13:45:03.233Z</time></trkpt><trkpt lat="45.0941524" lon="7.880985"><ele>387.0</ele><time>2026-04-14T13:45:04.195Z</time></trkpt><trkpt lat="45.0942024" lon="7.8809178"><ele>390.6</ele><time>2026-04-14T13:45:07.302Z</time></trkpt><trkpt lat="45.0943077" lon="7.8807933"><ele>394.20000000000005</ele><time>2026-04-14T13:45:11.252Z</time></trkpt><trkpt lat="45.0943759" lon="7.880691"><ele>397.8</ele><time>2026-04-14T13:45:13.288Z</time></trkpt><trkpt lat="45.0944483" lon="7.8806161"><ele>401.4</ele><time>2026-04-14T13:45:16.281Z</time></trkpt><trkpt lat="45.094516" lon="7.8806361"><ele>405.0</ele><time>2026-04-14T13:45:18.197Z</time></trkpt><trkpt lat="45.0945873" lon="7.880669"><ele>404.99999999999994</ele><time>2026-04-14T13:45:20.231Z</time></trkpt><trkpt lat="45.0946531" lon="7.88068"><ele>405.0</ele><time>2026-04-14T13:45:22.265Z</time></trkpt><trkpt lat="45.0947211" lon="7.8806816"><ele>405.0</ele><time>2026-04-14T13:45:24.302Z</time></trkpt><trkpt lat="45.0947849" lon="7.8806811"><ele>405.0</ele><time>2026-04-14T13:45:26.217Z</time></trkpt><trkpt lat="45.0948508" lon="7.880678"><ele>405.0</ele><time>2026-04-14T13:45:28.252Z</time></trkpt><trkpt lat="45.094911" lon="7.8807265"><ele>404.99999999999994</ele><time>2026-04-14T13:45:30.286Z</time></trkpt><trkpt lat="45.094952" lon="7.8807978"><ele>405.0</ele><time>2026-04-14T13:45:32.203Z</time></trkpt><trkpt lat="45.0950108" lon="7.8808951"><ele>402.6666666666667</ele><time>2026-04-14T13:45:35.196Z</time></trkpt><trkpt lat="45.0950751" lon="7.8809862"><ele>400.33333333333337</ele><time>2026-04-14T13:45:38.31Z</time></trkpt><trkpt lat="45.0951434" lon="7.8810796"><ele>398.0</ele><time>2026-04-14T13:45:41.302Z</time></trkpt><trkpt lat="45.0952157" lon="7.8811655"><ele>395.6666666666667</ele><time>2026-04-14T13:45:44.295Z</time></trkpt><trkpt lat="45.0952796" lon="7.8811795"><ele>393.33333333333337</ele><time>2026-04-14T13:45:46.212Z</time></trkpt><trkpt lat="45.0953406" lon="7.8811117"><ele>391.0</ele><time>2026-04-14T13:45:48.246Z</time></trkpt><trkpt lat="45.0953672" lon="7.8810295"><ele>393.6666666666667</ele><time>2026-04-14T13:45:50.282Z</time></trkpt><trkpt lat="45.095365" lon="7.8809264"><ele>396.33333333333337</ele><time>2026-04-14T13:45:52.198Z</time></trkpt><trkpt lat="45.0953522" lon="7.8808194"><ele>399.0</ele><time>2026-04-14T13:45:54.234Z</time></trkpt><trkpt lat="45.0952716" lon="7.880816"><ele>401.66666666666663</ele><time>2026-04-14T13:45:55.195Z</time></trkpt><trkpt lat="45.0952025" lon="7.8807552"><ele>404.3333333333333</ele><time>2026-04-14T13:45:57.228Z</time></trkpt><trkpt lat="45.0951626" lon="7.880681"><ele>407.0</ele><time>2026-04-14T13:45:59.264Z</time></trkpt><trkpt lat="45.0951246" lon="7.8805733"><ele>406.99999999999994</ele><time>2026-04-14T13:46:02.257Z</time></trkpt><trkpt lat="45.0950903" lon="7.8804579"><ele>407.0</ele><time>2026-04-14T13:46:05.251Z</time></trkpt><trkpt lat="45.0950635" lon="7.8803438"><ele>407.0</ele><time>2026-04-14T13:46:08.243Z</time></trkpt><trkpt lat="45.0950293" lon="7.8802522"><ele>407.0</ele><time>2026-04-14T13:46:11.237Z</time></trkpt><trkpt lat="45.0950199" lon="7.8801539"><ele>406.99999999999994</ele><time>2026-04-14T13:46:14.231Z</time></trkpt><trkpt lat="45.0950092" lon="7.8800538"><ele>407.0</ele><time>2026-04-14T13:46:17.224Z</time></trkpt><trkpt lat="45.094992" lon="7.8799566"><ele>408.8333333333333</ele><time>2026-04-14T13:46:20.217Z</time></trkpt><trkpt lat="45.0949855" lon="7.8798551"><ele>410.66666666666663</ele><time>2026-04-14T13:46:23.21Z</time></trkpt><trkpt lat="45.0950015" lon="7.8797411"><ele>412.5</ele><time>2026-04-14T13:46:26.202Z</time></trkpt><trkpt lat="45.0950483" lon="7.8796395"><ele>414.33333333333337</ele><time>2026-04-14T13:46:29.315Z</time></trkpt><trkpt lat="45.0950942" lon="7.8795504"><ele>416.1666666666667</ele><time>2026-04-14T13:46:32.309Z</time></trkpt><trkpt lat="45.095087" lon="7.8794579"><ele>418.0</ele><time>2026-04-14T13:46:34.225Z</time></trkpt><trkpt lat="45.0950678" lon="7.8793427"><ele>418.59999999999997</ele><time>2026-04-14T13:46:36.259Z</time></trkpt><trkpt lat="45.0950154" lon="7.8792275"><ele>419.2</ele><time>2026-04-14T13:46:38.196Z</time></trkpt><trkpt lat="45.0949829" lon="7.8790959"><ele>419.8</ele><time>2026-04-14T13:46:40.193Z</time></trkpt><trkpt lat="45.0949706" lon="7.8789487"><ele>420.4</ele><time>2026-04-14T13:46:42.195Z</time></trkpt><trkpt lat="45.0949787" lon="7.8787789"><ele>421.0</ele><time>2026-04-14T13:46:44.195Z</time></trkpt><trkpt lat="45.094984" lon="7.8786859"><ele>421.00000000000006</ele><time>2026-04-14T13:46:45.196Z</time></trkpt><trkpt lat="45.0949865" lon="7.8785945"><ele>421.0</ele><time>2026-04-14T13:46:46.195Z</time></trkpt><trkpt lat="45.0949824" lon="7.8785037"><ele>421.0</ele><time>2026-04-14T13:46:47.196Z</time></trkpt><trkpt lat="45.0949445" lon="7.8783335"><ele>421.0</ele><time>2026-04-14T13:46:49.195Z</time></trkpt><trkpt lat="45.0949224" lon="7.8782458"><ele>421.00000000000006</ele><time>2026-04-14T13:46:50.195Z</time></trkpt><trkpt lat="45.0949056" lon="7.8781493"><ele>421.0</ele><time>2026-04-14T13:46:51.196Z</time></trkpt><trkpt lat="45.0948943" lon="7.8780309"><ele>420.20000000000005</ele><time>2026-04-14T13:46:52.196Z</time></trkpt><trkpt lat="45.0948927" lon="7.8778965"><ele>419.40000000000003</ele><time>2026-04-14T13:46:53.195Z</time></trkpt><trkpt lat="45.094901" lon="7.8777535"><ele>418.6</ele><time>2026-04-14T13:46:54.195Z</time></trkpt><trkpt lat="45.0949083" lon="7.8776037"><ele>417.8</ele><time>2026-04-14T13:46:55.197Z</time></trkpt><trkpt lat="45.0949228" lon="7.8774519"><ele>417.0</ele><time>2026-04-14T13:46:56.196Z</time></trkpt><trkpt lat="45.0949446" lon="7.8772988"><ele>415.20000000000005</ele><time>2026-04-14T13:46:57.196Z</time></trkpt><trkpt lat="45.094974" lon="7.8771451"><ele>413.4</ele><time>2026-04-14T13:46:58.195Z</time></trkpt><trkpt lat="45.0950048" lon="7.8769938"><ele>411.6</ele><time>2026-04-14T13:46:59.197Z</time></trkpt><trkpt lat="45.0950354" lon="7.8768448"><ele>409.79999999999995</ele><time>2026-04-14T13:47:00.195Z</time></trkpt><trkpt lat="45.095066" lon="7.8766936"><ele>408.0</ele><time>2026-04-14T13:47:01.195Z</time></trkpt><trkpt lat="45.0950952" lon="7.8765479"><ele>407.0</ele><time>2026-04-14T13:47:02.196Z</time></trkpt><trkpt lat="45.0951202" lon="7.8764162"><ele>406.0</ele><time>2026-04-14T13:47:03.195Z</time></trkpt><trkpt lat="45.0951442" lon="7.8762995"><ele>405.0</ele><time>2026-04-14T13:47:04.195Z</time></trkpt><trkpt lat="45.0951717" lon="7.8762095"><ele>404.0</ele><time>2026-04-14T13:47:05.195Z</time></trkpt><trkpt lat="45.095257" lon="7.8761245"><ele>403.0</ele><time>2026-04-14T13:47:07.194Z</time></trkpt><trkpt lat="45.0953211" lon="7.8761199"><ele>402.0</ele><time>2026-04-14T13:47:08.194Z</time></trkpt><trkpt lat="45.0953908" lon="7.8761107"><ele>402.0</ele><time>2026-04-14T13:47:09.194Z</time></trkpt><trkpt lat="45.0954612" lon="7.87609"><ele>402.0</ele><time>2026-04-14T13:47:10.195Z</time></trkpt><trkpt lat="45.0955365" lon="7.8760533"><ele>402.0</ele><time>2026-04-14T13:47:11.194Z</time></trkpt><trkpt lat="45.095615" lon="7.8760073"><ele>402.0</ele><time>2026-04-14T13:47:12.194Z</time></trkpt><trkpt lat="45.0956998" lon="7.8759522"><ele>402.0</ele><time>2026-04-14T13:47:13.196Z</time></trkpt><trkpt lat="45.0957898" lon="7.8758846"><ele>402.0</ele><time>2026-04-14T13:47:14.198Z</time></trkpt><trkpt lat="45.095875" lon="7.8757981"><ele>401.5</ele><time>2026-04-14T13:47:15.195Z</time></trkpt><trkpt lat="45.0959443" lon="7.8756763"><ele>401.0</ele><time>2026-04-14T13:47:16.195Z</time></trkpt><trkpt lat="45.0959932" lon="7.8755262"><ele>400.5</ele><time>2026-04-14T13:47:17.195Z</time></trkpt><trkpt lat="45.0960267" lon="7.8753595"><ele>400.0</ele><time>2026-04-14T13:47:18.194Z</time></trkpt><trkpt lat="45.096058" lon="7.8751881"><ele>400.0</ele><time>2026-04-14T13:47:19.195Z</time></trkpt><trkpt lat="45.0960904" lon="7.8750133"><ele>400.0</ele><time>2026-04-14T13:47:20.195Z</time></trkpt><trkpt lat="45.0961285" lon="7.8748387"><ele>400.0</ele><time>2026-04-14T13:47:21.195Z</time></trkpt><trkpt lat="45.0961838" lon="7.8746699"><ele>400.0</ele><time>2026-04-14T13:47:22.195Z</time></trkpt><trkpt lat="45.0962599" lon="7.8745127"><ele>400.0</ele><time>2026-04-14T13:47:23.195Z</time></trkpt><trkpt lat="45.0963443" lon="7.8743693"><ele>400.0</ele><time>2026-04-14T13:47:24.194Z</time></trkpt><trkpt lat="45.0964423" lon="7.8742442"><ele>400.0</ele><time>2026-04-14T13:47:25.194Z</time></trkpt><trkpt lat="45.0965475" lon="7.8741307"><ele>400.0</ele><time>2026-04-14T13:47:26.193Z</time></trkpt><trkpt lat="45.0966561" lon="7.8740256"><ele>394.75</ele><time>2026-04-14T13:47:27.195Z</time></trkpt><trkpt lat="45.0967614" lon="7.8739203"><ele>389.5</ele><time>2026-04-14T13:47:28.194Z</time></trkpt><trkpt lat="45.0968643" lon="7.873809"><ele>384.25</ele><time>2026-04-14T13:47:29.195Z</time></trkpt><trkpt lat="45.0969649" lon="7.8736943"><ele>379.0</ele><time>2026-04-14T13:47:30.194Z</time></trkpt><trkpt lat="45.0970631" lon="7.8735731"><ele>379.0</ele><time>2026-04-14T13:47:31.195Z</time></trkpt><trkpt lat="45.0971568" lon="7.8734451"><ele>379.0</ele><time>2026-04-14T13:47:32.194Z</time></trkpt><trkpt lat="45.097244" lon="7.8733091"><ele>379.0</ele><time>2026-04-14T13:47:33.195Z</time></trkpt><trkpt lat="45.0973258" lon="7.8731676"><ele>379.0</ele><time>2026-04-14T13:47:34.194Z</time></trkpt><trkpt lat="45.0974053" lon="7.8730251"><ele>377.5</ele><time>2026-04-14T13:47:35.194Z</time></trkpt><trkpt lat="45.0974872" lon="7.8728831"><ele>376.0</ele><time>2026-04-14T13:47:36.195Z</time></trkpt><trkpt lat="45.0975691" lon="7.8727413"><ele>374.5</ele><time>2026-04-14T13:47:37.196Z</time></trkpt><trkpt lat="45.0976538" lon="7.8726009"><ele>373.0</ele><time>2026-04-14T13:47:38.196Z</time></trkpt><trkpt lat="45.0977389" lon="7.872461"><ele>373.0</ele><time>2026-04-14T13:47:39.194Z</time></trkpt><trkpt lat="45.0978224" lon="7.8723224"><ele>373.0</ele><time>2026-04-14T13:47:40.195Z</time></trkpt><trkpt lat="45.0979018" lon="7.8721871"><ele>373.0</ele><time>2026-04-14T13:47:41.193Z</time></trkpt><trkpt lat="45.0979831" lon="7.8720582"><ele>373.0</ele><time>2026-04-14T13:47:42.194Z</time></trkpt><trkpt lat="45.0980729" lon="7.8719497"><ele>373.0</ele><time>2026-04-14T13:47:43.194Z</time></trkpt><trkpt lat="45.098172" lon="7.8718679"><ele>373.0</ele><time>2026-04-14T13:47:44.194Z</time></trkpt><trkpt lat="45.0982716" lon="7.8717981"><ele>373.0</ele><time>2026-04-14T13:47:45.194Z</time></trkpt><trkpt lat="45.098365" lon="7.8717263"><ele>373.0</ele><time>2026-04-14T13:47:46.195Z</time></trkpt><trkpt lat="45.0984525" lon="7.8716521"><ele>373.0</ele><time>2026-04-14T13:47:47.194Z</time></trkpt><trkpt lat="45.098539" lon="7.8715883"><ele>371.79999999999995</ele><time>2026-04-14T13:47:48.195Z</time></trkpt><trkpt lat="45.0986298" lon="7.8715496"><ele>370.6</ele><time>2026-04-14T13:47:49.195Z</time></trkpt><trkpt lat="45.0987255" lon="7.8715551"><ele>369.4</ele><time>2026-04-14T13:47:50.194Z</time></trkpt><trkpt lat="45.098821" lon="7.8716015"><ele>368.20000000000005</ele><time>2026-04-14T13:47:51.195Z</time></trkpt><trkpt lat="45.0989133" lon="7.8716734"><ele>367.0</ele><time>2026-04-14T13:47:52.194Z</time></trkpt><trkpt lat="45.0990011" lon="7.8717515"><ele>364.20000000000005</ele><time>2026-04-14T13:47:53.196Z</time></trkpt><trkpt lat="45.0990903" lon="7.8718248"><ele>361.4</ele><time>2026-04-14T13:47:54.194Z</time></trkpt><trkpt lat="45.0991803" lon="7.871894"><ele>358.6</ele><time>2026-04-14T13:47:55.196Z</time></trkpt><trkpt lat="45.099273" lon="7.8719555"><ele>355.79999999999995</ele><time>2026-04-14T13:47:56.195Z</time></trkpt><trkpt lat="45.0993678" lon="7.8720024"><ele>353.0</ele><time>2026-04-14T13:47:57.195Z</time></trkpt><trkpt lat="45.0994644" lon="7.8720312"><ele>353.0</ele><time>2026-04-14T13:47:58.195Z</time></trkpt><trkpt lat="45.0995627" lon="7.8720545"><ele>353.0</ele><time>2026-04-14T13:47:59.194Z</time></trkpt><trkpt lat="45.0996601" lon="7.8720797"><ele>353.0</ele><time>2026-04-14T13:48:00.193Z</time></trkpt><trkpt lat="45.0997541" lon="7.8721166"><ele>353.0</ele><time>2026-04-14T13:48:01.194Z</time></trkpt><trkpt lat="45.0998429" lon="7.8721693"><ele>353.0</ele><time>2026-04-14T13:48:02.194Z</time></trkpt><trkpt lat="45.0999237" lon="7.8722407"><ele>353.1666666666667</ele><time>2026-04-14T13:48:03.194Z</time></trkpt><trkpt lat="45.09999" lon="7.8723328"><ele>353.33333333333337</ele><time>2026-04-14T13:48:04.193Z</time></trkpt><trkpt lat="45.1000409" lon="7.8724436"><ele>353.5</ele><time>2026-04-14T13:48:05.192Z</time></trkpt><trkpt lat="45.100078" lon="7.872559"><ele>353.6666666666667</ele><time>2026-04-14T13:48:06.194Z</time></trkpt><trkpt lat="45.1001013" lon="7.8726785"><ele>353.8333333333333</ele><time>2026-04-14T13:48:07.194Z</time></trkpt><trkpt lat="45.1001072" lon="7.8727968"><ele>354.0</ele><time>2026-04-14T13:48:08.194Z</time></trkpt><trkpt lat="45.1000987" lon="7.8729126"><ele>354.0</ele><time>2026-04-14T13:48:09.195Z</time></trkpt><trkpt lat="45.1000794" lon="7.8730205"><ele>354.0</ele><time>2026-04-14T13:48:10.196Z</time></trkpt><trkpt lat="45.1000542" lon="7.8731234"><ele>354.0</ele><time>2026-04-14T13:48:11.193Z</time></trkpt><trkpt lat="45.1000252" lon="7.8732192"><ele>354.0</ele><time>2026-04-14T13:48:12.193Z</time></trkpt><trkpt lat="45.099999" lon="7.8733113"><ele>354.0</ele><time>2026-04-14T13:48:13.194Z</time></trkpt><trkpt lat="45.0999796" lon="7.8734056"><ele>354.0</ele><time>2026-04-14T13:48:14.196Z</time></trkpt><trkpt lat="45.0999741" lon="7.8735061"><ele>354.0</ele><time>2026-04-14T13:48:15.194Z</time></trkpt><trkpt lat="45.0999862" lon="7.8736109"><ele>352.3333333333333</ele><time>2026-04-14T13:48:16.194Z</time></trkpt><trkpt lat="45.100017" lon="7.8737162"><ele>350.6666666666667</ele><time>2026-04-14T13:48:17.193Z</time></trkpt><trkpt lat="45.1000662" lon="7.8738129"><ele>349.0</ele><time>2026-04-14T13:48:18.193Z</time></trkpt><trkpt lat="45.1001299" lon="7.8738948"><ele>347.33333333333337</ele><time>2026-04-14T13:48:19.194Z</time></trkpt><trkpt lat="45.1002053" lon="7.873966"><ele>345.6666666666667</ele><time>2026-04-14T13:48:20.195Z</time></trkpt><trkpt lat="45.1002825" lon="7.8740332"><ele>344.0</ele><time>2026-04-14T13:48:21.194Z</time></trkpt><trkpt lat="45.1003615" lon="7.8740994"><ele>344.0</ele><time>2026-04-14T13:48:22.194Z</time></trkpt><trkpt lat="45.1004407" lon="7.8741638"><ele>344.0</ele><time>2026-04-14T13:48:23.194Z</time></trkpt><trkpt lat="45.1005208" lon="7.8742241"><ele>344.0</ele><time>2026-04-14T13:48:24.194Z</time></trkpt><trkpt lat="45.1005981" lon="7.8742866"><ele>344.0</ele><time>2026-04-14T13:48:25.193Z</time></trkpt><trkpt lat="45.1006735" lon="7.8743568"><ele>344.0</ele><time>2026-04-14T13:48:26.193Z</time></trkpt><trkpt lat="45.100747" lon="7.8744303"><ele>344.0</ele><time>2026-04-14T13:48:27.194Z</time></trkpt><trkpt lat="45.1008158" lon="7.8745129"><ele>344.0</ele><time>2026-04-14T13:48:28.193Z</time></trkpt><trkpt lat="45.1008823" lon="7.8745985"><ele>344.0</ele><time>2026-04-14T13:48:29.193Z</time></trkpt><trkpt lat="45.1009488" lon="7.8746825"><ele>344.0</ele><time>2026-04-14T13:48:30.195Z</time></trkpt><trkpt lat="45.1010197" lon="7.874763"><ele>344.0</ele><time>2026-04-14T13:48:31.194Z</time></trkpt><trkpt lat="45.1010942" lon="7.874836"><ele>344.0</ele><time>2026-04-14T13:48:32.194Z</time></trkpt><trkpt lat="45.1011666" lon="7.8749126"><ele>344.0</ele><time>2026-04-14T13:48:33.193Z</time></trkpt><trkpt lat="45.1012372" lon="7.8749922"><ele>344.0</ele><time>2026-04-14T13:48:34.193Z</time></trkpt><trkpt lat="45.1013073" lon="7.875075"><ele>344.0</ele><time>2026-04-14T13:48:35.193Z</time></trkpt><trkpt lat="45.1013771" lon="7.8751573"><ele>344.0</ele><time>2026-04-14T13:48:36.194Z</time></trkpt><trkpt lat="45.1014454" lon="7.8752421"><ele>342.79999999999995</ele><time>2026-04-14T13:48:37.194Z</time></trkpt><trkpt lat="45.1015135" lon="7.875329"><ele>341.59999999999997</ele><time>2026-04-14T13:48:38.195Z</time></trkpt><trkpt lat="45.1015828" lon="7.8754162"><ele>340.4</ele><time>2026-04-14T13:48:39.194Z</time></trkpt><trkpt lat="45.1016516" lon="7.8755031"><ele>339.2</ele><time>2026-04-14T13:48:40.192Z</time></trkpt><trkpt lat="45.1017228" lon="7.8755914"><ele>338.0</ele><time>2026-04-14T13:48:41.194Z</time></trkpt><trkpt lat="45.1017919" lon="7.875681"><ele>338.0</ele><time>2026-04-14T13:48:42.193Z</time></trkpt><trkpt lat="45.1018603" lon="7.8757705"><ele>338.0</ele><time>2026-04-14T13:48:43.193Z</time></trkpt><trkpt lat="45.1019287" lon="7.8758582"><ele>338.0</ele><time>2026-04-14T13:48:44.193Z</time></trkpt><trkpt lat="45.1019983" lon="7.8759449"><ele>338.0</ele><time>2026-04-14T13:48:45.194Z</time></trkpt><trkpt lat="45.1020682" lon="7.8760314"><ele>338.0</ele><time>2026-04-14T13:48:46.193Z</time></trkpt><trkpt lat="45.102141" lon="7.8761138"><ele>336.59999999999997</ele><time>2026-04-14T13:48:47.195Z</time></trkpt><trkpt lat="45.1022205" lon="7.8761777"><ele>335.2</ele><time>2026-04-14T13:48:48.194Z</time></trkpt><trkpt lat="45.1023097" lon="7.8762135"><ele>333.8</ele><time>2026-04-14T13:48:49.196Z</time></trkpt><trkpt lat="45.1024049" lon="7.8762163"><ele>332.4</ele><time>2026-04-14T13:48:50.195Z</time></trkpt><trkpt lat="45.1025021" lon="7.8761966"><ele>331.0</ele><time>2026-04-14T13:48:51.195Z</time></trkpt><trkpt lat="45.1025994" lon="7.8761665"><ele>331.0</ele><time>2026-04-14T13:48:52.196Z</time></trkpt><trkpt lat="45.1026978" lon="7.8761415"><ele>331.0</ele><time>2026-04-14T13:48:53.195Z</time></trkpt><trkpt lat="45.1027979" lon="7.8761155"><ele>331.0</ele><time>2026-04-14T13:48:54.193Z</time></trkpt><trkpt lat="45.1028997" lon="7.8761011"><ele>331.0</ele><time>2026-04-14T13:48:55.194Z</time></trkpt><trkpt lat="45.1029986" lon="7.8761183"><ele>331.0</ele><time>2026-04-14T13:48:56.193Z</time></trkpt><trkpt lat="45.1030868" lon="7.8761813"><ele>331.0</ele><time>2026-04-14T13:48:57.194Z</time></trkpt><trkpt lat="45.103161" lon="7.8762754"><ele>331.0</ele><time>2026-04-14T13:48:58.194Z</time></trkpt><trkpt lat="45.1032051" lon="7.8763914"><ele>331.0</ele><time>2026-04-14T13:48:59.193Z</time></trkpt><trkpt lat="45.103228" lon="7.8765176"><ele>331.0</ele><time>2026-04-14T13:49:00.194Z</time></trkpt><trkpt lat="45.103248" lon="7.8766456"><ele>331.0</ele><time>2026-04-14T13:49:01.194Z</time></trkpt><trkpt lat="45.1032692" lon="7.8767675"><ele>330.8333333333333</ele><time>2026-04-14T13:49:02.195Z</time></trkpt><trkpt lat="45.1032938" lon="7.8768844"><ele>330.66666666666663</ele><time>2026-04-14T13:49:03.194Z</time></trkpt><trkpt lat="45.1033208" lon="7.8769942"><ele>330.5</ele><time>2026-04-14T13:49:04.195Z</time></trkpt><trkpt lat="45.1033516" lon="7.8770943"><ele>330.3333333333333</ele><time>2026-04-14T13:49:05.193Z</time></trkpt><trkpt lat="45.103392" lon="7.8771849"><ele>330.1666666666667</ele><time>2026-04-14T13:49:06.195Z</time></trkpt><trkpt lat="45.1034415" lon="7.8772652"><ele>330.0</ele><time>2026-04-14T13:49:07.194Z</time></trkpt><trkpt lat="45.1034928" lon="7.8773411"><ele>330.00000000000006</ele><time>2026-04-14T13:49:08.196Z</time></trkpt><trkpt lat="45.1035448" lon="7.8774114"><ele>330.0</ele><time>2026-04-14T13:49:09.193Z</time></trkpt><trkpt lat="45.1035993" lon="7.8774791"><ele>330.0</ele><time>2026-04-14T13:49:10.194Z</time></trkpt><trkpt lat="45.103653" lon="7.877544"><ele>330.0</ele><time>2026-04-14T13:49:11.193Z</time></trkpt><trkpt lat="45.1037064" lon="7.8776131"><ele>330.0</ele><time>2026-04-14T13:49:12.195Z</time></trkpt><trkpt lat="45.1037581" lon="7.8776847"><ele>330.00000000000006</ele><time>2026-04-14T13:49:13.193Z</time></trkpt><trkpt lat="45.1038099" lon="7.8777566"><ele>330.0</ele><time>2026-04-14T13:49:14.196Z</time></trkpt><trkpt lat="45.1038631" lon="7.8778271"><ele>329.42857142857144</ele><time>2026-04-14T13:49:15.193Z</time></trkpt><trkpt lat="45.103915" lon="7.8778999"><ele>328.8571428571429</ele><time>2026-04-14T13:49:16.193Z</time></trkpt><trkpt lat="45.1039696" lon="7.8779705"><ele>328.28571428571433</ele><time>2026-04-14T13:49:17.196Z</time></trkpt><trkpt lat="45.1040262" lon="7.8780355"><ele>327.7142857142857</ele><time>2026-04-14T13:49:18.194Z</time></trkpt><trkpt lat="45.1040847" lon="7.8780932"><ele>327.1428571428571</ele><time>2026-04-14T13:49:19.195Z</time></trkpt><trkpt lat="45.1041473" lon="7.878146"><ele>326.5714285714286</ele><time>2026-04-14T13:49:20.193Z</time></trkpt><trkpt lat="45.1042125" lon="7.8781897"><ele>326.0</ele><time>2026-04-14T13:49:21.195Z</time></trkpt><trkpt lat="45.1042783" lon="7.8782246"><ele>326.0</ele><time>2026-04-14T13:49:22.196Z</time></trkpt><trkpt lat="45.1043464" lon="7.8782514"><ele>326.0</ele><time>2026-04-14T13:49:23.196Z</time></trkpt><trkpt lat="45.1044147" lon="7.8782742"><ele>326.0</ele><time>2026-04-14T13:49:24.193Z</time></trkpt><trkpt lat="45.1044805" lon="7.878293"><ele>326.0</ele><time>2026-04-14T13:49:25.194Z</time></trkpt><trkpt lat="45.1045468" lon="7.8783119"><ele>326.0</ele><time>2026-04-14T13:49:26.195Z</time></trkpt><trkpt lat="45.104616" lon="7.8783305"><ele>326.0</ele><time>2026-04-14T13:49:27.194Z</time></trkpt><trkpt lat="45.1046862" lon="7.8783485"><ele>326.0</ele><time>2026-04-14T13:49:28.194Z</time></trkpt><trkpt lat="45.1047567" lon="7.8783653"><ele>326.0</ele><time>2026-04-14T13:49:29.192Z</time></trkpt><trkpt lat="45.1048283" lon="7.8783903"><ele>326.0</ele><time>2026-04-14T13:49:30.194Z</time></trkpt><trkpt lat="45.1049029" lon="7.8784189"><ele>326.0</ele><time>2026-04-14T13:49:31.199Z</time></trkpt><trkpt lat="45.104978" lon="7.8784476"><ele>326.0</ele><time>2026-04-14T13:49:32.2Z</time></trkpt><trkpt lat="45.1050557" lon="7.878473"><ele>326.0</ele><time>2026-04-14T13:49:33.194Z</time></trkpt><trkpt lat="45.1051389" lon="7.8784988"><ele>326.0</ele><time>2026-04-14T13:49:34.194Z</time></trkpt><trkpt lat="45.1052286" lon="7.8785169"><ele>326.4</ele><time>2026-04-14T13:49:35.194Z</time></trkpt><trkpt lat="45.105327" lon="7.8785221"><ele>326.8</ele><time>2026-04-14T13:49:36.194Z</time></trkpt><trkpt lat="45.1054276" lon="7.8785072"><ele>327.2</ele><time>2026-04-14T13:49:37.194Z</time></trkpt><trkpt lat="45.1055284" lon="7.8784757"><ele>327.59999999999997</ele><time>2026-04-14T13:49:38.195Z</time></trkpt><trkpt lat="45.1056303" lon="7.8784346"><ele>328.0</ele><time>2026-04-14T13:49:39.193Z</time></trkpt><trkpt lat="45.1057324" lon="7.8783905"><ele>328.0</ele><time>2026-04-14T13:49:40.194Z</time></trkpt><trkpt lat="45.1058356" lon="7.8783463"><ele>328.0</ele><time>2026-04-14T13:49:41.194Z</time></trkpt><trkpt lat="45.1059394" lon="7.8783068"><ele>328.0</ele><time>2026-04-14T13:49:42.193Z</time></trkpt><trkpt lat="45.1060471" lon="7.8782859"><ele>328.0</ele><time>2026-04-14T13:49:43.194Z</time></trkpt><trkpt lat="45.1061572" lon="7.8782929"><ele>328.0</ele><time>2026-04-14T13:49:44.193Z</time></trkpt><trkpt lat="45.1062646" lon="7.8783359"><ele>328.0</ele><time>2026-04-14T13:49:45.194Z</time></trkpt><trkpt lat="45.1063686" lon="7.8783904"><ele>328.0</ele><time>2026-04-14T13:49:46.194Z</time></trkpt><trkpt lat="45.1064732" lon="7.8784349"><ele>328.0</ele><time>2026-04-14T13:49:47.194Z</time></trkpt><trkpt lat="45.1065821" lon="7.878457"><ele>328.0</ele><time>2026-04-14T13:49:48.193Z</time></trkpt><trkpt lat="45.106692" lon="7.8784505"><ele>328.0</ele><time>2026-04-14T13:49:49.194Z</time></trkpt><trkpt lat="45.1067954" lon="7.878432"><ele>328.3333333333333</ele><time>2026-04-14T13:49:50.195Z</time></trkpt><trkpt lat="45.1068849" lon="7.8784247"><ele>328.66666666666663</ele><time>2026-04-14T13:49:51.194Z</time></trkpt><trkpt lat="45.1069634" lon="7.8784329"><ele>329.0</ele><time>2026-04-14T13:49:52.193Z</time></trkpt><trkpt lat="45.1070269" lon="7.878469"><ele>329.3333333333333</ele><time>2026-04-14T13:49:53.195Z</time></trkpt><trkpt lat="45.1070445" lon="7.87863"><ele>329.6666666666667</ele><time>2026-04-14T13:49:55.194Z</time></trkpt><trkpt lat="45.1070087" lon="7.8787074"><ele>330.0</ele><time>2026-04-14T13:49:56.195Z</time></trkpt><trkpt lat="45.1069059" lon="7.8787319"><ele>327.6666666666667</ele><time>2026-04-14T13:49:57.194Z</time></trkpt><trkpt lat="45.1068035" lon="7.8787436"><ele>325.3333333333333</ele><time>2026-04-14T13:49:58.194Z</time></trkpt><trkpt lat="45.1067104" lon="7.8787474"><ele>323.0</ele><time>2026-04-14T13:49:59.192Z</time></trkpt><trkpt lat="45.1066293" lon="7.8787555"><ele>320.66666666666663</ele><time>2026-04-14T13:50:00.192Z</time></trkpt><trkpt lat="45.1065528" lon="7.8787862"><ele>318.3333333333333</ele><time>2026-04-14T13:50:01.194Z</time></trkpt><trkpt lat="45.1064884" lon="7.8788464"><ele>316.0</ele><time>2026-04-14T13:50:02.195Z</time></trkpt><trkpt lat="45.1064448" lon="7.8789305"><ele>316.0</ele><time>2026-04-14T13:50:03.194Z</time></trkpt><trkpt lat="45.1064431" lon="7.8790227"><ele>316.0</ele><time>2026-04-14T13:50:04.193Z</time></trkpt><trkpt lat="45.1064896" lon="7.8791038"><ele>316.0</ele><time>2026-04-14T13:50:05.194Z</time></trkpt><trkpt lat="45.1065549" lon="7.8791485"><ele>316.0</ele><time>2026-04-14T13:50:06.194Z</time></trkpt><trkpt lat="45.1066309" lon="7.8791458"><ele>316.0</ele><time>2026-04-14T13:50:07.195Z</time></trkpt><trkpt lat="45.1067023" lon="7.8791043"><ele>316.0</ele><time>2026-04-14T13:50:08.194Z</time></trkpt><trkpt lat="45.1067872" lon="7.8790179"><ele>315.0</ele><time>2026-04-14T13:50:09.195Z</time></trkpt><trkpt lat="45.1068706" lon="7.8789474"><ele>314.0</ele><time>2026-04-14T13:50:10.194Z</time></trkpt><trkpt lat="45.1069587" lon="7.878898"><ele>313.0</ele><time>2026-04-14T13:50:11.194Z</time></trkpt><trkpt lat="45.1070513" lon="7.8788652"><ele>312.0</ele><time>2026-04-14T13:50:12.195Z</time></trkpt><trkpt lat="45.1071471" lon="7.8788561"><ele>311.0</ele><time>2026-04-14T13:50:13.196Z</time></trkpt><trkpt lat="45.107243" lon="7.8788764"><ele>311.0</ele><time>2026-04-14T13:50:14.194Z</time></trkpt><trkpt lat="45.1073319" lon="7.8789313"><ele>311.0</ele><time>2026-04-14T13:50:15.193Z</time></trkpt><trkpt lat="45.1074115" lon="7.8790185"><ele>311.0</ele><time>2026-04-14T13:50:16.193Z</time></trkpt><trkpt lat="45.1074832" lon="7.8791216"><ele>311.0</ele><time>2026-04-14T13:50:17.193Z</time></trkpt><trkpt lat="45.1075566" lon="7.8792243"><ele>311.0</ele><time>2026-04-14T13:50:18.194Z</time></trkpt><trkpt lat="45.1076386" lon="7.8793128"><ele>307.6</ele><time>2026-04-14T13:50:19.194Z</time></trkpt><trkpt lat="45.1077336" lon="7.8793804"><ele>304.20000000000005</ele><time>2026-04-14T13:50:20.194Z</time></trkpt><trkpt lat="45.1078367" lon="7.8794239"><ele>300.79999999999995</ele><time>2026-04-14T13:50:21.195Z</time></trkpt><trkpt lat="45.1079465" lon="7.8794419"><ele>297.4</ele><time>2026-04-14T13:50:22.194Z</time></trkpt><trkpt lat="45.1080576" lon="7.8794376"><ele>294.0</ele><time>2026-04-14T13:50:23.195Z</time></trkpt><trkpt lat="45.1081687" lon="7.8794151"><ele>293.5</ele><time>2026-04-14T13:50:24.196Z</time></trkpt><trkpt lat="45.1082807" lon="7.8793905"><ele>293.0</ele><time>2026-04-14T13:50:25.195Z</time></trkpt><trkpt lat="45.108394" lon="7.8793633"><ele>292.5</ele><time>2026-04-14T13:50:26.196Z</time></trkpt><trkpt lat="45.1085047" lon="7.8793228"><ele>292.0</ele><time>2026-04-14T13:50:27.194Z</time></trkpt><trkpt lat="45.1086064" lon="7.8792487"><ele>294.0</ele><time>2026-04-14T13:50:28.194Z</time></trkpt><trkpt lat="45.1086907" lon="7.8791412"><ele>296.0</ele><time>2026-04-14T13:50:29.193Z</time></trkpt><trkpt lat="45.108772" lon="7.8790223"><ele>298.0</ele><time>2026-04-14T13:50:30.194Z</time></trkpt><trkpt lat="45.108864" lon="7.8789086"><ele>300.0</ele><time>2026-04-14T13:50:31.193Z</time></trkpt><trkpt lat="45.1089645" lon="7.8788057"><ele>300.0</ele><time>2026-04-14T13:50:32.194Z</time></trkpt><trkpt lat="45.1090647" lon="7.8787036"><ele>300.0</ele><time>2026-04-14T13:50:33.195Z</time></trkpt><trkpt lat="45.1091477" lon="7.8785793"><ele>300.0</ele><time>2026-04-14T13:50:34.193Z</time></trkpt><trkpt lat="45.1091986" lon="7.8784194"><ele>300.0</ele><time>2026-04-14T13:50:35.194Z</time></trkpt><trkpt lat="45.109226" lon="7.8782418"><ele>297.5</ele><time>2026-04-14T13:50:36.194Z</time></trkpt><trkpt lat="45.1092434" lon="7.8780568"><ele>295.0</ele><time>2026-04-14T13:50:37.194Z</time></trkpt><trkpt lat="45.1092711" lon="7.8778723"><ele>292.5</ele><time>2026-04-14T13:50:38.194Z</time></trkpt><trkpt lat="45.1093136" lon="7.8776917"><ele>290.0</ele><time>2026-04-14T13:50:39.194Z</time></trkpt><trkpt lat="45.1093745" lon="7.8775223"><ele>289.5</ele><time>2026-04-14T13:50:40.194Z</time></trkpt><trkpt lat="45.1094631" lon="7.8773743"><ele>289.0</ele><time>2026-04-14T13:50:41.194Z</time></trkpt><trkpt lat="45.109569" lon="7.8772437"><ele>288.5</ele><time>2026-04-14T13:50:42.194Z</time></trkpt><trkpt lat="45.1096762" lon="7.8771127"><ele>288.0</ele><time>2026-04-14T13:50:43.194Z</time></trkpt><trkpt lat="45.1097742" lon="7.8769685"><ele>288.0</ele><time>2026-04-14T13:50:44.193Z</time></trkpt><trkpt lat="45.1098661" lon="7.8768127"><ele>288.0</ele><time>2026-04-14T13:50:45.194Z</time></trkpt><trkpt lat="45.1099546" lon="7.8766547"><ele>288.0</ele><time>2026-04-14T13:50:46.194Z</time></trkpt><trkpt lat="45.1100456" lon="7.8764977"><ele>288.0</ele><time>2026-04-14T13:50:47.194Z</time></trkpt><trkpt lat="45.1101401" lon="7.8763465"><ele>284.0</ele><time>2026-04-14T13:50:48.194Z</time></trkpt><trkpt lat="45.1102412" lon="7.8762042"><ele>280.0</ele><time>2026-04-14T13:50:49.195Z</time></trkpt><trkpt lat="45.1103479" lon="7.8760706"><ele>276.0</ele><time>2026-04-14T13:50:50.196Z</time></trkpt><trkpt lat="45.1104592" lon="7.8759441"><ele>272.0</ele><time>2026-04-14T13:50:51.193Z</time></trkpt><trkpt lat="45.1105706" lon="7.8758251"><ele>272.0</ele><time>2026-04-14T13:50:52.194Z</time></trkpt><trkpt lat="45.1106855" lon="7.8757092"><ele>272.0</ele><time>2026-04-14T13:50:53.194Z</time></trkpt><trkpt lat="45.1107983" lon="7.8755894"><ele>272.0</ele><time>2026-04-14T13:50:54.194Z</time></trkpt><trkpt lat="45.1109103" lon="7.8754681"><ele>272.0</ele><time>2026-04-14T13:50:55.194Z</time></trkpt><trkpt lat="45.1110236" lon="7.8753497"><ele>270.75</ele><time>2026-04-14T13:50:56.193Z</time></trkpt><trkpt lat="45.1111402" lon="7.8752431"><ele>269.5</ele><time>2026-04-14T13:50:57.193Z</time></trkpt><trkpt lat="45.1112612" lon="7.8751457"><ele>268.25</ele><time>2026-04-14T13:50:58.193Z</time></trkpt><trkpt lat="45.111383" lon="7.8750512"><ele>267.0</ele><time>2026-04-14T13:50:59.194Z</time></trkpt><trkpt lat="45.1115048" lon="7.8749559"><ele>265.5</ele><time>2026-04-14T13:51:00.193Z</time></trkpt><trkpt lat="45.1116263" lon="7.8748606"><ele>264.0</ele><time>2026-04-14T13:51:01.193Z</time></trkpt><trkpt lat="45.1117465" lon="7.8747646"><ele>262.5</ele><time>2026-04-14T13:51:02.194Z</time></trkpt><trkpt lat="45.1118651" lon="7.874667"><ele>261.0</ele><time>2026-04-14T13:51:03.194Z</time></trkpt><trkpt lat="45.1119805" lon="7.8745582"><ele>261.0</ele><time>2026-04-14T13:51:04.196Z</time></trkpt><trkpt lat="45.1120878" lon="7.8744316"><ele>261.0</ele><time>2026-04-14T13:51:05.193Z</time></trkpt><trkpt lat="45.1121838" lon="7.8742843"><ele>261.0</ele><time>2026-04-14T13:51:06.194Z</time></trkpt><trkpt lat="45.1122674" lon="7.874118"><ele>261.0</ele><time>2026-04-14T13:51:07.194Z</time></trkpt><trkpt lat="45.1123377" lon="7.8739324"><ele>260.0</ele><time>2026-04-14T13:51:08.195Z</time></trkpt><trkpt lat="45.1123941" lon="7.8737357"><ele>259.0</ele><time>2026-04-14T13:51:09.194Z</time></trkpt><trkpt lat="45.112437" lon="7.8735299"><ele>258.0</ele><time>2026-04-14T13:51:10.194Z</time></trkpt><trkpt lat="45.1124727" lon="7.8733262"><ele>257.0</ele><time>2026-04-14T13:51:11.194Z</time></trkpt><trkpt lat="45.1125065" lon="7.8731295"><ele>255.25</ele><time>2026-04-14T13:51:12.194Z</time></trkpt><trkpt lat="45.1125371" lon="7.8729393"><ele>253.5</ele><time>2026-04-14T13:51:13.195Z</time></trkpt><trkpt lat="45.1125655" lon="7.8727584"><ele>251.75</ele><time>2026-04-14T13:51:14.194Z</time></trkpt><trkpt lat="45.1125907" lon="7.8725835"><ele>250.0</ele><time>2026-04-14T13:51:15.193Z</time></trkpt><trkpt lat="45.112618" lon="7.8724122"><ele>250.0</ele><time>2026-04-14T13:51:16.194Z</time></trkpt><trkpt lat="45.1126463" lon="7.872248"><ele>250.0</ele><time>2026-04-14T13:51:17.194Z</time></trkpt><trkpt lat="45.1126732" lon="7.8720881"><ele>250.0</ele><time>2026-04-14T13:51:18.193Z</time></trkpt><trkpt lat="45.1126998" lon="7.8719316"><ele>250.0</ele><time>2026-04-14T13:51:19.196Z</time></trkpt><trkpt lat="45.1127264" lon="7.8717771"><ele>249.8</ele><time>2026-04-14T13:51:20.194Z</time></trkpt><trkpt lat="45.1127528" lon="7.8716265"><ele>249.6</ele><time>2026-04-14T13:51:21.193Z</time></trkpt><trkpt lat="45.1127781" lon="7.8714758"><ele>249.39999999999998</ele><time>2026-04-14T13:51:22.196Z</time></trkpt><trkpt lat="45.1128031" lon="7.8713274"><ele>249.2</ele><time>2026-04-14T13:51:23.195Z</time></trkpt><trkpt lat="45.112828" lon="7.8711809"><ele>249.0</ele><time>2026-04-14T13:51:24.196Z</time></trkpt><trkpt lat="45.1128529" lon="7.8710349"><ele>248.79999999999998</ele><time>2026-04-14T13:51:25.195Z</time></trkpt><trkpt lat="45.1128789" lon="7.8708924"><ele>248.59999999999997</ele><time>2026-04-14T13:51:26.196Z</time></trkpt><trkpt lat="45.1129013" lon="7.8707511"><ele>248.4</ele><time>2026-04-14T13:51:27.195Z</time></trkpt><trkpt lat="45.1129227" lon="7.8706109"><ele>248.2</ele><time>2026-04-14T13:51:28.195Z</time></trkpt><trkpt lat="45.1129418" lon="7.8704713"><ele>248.0</ele><time>2026-04-14T13:51:29.193Z</time></trkpt><trkpt lat="45.1129641" lon="7.870333"><ele>248.0</ele><time>2026-04-14T13:51:30.194Z</time></trkpt><trkpt lat="45.1129878" lon="7.8701972"><ele>248.0</ele><time>2026-04-14T13:51:31.193Z</time></trkpt><trkpt lat="45.1130114" lon="7.8700607"><ele>248.0</ele><time>2026-04-14T13:51:32.196Z</time></trkpt><trkpt lat="45.1130347" lon="7.8699245"><ele>248.0</ele><time>2026-04-14T13:51:33.194Z</time></trkpt><trkpt lat="45.1130564" lon="7.8697906"><ele>248.0</ele><time>2026-04-14T13:51:34.194Z</time></trkpt><trkpt lat="45.1130849" lon="7.86966"><ele>247.8</ele><time>2026-04-14T13:51:35.195Z</time></trkpt><trkpt lat="45.1131183" lon="7.8695347"><ele>247.60000000000002</ele><time>2026-04-14T13:51:36.195Z</time></trkpt><trkpt lat="45.1131541" lon="7.8694134"><ele>247.39999999999998</ele><time>2026-04-14T13:51:37.194Z</time></trkpt><trkpt lat="45.1131957" lon="7.869301"><ele>247.2</ele><time>2026-04-14T13:51:38.194Z</time></trkpt><trkpt lat="45.1132382" lon="7.8691932"><ele>247.0</ele><time>2026-04-14T13:51:39.193Z</time></trkpt><trkpt lat="45.1132813" lon="7.8690874"><ele>246.16666666666666</ele><time>2026-04-14T13:51:40.193Z</time></trkpt><trkpt lat="45.1133233" lon="7.8689854"><ele>245.33333333333331</ele><time>2026-04-14T13:51:41.193Z</time></trkpt><trkpt lat="45.113366" lon="7.8688868"><ele>244.5</ele><time>2026-04-14T13:51:42.193Z</time></trkpt><trkpt lat="45.1134068" lon="7.868792"><ele>243.66666666666669</ele><time>2026-04-14T13:51:43.193Z</time></trkpt><trkpt lat="45.1134479" lon="7.8687005"><ele>242.83333333333334</ele><time>2026-04-14T13:51:44.195Z</time></trkpt><trkpt lat="45.1134893" lon="7.8686219"><ele>242.0</ele><time>2026-04-14T13:51:45.194Z</time></trkpt><trkpt lat="45.1135476" lon="7.8685298"><ele>242.16666666666669</ele><time>2026-04-14T13:51:47.193Z</time></trkpt><trkpt lat="45.1136035" lon="7.868379"><ele>242.33333333333334</ele><time>2026-04-14T13:56:10.209Z</time></trkpt><trkpt lat="45.1136476" lon="7.8682829"><ele>242.5</ele><time>2026-04-14T13:56:11.193Z</time></trkpt><trkpt lat="45.1136908" lon="7.8681998"><ele>242.66666666666669</ele><time>2026-04-14T13:56:12.193Z</time></trkpt><trkpt lat="45.1137341" lon="7.8681166"><ele>242.83333333333334</ele><time>2026-04-14T13:56:13.193Z</time></trkpt><trkpt lat="45.1137777" lon="7.8680385"><ele>243.0</ele><time>2026-04-14T13:56:14.194Z</time></trkpt><trkpt lat="45.113821" lon="7.867964"><ele>243.0</ele><time>2026-04-14T13:56:15.193Z</time></trkpt><trkpt lat="45.1138632" lon="7.8678886"><ele>243.0</ele><time>2026-04-14T13:56:16.193Z</time></trkpt><trkpt lat="45.113905" lon="7.8678089"><ele>243.0</ele><time>2026-04-14T13:56:17.193Z</time></trkpt><trkpt lat="45.1139468" lon="7.8677284"><ele>243.0</ele><time>2026-04-14T13:56:18.194Z</time></trkpt><trkpt lat="45.1139912" lon="7.8676495"><ele>243.0</ele><time>2026-04-14T13:56:19.194Z</time></trkpt><trkpt lat="45.1140361" lon="7.867568"><ele>243.0</ele><time>2026-04-14T13:56:20.194Z</time></trkpt><trkpt lat="45.1140803" lon="7.8674849"><ele>243.0</ele><time>2026-04-14T13:56:21.194Z</time></trkpt><trkpt lat="45.1141264" lon="7.8674025"><ele>242.33333333333334</ele><time>2026-04-14T13:56:22.193Z</time></trkpt><trkpt lat="45.1141729" lon="7.8673192"><ele>241.66666666666669</ele><time>2026-04-14T13:56:23.194Z</time></trkpt><trkpt lat="45.1142184" lon="7.8672345"><ele>241.0</ele><time>2026-04-14T13:56:24.194Z</time></trkpt><trkpt lat="45.1142636" lon="7.8671481"><ele>240.33333333333334</ele><time>2026-04-14T13:56:25.194Z</time></trkpt><trkpt lat="45.1143098" lon="7.8670601"><ele>239.66666666666669</ele><time>2026-04-14T13:56:26.194Z</time></trkpt><trkpt lat="45.1143565" lon="7.8669719"><ele>239.0</ele><time>2026-04-14T13:56:27.194Z</time></trkpt><trkpt lat="45.1144029" lon="7.8668872"><ele>239.00000000000003</ele><time>2026-04-14T13:56:28.194Z</time></trkpt><trkpt lat="45.1144493" lon="7.8668013"><ele>239.0</ele><time>2026-04-14T13:56:29.194Z</time></trkpt><trkpt lat="45.1144933" lon="7.8667163"><ele>239.00000000000003</ele><time>2026-04-14T13:56:30.193Z</time></trkpt><trkpt lat="45.1145377" lon="7.8666341"><ele>239.00000000000003</ele><time>2026-04-14T13:56:31.194Z</time></trkpt><trkpt lat="45.1145797" lon="7.8665513"><ele>239.0</ele><time>2026-04-14T13:56:32.193Z</time></trkpt><trkpt lat="45.1146183" lon="7.8664683"><ele>239.00000000000003</ele><time>2026-04-14T13:56:33.192Z</time></trkpt><trkpt lat="45.1146567" lon="7.866385"><ele>239.00000000000003</ele><time>2026-04-14T13:56:34.195Z</time></trkpt><trkpt lat="45.1146963" lon="7.866303"><ele>238.8571428571429</ele><time>2026-04-14T13:56:35.194Z</time></trkpt><trkpt lat="45.1147379" lon="7.8662212"><ele>238.71428571428572</ele><time>2026-04-14T13:56:36.194Z</time></trkpt><trkpt lat="45.114781" lon="7.8661367"><ele>238.57142857142858</ele><time>2026-04-14T13:56:37.193Z</time></trkpt><trkpt lat="45.1148231" lon="7.8660502"><ele>238.42857142857144</ele><time>2026-04-14T13:56:38.194Z</time></trkpt><trkpt lat="45.1148663" lon="7.865965"><ele>238.28571428571428</ele><time>2026-04-14T13:56:39.194Z</time></trkpt><trkpt lat="45.1149095" lon="7.8658802"><ele>238.14285714285714</ele><time>2026-04-14T13:56:40.195Z</time></trkpt><trkpt lat="45.1149514" lon="7.8657938"><ele>238.0</ele><time>2026-04-14T13:56:41.193Z</time></trkpt><trkpt lat="45.1149919" lon="7.8657097"><ele>238.0</ele><time>2026-04-14T13:56:42.193Z</time></trkpt><trkpt lat="45.1150332" lon="7.8656263"><ele>238.0</ele><time>2026-04-14T13:56:43.195Z</time></trkpt><trkpt lat="45.1150747" lon="7.865543"><ele>238.0</ele><time>2026-04-14T13:56:44.194Z</time></trkpt><trkpt lat="45.1151164" lon="7.8654612"><ele>238.0</ele><time>2026-04-14T13:56:45.194Z</time></trkpt><trkpt lat="45.1151554" lon="7.8653783"><ele>238.0</ele><time>2026-04-14T13:56:46.194Z</time></trkpt><trkpt lat="45.1151936" lon="7.8652937"><ele>238.0</ele><time>2026-04-14T13:56:47.193Z</time></trkpt><trkpt lat="45.115233" lon="7.8652112"><ele>238.0</ele><time>2026-04-14T13:56:48.193Z</time></trkpt><trkpt lat="45.1152731" lon="7.8651282"><ele>238.42857142857144</ele><time>2026-04-14T13:56:49.194Z</time></trkpt><trkpt lat="45.1153134" lon="7.865045"><ele>238.85714285714286</ele><time>2026-04-14T13:56:50.194Z</time></trkpt><trkpt lat="45.1153522" lon="7.8649603"><ele>239.28571428571428</ele><time>2026-04-14T13:56:51.194Z</time></trkpt><trkpt lat="45.1153916" lon="7.8648751"><ele>239.71428571428572</ele><time>2026-04-14T13:56:52.193Z</time></trkpt><trkpt lat="45.1154316" lon="7.8647897"><ele>240.14285714285717</ele><time>2026-04-14T13:56:53.193Z</time></trkpt><trkpt lat="45.1154717" lon="7.8647032"><ele>240.57142857142858</ele><time>2026-04-14T13:56:54.192Z</time></trkpt><trkpt lat="45.1155129" lon="7.8646178"><ele>241.0</ele><time>2026-04-14T13:56:55.194Z</time></trkpt><trkpt lat="45.115553" lon="7.86453"><ele>241.0</ele><time>2026-04-14T13:56:56.194Z</time></trkpt><trkpt lat="45.1155931" lon="7.864443"><ele>241.00000000000003</ele><time>2026-04-14T13:56:57.194Z</time></trkpt><trkpt lat="45.1156361" lon="7.8643567"><ele>241.0</ele><time>2026-04-14T13:56:58.194Z</time></trkpt><trkpt lat="45.1156768" lon="7.8642699"><ele>241.0</ele><time>2026-04-14T13:56:59.196Z</time></trkpt><trkpt lat="45.1157166" lon="7.8641829"><ele>241.00000000000003</ele><time>2026-04-14T13:57:00.194Z</time></trkpt><trkpt lat="45.1157567" lon="7.8640988"><ele>241.0</ele><time>2026-04-14T13:57:01.194Z</time></trkpt><trkpt lat="45.1158006" lon="7.8640154"><ele>241.0</ele><time>2026-04-14T13:57:02.194Z</time></trkpt><trkpt lat="45.1158454" lon="7.863932"><ele>240.42857142857144</ele><time>2026-04-14T13:57:03.194Z</time></trkpt><trkpt lat="45.1158868" lon="7.8638476"><ele>239.8571428571429</ele><time>2026-04-14T13:57:04.193Z</time></trkpt><trkpt lat="45.1159268" lon="7.8637627"><ele>239.28571428571428</ele><time>2026-04-14T13:57:05.192Z</time></trkpt><trkpt lat="45.1159693" lon="7.863678"><ele>238.71428571428572</ele><time>2026-04-14T13:57:06.194Z</time></trkpt><trkpt lat="45.116013" lon="7.8635935"><ele>238.14285714285714</ele><time>2026-04-14T13:57:07.194Z</time></trkpt><trkpt lat="45.1160549" lon="7.8635086"><ele>237.57142857142856</ele><time>2026-04-14T13:57:08.194Z</time></trkpt><trkpt lat="45.1160937" lon="7.8634234"><ele>236.99999999999997</ele><time>2026-04-14T13:57:09.193Z</time></trkpt><trkpt lat="45.1161346" lon="7.8633398"><ele>236.99999999999997</ele><time>2026-04-14T13:57:10.194Z</time></trkpt><trkpt lat="45.1161762" lon="7.8632563"><ele>237.0</ele><time>2026-04-14T13:57:11.194Z</time></trkpt><trkpt lat="45.116219" lon="7.8631719"><ele>236.99999999999997</ele><time>2026-04-14T13:57:12.194Z</time></trkpt><trkpt lat="45.1162626" lon="7.8630872"><ele>236.99999999999997</ele><time>2026-04-14T13:57:13.194Z</time></trkpt><trkpt lat="45.1163077" lon="7.8630052"><ele>237.0</ele><time>2026-04-14T13:57:14.194Z</time></trkpt><trkpt lat="45.1163559" lon="7.8629278"><ele>236.99999999999997</ele><time>2026-04-14T13:57:15.194Z</time></trkpt><trkpt lat="45.1164044" lon="7.8628528"><ele>236.99999999999997</ele><time>2026-04-14T13:57:16.193Z</time></trkpt><trkpt lat="45.1164546" lon="7.8627839"><ele>236.99999999999997</ele><time>2026-04-14T13:57:17.196Z</time></trkpt><trkpt lat="45.1165077" lon="7.862718"><ele>237.0</ele><time>2026-04-14T13:57:18.195Z</time></trkpt><trkpt lat="45.1165615" lon="7.862656"><ele>236.99999999999997</ele><time>2026-04-14T13:57:19.196Z</time></trkpt><trkpt lat="45.1166167" lon="7.8625987"><ele>236.99999999999997</ele><time>2026-04-14T13:57:20.196Z</time></trkpt><trkpt lat="45.1166774" lon="7.8625443"><ele>237.0</ele><time>2026-04-14T13:57:21.193Z</time></trkpt><trkpt lat="45.1167408" lon="7.8624955"><ele>236.99999999999997</ele><time>2026-04-14T13:57:22.194Z</time></trkpt><trkpt lat="45.1168103" lon="7.8624548"><ele>236.99999999999997</ele><time>2026-04-14T13:57:23.194Z</time></trkpt><trkpt lat="45.1168853" lon="7.8624215"><ele>236.66666666666666</ele><time>2026-04-14T13:57:24.194Z</time></trkpt><trkpt lat="45.116965" lon="7.8623951"><ele>236.33333333333331</ele><time>2026-04-14T13:57:25.193Z</time></trkpt><trkpt lat="45.1170445" lon="7.8623792"><ele>236.0</ele><time>2026-04-14T13:57:26.193Z</time></trkpt><trkpt lat="45.1171245" lon="7.862373"><ele>235.66666666666666</ele><time>2026-04-14T13:57:27.193Z</time></trkpt><trkpt lat="45.1172063" lon="7.8623766"><ele>235.33333333333331</ele><time>2026-04-14T13:57:28.194Z</time></trkpt><trkpt lat="45.117291" lon="7.8623865"><ele>235.0</ele><time>2026-04-14T13:57:29.194Z</time></trkpt><trkpt lat="45.1173803" lon="7.862398"><ele>234.4</ele><time>2026-04-14T13:57:30.194Z</time></trkpt><trkpt lat="45.1174684" lon="7.8624071"><ele>233.8</ele><time>2026-04-14T13:57:31.195Z</time></trkpt><trkpt lat="45.117561" lon="7.8624154"><ele>233.2</ele><time>2026-04-14T13:57:32.196Z</time></trkpt><trkpt lat="45.1176531" lon="7.8624241"><ele>232.6</ele><time>2026-04-14T13:57:33.195Z</time></trkpt><trkpt lat="45.1177425" lon="7.8624314"><ele>232.0</ele><time>2026-04-14T13:57:34.195Z</time></trkpt><trkpt lat="45.1178333" lon="7.8624389"><ele>231.99999999999997</ele><time>2026-04-14T13:57:35.195Z</time></trkpt><trkpt lat="45.1179233" lon="7.8624458"><ele>232.0</ele><time>2026-04-14T13:57:36.195Z</time></trkpt><trkpt lat="45.1180118" lon="7.8624525"><ele>232.0</ele><time>2026-04-14T13:57:37.196Z</time></trkpt><trkpt lat="45.1180974" lon="7.8624597"><ele>232.0</ele><time>2026-04-14T13:57:38.195Z</time></trkpt><trkpt lat="45.1181795" lon="7.8624668"><ele>231.99999999999997</ele><time>2026-04-14T13:57:39.196Z</time></trkpt><trkpt lat="45.1182591" lon="7.8624716"><ele>232.0</ele><time>2026-04-14T13:57:40.195Z</time></trkpt><trkpt lat="45.1183344" lon="7.8624773"><ele>231.14285714285717</ele><time>2026-04-14T13:57:41.194Z</time></trkpt><trkpt lat="45.1184061" lon="7.8624814"><ele>230.28571428571428</ele><time>2026-04-14T13:57:42.194Z</time></trkpt><trkpt lat="45.1184769" lon="7.862485"><ele>229.42857142857144</ele><time>2026-04-14T13:57:43.194Z</time></trkpt><trkpt lat="45.118545" lon="7.8624896"><ele>228.57142857142858</ele><time>2026-04-14T13:57:44.194Z</time></trkpt><trkpt lat="45.1186101" lon="7.8624922"><ele>227.71428571428572</ele><time>2026-04-14T13:57:45.194Z</time></trkpt><trkpt lat="45.1186761" lon="7.8624947"><ele>226.85714285714286</ele><time>2026-04-14T13:57:46.193Z</time></trkpt><trkpt lat="45.1187399" lon="7.8624986"><ele>226.0</ele><time>2026-04-14T13:57:47.194Z</time></trkpt><trkpt lat="45.1188033" lon="7.8625036"><ele>225.99999999999997</ele><time>2026-04-14T13:57:48.194Z</time></trkpt><trkpt lat="45.1188666" lon="7.8625068"><ele>226.0</ele><time>2026-04-14T13:57:49.194Z</time></trkpt><trkpt lat="45.1189299" lon="7.8625099"><ele>226.0</ele><time>2026-04-14T13:57:50.195Z</time></trkpt><trkpt lat="45.1189929" lon="7.8625128"><ele>226.0</ele><time>2026-04-14T13:57:51.194Z</time></trkpt><trkpt lat="45.1191166" lon="7.8625224"><ele>225.99999999999997</ele><time>2026-04-14T13:57:53.193Z</time></trkpt><trkpt lat="45.1192381" lon="7.8625285"><ele>226.0</ele><time>2026-04-14T13:57:55.195Z</time></trkpt><trkpt lat="45.1193564" lon="7.8625347"><ele>226.20000000000002</ele><time>2026-04-14T13:57:57.194Z</time></trkpt><trkpt lat="45.1194689" lon="7.8625362"><ele>226.40000000000003</ele><time>2026-04-14T13:57:59.193Z</time></trkpt><trkpt lat="45.1195607" lon="7.8625913"><ele>226.6</ele><time>2026-04-14T13:58:01.193Z</time></trkpt><trkpt lat="45.1195661" lon="7.8627299"><ele>226.8</ele><time>2026-04-14T13:58:03.193Z</time></trkpt><trkpt lat="45.1195332" lon="7.8628991"><ele>227.0</ele><time>2026-04-14T13:58:05.194Z</time></trkpt><trkpt lat="45.1195209" lon="7.8630623"><ele>228.75</ele><time>2026-04-14T13:58:07.194Z</time></trkpt><trkpt lat="45.1195174" lon="7.8632232"><ele>230.5</ele><time>2026-04-14T13:58:09.192Z</time></trkpt><trkpt lat="45.1195154" lon="7.863381"><ele>232.25</ele><time>2026-04-14T13:58:11.194Z</time></trkpt><trkpt lat="45.1195061" lon="7.8635364"><ele>234.0</ele><time>2026-04-14T13:58:13.193Z</time></trkpt><trkpt lat="45.1194811" lon="7.8636966"><ele>234.5</ele><time>2026-04-14T13:58:15.193Z</time></trkpt><trkpt lat="45.1194309" lon="7.8638464"><ele>235.0</ele><time>2026-04-14T13:58:17.192Z</time></trkpt><trkpt lat="45.1193663" lon="7.8639843"><ele>235.5</ele><time>2026-04-14T13:58:19.194Z</time></trkpt><trkpt lat="45.1193038" lon="7.8641285"><ele>236.0</ele><time>2026-04-14T13:58:21.194Z</time></trkpt><trkpt lat="45.1192422" lon="7.8642731"><ele>236.0</ele><time>2026-04-14T13:58:23.193Z</time></trkpt><trkpt lat="45.1191831" lon="7.8644152"><ele>236.00000000000003</ele><time>2026-04-14T13:58:25.194Z</time></trkpt><trkpt lat="45.1191267" lon="7.8645631"><ele>236.00000000000003</ele><time>2026-04-14T13:58:27.195Z</time></trkpt><trkpt lat="45.1190623" lon="7.8647133"><ele>236.0</ele><time>2026-04-14T13:58:29.194Z</time></trkpt><trkpt lat="45.1190316" lon="7.8647915"><ele>236.0</ele><time>2026-04-14T13:58:30.193Z</time></trkpt><trkpt lat="45.1189989" lon="7.8648699"><ele>235.57142857142856</ele><time>2026-04-14T13:58:31.194Z</time></trkpt><trkpt lat="45.1189667" lon="7.8649482"><ele>235.14285714285717</ele><time>2026-04-14T13:58:32.194Z</time></trkpt><trkpt lat="45.1189337" lon="7.865028"><ele>234.71428571428572</ele><time>2026-04-14T13:58:33.194Z</time></trkpt><trkpt lat="45.1189016" lon="7.8651058"><ele>234.28571428571428</ele><time>2026-04-14T13:58:34.195Z</time></trkpt><trkpt lat="45.1188708" lon="7.865185"><ele>233.85714285714283</ele><time>2026-04-14T13:58:35.194Z</time></trkpt><trkpt lat="45.118808" lon="7.8653391"><ele>233.42857142857144</ele><time>2026-04-14T13:58:37.193Z</time></trkpt><trkpt lat="45.1187767" lon="7.8654172"><ele>233.0</ele><time>2026-04-14T13:58:38.194Z</time></trkpt><trkpt lat="45.118715" lon="7.8655747"><ele>233.0</ele><time>2026-04-14T13:58:40.193Z</time></trkpt><trkpt lat="45.1186847" lon="7.8656546"><ele>233.0</ele><time>2026-04-14T13:58:41.193Z</time></trkpt><trkpt lat="45.1186559" lon="7.8657348"><ele>233.0</ele><time>2026-04-14T13:58:42.194Z</time></trkpt><trkpt lat="45.1186292" lon="7.865816"><ele>233.0</ele><time>2026-04-14T13:58:43.194Z</time></trkpt><trkpt lat="45.1186018" lon="7.865899"><ele>233.0</ele><time>2026-04-14T13:58:44.195Z</time></trkpt><trkpt lat="45.118575" lon="7.8659798"><ele>233.0</ele><time>2026-04-14T13:58:45.194Z</time></trkpt><trkpt lat="45.118547" lon="7.8660601"><ele>233.0</ele><time>2026-04-14T13:58:46.194Z</time></trkpt><trkpt lat="45.1184948" lon="7.8662187"><ele>233.5</ele><time>2026-04-14T13:58:48.196Z</time></trkpt><trkpt lat="45.1184436" lon="7.8663721"><ele>234.0</ele><time>2026-04-14T13:58:50.195Z</time></trkpt><trkpt lat="45.1183938" lon="7.8665238"><ele>234.5</ele><time>2026-04-14T13:58:52.194Z</time></trkpt><trkpt lat="45.118335" lon="7.866664"><ele>235.0</ele><time>2026-04-14T13:58:54.194Z</time></trkpt><trkpt lat="45.1182531" lon="7.8667802"><ele>235.8</ele><time>2026-04-14T13:58:56.193Z</time></trkpt><trkpt lat="45.1181685" lon="7.8668962"><ele>236.6</ele><time>2026-04-14T13:58:58.194Z</time></trkpt><trkpt lat="45.1180834" lon="7.867009"><ele>237.39999999999998</ele><time>2026-04-14T13:59:00.195Z</time></trkpt><trkpt lat="45.1180065" lon="7.867122"><ele>238.2</ele><time>2026-04-14T13:59:02.195Z</time></trkpt><trkpt lat="45.1179328" lon="7.8672268"><ele>239.0</ele><time>2026-04-14T13:59:04.197Z</time></trkpt><trkpt lat="45.1178662" lon="7.8673286"><ele>239.00000000000003</ele><time>2026-04-14T13:59:06.195Z</time></trkpt><trkpt lat="45.1178" lon="7.8674258"><ele>239.0</ele><time>2026-04-14T13:59:08.194Z</time></trkpt><trkpt lat="45.1177364" lon="7.8675157"><ele>239.0</ele><time>2026-04-14T13:59:10.194Z</time></trkpt><trkpt lat="45.1176722" lon="7.8676043"><ele>239.0</ele><time>2026-04-14T13:59:12.194Z</time></trkpt><trkpt lat="45.117613" lon="7.8676863"><ele>239.00000000000003</ele><time>2026-04-14T13:59:14.194Z</time></trkpt><trkpt lat="45.1175586" lon="7.8677693"><ele>239.0</ele><time>2026-04-14T13:59:16.194Z</time></trkpt><trkpt lat="45.1174867" lon="7.8679074"><ele>240.00000000000003</ele><time>2026-04-14T13:59:20.265Z</time></trkpt><trkpt lat="45.1174035" lon="7.8679847"><ele>241.0</ele><time>2026-04-14T13:59:22.3Z</time></trkpt><trkpt lat="45.1173414" lon="7.8680641"><ele>242.0</ele><time>2026-04-14T13:59:24.216Z</time></trkpt><trkpt lat="45.1172727" lon="7.8681301"><ele>243.0</ele><time>2026-04-14T13:59:26.251Z</time></trkpt><trkpt lat="45.1172096" lon="7.8682072"><ele>244.00000000000003</ele><time>2026-04-14T13:59:28.286Z</time></trkpt><trkpt lat="45.1171514" lon="7.8682874"><ele>245.0</ele><time>2026-04-14T13:59:30.2Z</time></trkpt><trkpt lat="45.1170816" lon="7.8683522"><ele>245.00000000000003</ele><time>2026-04-14T13:59:32.236Z</time></trkpt><trkpt lat="45.1170125" lon="7.8684207"><ele>245.0</ele><time>2026-04-14T13:59:34.196Z</time></trkpt><trkpt lat="45.1169487" lon="7.868502"><ele>245.0</ele><time>2026-04-14T13:59:36.193Z</time></trkpt><trkpt lat="45.1168826" lon="7.868588"><ele>245.0</ele><time>2026-04-14T13:59:38.221Z</time></trkpt><trkpt lat="45.1168171" lon="7.8686754"><ele>245.00000000000003</ele><time>2026-04-14T13:59:40.194Z</time></trkpt><trkpt lat="45.1167432" lon="7.868768"><ele>245.0</ele><time>2026-04-14T13:59:42.193Z</time></trkpt><trkpt lat="45.1166647" lon="7.8688631"><ele>244.8</ele><time>2026-04-14T13:59:44.196Z</time></trkpt><trkpt lat="45.1165867" lon="7.8689665"><ele>244.6</ele><time>2026-04-14T13:59:46.194Z</time></trkpt><trkpt lat="45.1165068" lon="7.8690764"><ele>244.39999999999998</ele><time>2026-04-14T13:59:48.194Z</time></trkpt><trkpt lat="45.1164335" lon="7.8691984"><ele>244.2</ele><time>2026-04-14T13:59:50.195Z</time></trkpt><trkpt lat="45.1163714" lon="7.8693327"><ele>244.0</ele><time>2026-04-14T13:59:52.195Z</time></trkpt><trkpt lat="45.1163118" lon="7.8694768"><ele>243.25</ele><time>2026-04-14T13:59:54.194Z</time></trkpt><trkpt lat="45.1162536" lon="7.8696283"><ele>242.5</ele><time>2026-04-14T13:59:56.194Z</time></trkpt><trkpt lat="45.1162004" lon="7.8697821"><ele>241.75</ele><time>2026-04-14T13:59:58.195Z</time></trkpt><trkpt lat="45.1161484" lon="7.8699336"><ele>241.0</ele><time>2026-04-14T14:00:00.193Z</time></trkpt><trkpt lat="45.1160967" lon="7.870077"><ele>243.25</ele><time>2026-04-14T14:00:02.194Z</time></trkpt><trkpt lat="45.1160465" lon="7.8702214"><ele>245.5</ele><time>2026-04-14T14:00:04.194Z</time></trkpt><trkpt lat="45.1159984" lon="7.8703689"><ele>247.75</ele><time>2026-04-14T14:00:06.195Z</time></trkpt><trkpt lat="45.1159452" lon="7.8705122"><ele>250.0</ele><time>2026-04-14T14:00:08.195Z</time></trkpt><trkpt lat="45.1158948" lon="7.8706524"><ele>250.0</ele><time>2026-04-14T14:00:10.197Z</time></trkpt><trkpt lat="45.1158449" lon="7.8707853"><ele>250.0</ele><time>2026-04-14T14:00:12.196Z</time></trkpt><trkpt lat="45.1157922" lon="7.8709169"><ele>250.0</ele><time>2026-04-14T14:00:14.194Z</time></trkpt><trkpt lat="45.1157416" lon="7.8710515"><ele>250.0</ele><time>2026-04-14T14:00:16.198Z</time></trkpt><trkpt lat="45.1156917" lon="7.871193"><ele>250.0</ele><time>2026-04-14T14:00:18.195Z</time></trkpt><trkpt lat="45.1156385" lon="7.8713368"><ele>248.75</ele><time>2026-04-14T14:00:20.195Z</time></trkpt><trkpt lat="45.1155883" lon="7.871485"><ele>247.5</ele><time>2026-04-14T14:00:22.194Z</time></trkpt><trkpt lat="45.1155355" lon="7.8716347"><ele>246.25</ele><time>2026-04-14T14:00:24.193Z</time></trkpt><trkpt lat="45.1154789" lon="7.8717804"><ele>245.0</ele><time>2026-04-14T14:00:26.195Z</time></trkpt><trkpt lat="45.1154282" lon="7.8719284"><ele>245.0</ele><time>2026-04-14T14:00:28.194Z</time></trkpt><trkpt lat="45.1153751" lon="7.8720762"><ele>245.0</ele><time>2026-04-14T14:00:30.194Z</time></trkpt><trkpt lat="45.1153221" lon="7.8722187"><ele>245.0</ele><time>2026-04-14T14:00:32.195Z</time></trkpt><trkpt lat="45.1152658" lon="7.8723558"><ele>245.0</ele><time>2026-04-14T14:00:34.193Z</time></trkpt><trkpt lat="45.1152026" lon="7.8724877"><ele>244.25</ele><time>2026-04-14T14:00:36.195Z</time></trkpt><trkpt lat="45.1151292" lon="7.8726126"><ele>243.5</ele><time>2026-04-14T14:00:38.195Z</time></trkpt><trkpt lat="45.1150475" lon="7.8727295"><ele>242.75</ele><time>2026-04-14T14:00:40.194Z</time></trkpt><trkpt lat="45.1149604" lon="7.8728377"><ele>242.0</ele><time>2026-04-14T14:00:42.194Z</time></trkpt><trkpt lat="45.1148782" lon="7.8729514"><ele>242.0</ele><time>2026-04-14T14:00:44.194Z</time></trkpt><trkpt lat="45.1148031" lon="7.8730671"><ele>242.0</ele><time>2026-04-14T14:00:46.193Z</time></trkpt><trkpt lat="45.1147268" lon="7.8731817"><ele>242.0</ele><time>2026-04-14T14:00:48.194Z</time></trkpt><trkpt lat="45.1146579" lon="7.8732999"><ele>242.0</ele><time>2026-04-14T14:00:50.195Z</time></trkpt><trkpt lat="45.1145951" lon="7.8734248"><ele>242.0</ele><time>2026-04-14T14:00:52.196Z</time></trkpt><trkpt lat="45.1145345" lon="7.8735449"><ele>243.2</ele><time>2026-04-14T14:00:54.195Z</time></trkpt><trkpt lat="45.1144747" lon="7.8736637"><ele>244.39999999999998</ele><time>2026-04-14T14:00:56.195Z</time></trkpt><trkpt lat="45.1144181" lon="7.8737803"><ele>245.60000000000002</ele><time>2026-04-14T14:00:58.195Z</time></trkpt><trkpt lat="45.1143629" lon="7.8738987"><ele>246.8</ele><time>2026-04-14T14:01:00.198Z</time></trkpt><trkpt lat="45.1143085" lon="7.874017"><ele>248.0</ele><time>2026-04-14T14:01:02.196Z</time></trkpt><trkpt lat="45.1142582" lon="7.8741368"><ele>248.0</ele><time>2026-04-14T14:01:04.195Z</time></trkpt><trkpt lat="45.1142134" lon="7.874254"><ele>248.0</ele><time>2026-04-14T14:01:06.195Z</time></trkpt><trkpt lat="45.1141761" lon="7.87437"><ele>248.0</ele><time>2026-04-14T14:01:08.196Z</time></trkpt><trkpt lat="45.1141496" lon="7.8744933"><ele>248.0</ele><time>2026-04-14T14:01:10.195Z</time></trkpt><trkpt lat="45.1141364" lon="7.8746191"><ele>248.0</ele><time>2026-04-14T14:01:12.194Z</time></trkpt><trkpt lat="45.1141286" lon="7.8747526"><ele>248.60000000000002</ele><time>2026-04-14T14:01:14.194Z</time></trkpt><trkpt lat="45.1141269" lon="7.8748859"><ele>249.20000000000002</ele><time>2026-04-14T14:01:16.194Z</time></trkpt><trkpt lat="45.1141255" lon="7.8750151"><ele>249.8</ele><time>2026-04-14T14:01:18.194Z</time></trkpt><trkpt lat="45.114111" lon="7.8751601"><ele>250.4</ele><time>2026-04-14T14:01:21.228Z</time></trkpt><trkpt lat="45.1141268" lon="7.8753158"><ele>251.0</ele><time>2026-04-14T14:01:23.264Z</time></trkpt><trkpt lat="45.1141255" lon="7.8754457"><ele>251.50000000000003</ele><time>2026-04-14T14:01:25.298Z</time></trkpt><trkpt lat="45.114125" lon="7.8755712"><ele>252.0</ele><time>2026-04-14T14:01:27.214Z</time></trkpt><trkpt lat="45.1141211" lon="7.8756979"><ele>252.5</ele><time>2026-04-14T14:01:29.247Z</time></trkpt><trkpt lat="45.1141211" lon="7.8758158"><ele>253.0</ele><time>2026-04-14T14:01:31.196Z</time></trkpt><trkpt lat="45.1141242" lon="7.8759459"><ele>253.50000000000003</ele><time>2026-04-14T14:01:33.194Z</time></trkpt><trkpt lat="45.1141247" lon="7.8760738"><ele>254.0</ele><time>2026-04-14T14:01:35.194Z</time></trkpt><trkpt lat="45.1141189" lon="7.8762018"><ele>254.0</ele><time>2026-04-14T14:01:37.193Z</time></trkpt><trkpt lat="45.1141121" lon="7.8763335"><ele>253.99999999999997</ele><time>2026-04-14T14:01:39.196Z</time></trkpt><trkpt lat="45.1141037" lon="7.8764618"><ele>253.99999999999997</ele><time>2026-04-14T14:01:41.194Z</time></trkpt><trkpt lat="45.1140951" lon="7.8765886"><ele>254.0</ele><time>2026-04-14T14:01:43.193Z</time></trkpt><trkpt lat="45.1140802" lon="7.8767216"><ele>254.0</ele><time>2026-04-14T14:01:45.194Z</time></trkpt><trkpt lat="45.1140576" lon="7.8768627"><ele>252.39999999999998</ele><time>2026-04-14T14:01:47.194Z</time></trkpt><trkpt lat="45.1140315" lon="7.8770098"><ele>250.79999999999998</ele><time>2026-04-14T14:01:49.193Z</time></trkpt><trkpt lat="45.1140036" lon="7.8771632"><ele>249.20000000000002</ele><time>2026-04-14T14:01:51.194Z</time></trkpt><trkpt lat="45.1139739" lon="7.8773309"><ele>247.60000000000002</ele><time>2026-04-14T14:01:53.194Z</time></trkpt><trkpt lat="45.1139596" lon="7.8774197"><ele>246.0</ele><time>2026-04-14T14:01:54.195Z</time></trkpt><trkpt lat="45.1139445" lon="7.8775112"><ele>246.00000000000003</ele><time>2026-04-14T14:01:55.195Z</time></trkpt><trkpt lat="45.1139255" lon="7.8776017"><ele>246.0</ele><time>2026-04-14T14:01:56.194Z</time></trkpt><trkpt lat="45.1139052" lon="7.8776945"><ele>246.00000000000003</ele><time>2026-04-14T14:01:57.196Z</time></trkpt><trkpt lat="45.1138823" lon="7.8777882"><ele>246.00000000000003</ele><time>2026-04-14T14:01:58.194Z</time></trkpt><trkpt lat="45.1138546" lon="7.877882"><ele>246.0</ele><time>2026-04-14T14:01:59.195Z</time></trkpt><trkpt lat="45.113823" lon="7.8779755"><ele>246.00000000000003</ele><time>2026-04-14T14:02:00.194Z</time></trkpt><trkpt lat="45.113789" lon="7.8780702"><ele>246.00000000000003</ele><time>2026-04-14T14:02:01.193Z</time></trkpt><trkpt lat="45.1137512" lon="7.8781652"><ele>246.33333333333334</ele><time>2026-04-14T14:02:02.196Z</time></trkpt><trkpt lat="45.1137122" lon="7.8782575"><ele>246.66666666666669</ele><time>2026-04-14T14:02:03.194Z</time></trkpt><trkpt lat="45.1136724" lon="7.8783491"><ele>247.0</ele><time>2026-04-14T14:02:04.194Z</time></trkpt><trkpt lat="45.1136306" lon="7.8784406"><ele>247.33333333333334</ele><time>2026-04-14T14:02:05.195Z</time></trkpt><trkpt lat="45.1135859" lon="7.8785293"><ele>247.66666666666669</ele><time>2026-04-14T14:02:06.195Z</time></trkpt><trkpt lat="45.1135419" lon="7.8786174"><ele>248.0</ele><time>2026-04-14T14:02:07.196Z</time></trkpt><trkpt lat="45.1134999" lon="7.8787043"><ele>248.50000000000003</ele><time>2026-04-14T14:02:08.195Z</time></trkpt><trkpt lat="45.1134584" lon="7.8787897"><ele>249.0</ele><time>2026-04-14T14:02:09.196Z</time></trkpt><trkpt lat="45.113417" lon="7.8788732"><ele>249.5</ele><time>2026-04-14T14:02:10.194Z</time></trkpt><trkpt lat="45.1133767" lon="7.8789559"><ele>250.0</ele><time>2026-04-14T14:02:11.194Z</time></trkpt><trkpt lat="45.1133393" lon="7.8790359"><ele>250.50000000000003</ele><time>2026-04-14T14:02:12.193Z</time></trkpt><trkpt lat="45.1133016" lon="7.8791124"><ele>251.0</ele><time>2026-04-14T14:02:13.193Z</time></trkpt><trkpt lat="45.1132354" lon="7.87925"><ele>250.20000000000002</ele><time>2026-04-14T14:02:15.193Z</time></trkpt><trkpt lat="45.1131756" lon="7.879365"><ele>249.40000000000003</ele><time>2026-04-14T14:02:17.194Z</time></trkpt><trkpt lat="45.1131188" lon="7.8794808"><ele>248.6</ele><time>2026-04-14T14:02:19.193Z</time></trkpt><trkpt lat="45.1130572" lon="7.8796021"><ele>247.8</ele><time>2026-04-14T14:02:21.194Z</time></trkpt><trkpt lat="45.1129971" lon="7.8797318"><ele>247.0</ele><time>2026-04-14T14:02:23.194Z</time></trkpt><trkpt lat="45.1129429" lon="7.8798664"><ele>247.0</ele><time>2026-04-14T14:02:25.194Z</time></trkpt><trkpt lat="45.1128907" lon="7.8800005"><ele>247.0</ele><time>2026-04-14T14:02:27.193Z</time></trkpt><trkpt lat="45.1128369" lon="7.8801366"><ele>247.0</ele><time>2026-04-14T14:02:29.195Z</time></trkpt><trkpt lat="45.1127901" lon="7.8802734"><ele>247.0</ele><time>2026-04-14T14:02:31.194Z</time></trkpt><trkpt lat="45.112739" lon="7.8804104"><ele>247.0</ele><time>2026-04-14T14:02:33.196Z</time></trkpt><trkpt lat="45.1126867" lon="7.8805502"><ele>248.5</ele><time>2026-04-14T14:02:35.194Z</time></trkpt><trkpt lat="45.1126322" lon="7.8806905"><ele>250.0</ele><time>2026-04-14T14:02:37.193Z</time></trkpt><trkpt lat="45.1125753" lon="7.8808314"><ele>251.5</ele><time>2026-04-14T14:02:39.193Z</time></trkpt><trkpt lat="45.1125186" lon="7.8809707"><ele>253.0</ele><time>2026-04-14T14:02:41.194Z</time></trkpt><trkpt lat="45.1124617" lon="7.8811086"><ele>252.60000000000002</ele><time>2026-04-14T14:02:43.194Z</time></trkpt><trkpt lat="45.1124066" lon="7.8812494"><ele>252.20000000000002</ele><time>2026-04-14T14:02:45.194Z</time></trkpt><trkpt lat="45.1123606" lon="7.8813942"><ele>251.8</ele><time>2026-04-14T14:02:47.193Z</time></trkpt><trkpt lat="45.1123209" lon="7.8815412"><ele>251.4</ele><time>2026-04-14T14:02:49.194Z</time></trkpt><trkpt lat="45.112293" lon="7.8816899"><ele>251.0</ele><time>2026-04-14T14:02:51.194Z</time></trkpt><trkpt lat="45.1122666" lon="7.8818381"><ele>251.0</ele><time>2026-04-14T14:02:53.195Z</time></trkpt><trkpt lat="45.1122483" lon="7.8819914"><ele>251.0</ele><time>2026-04-14T14:02:55.193Z</time></trkpt><trkpt lat="45.1122299" lon="7.8821498"><ele>251.0</ele><time>2026-04-14T14:02:57.194Z</time></trkpt><trkpt lat="45.1122089" lon="7.882313"><ele>251.0</ele><time>2026-04-14T14:02:59.195Z</time></trkpt><trkpt lat="45.1121886" lon="7.8824802"><ele>251.4</ele><time>2026-04-14T14:03:01.194Z</time></trkpt><trkpt lat="45.1121712" lon="7.8826519"><ele>251.8</ele><time>2026-04-14T14:03:03.194Z</time></trkpt><trkpt lat="45.1121605" lon="7.8827414"><ele>252.20000000000002</ele><time>2026-04-14T14:03:04.194Z</time></trkpt><trkpt lat="45.1121384" lon="7.8829111"><ele>252.60000000000002</ele><time>2026-04-14T14:03:06.195Z</time></trkpt><trkpt lat="45.1121197" lon="7.8830787"><ele>253.0</ele><time>2026-04-14T14:03:08.195Z</time></trkpt><trkpt lat="45.1121033" lon="7.8832342"><ele>253.0</ele><time>2026-04-14T14:03:10.194Z</time></trkpt><trkpt lat="45.1120858" lon="7.8833851"><ele>253.0</ele><time>2026-04-14T14:03:12.193Z</time></trkpt><trkpt lat="45.1120671" lon="7.8835432"><ele>253.0</ele><time>2026-04-14T14:03:14.193Z</time></trkpt><trkpt lat="45.1120498" lon="7.8837051"><ele>253.0</ele><time>2026-04-14T14:03:16.193Z</time></trkpt><trkpt lat="45.112036" lon="7.8838723"><ele>253.25</ele><time>2026-04-14T14:03:18.194Z</time></trkpt><trkpt lat="45.1120199" lon="7.8840386"><ele>253.5</ele><time>2026-04-14T14:03:20.196Z</time></trkpt><trkpt lat="45.1120011" lon="7.8842068"><ele>253.75</ele><time>2026-04-14T14:03:22.194Z</time></trkpt><trkpt lat="45.1119834" lon="7.8843733"><ele>254.0</ele><time>2026-04-14T14:03:24.195Z</time></trkpt><trkpt lat="45.1119667" lon="7.8845416"><ele>254.0</ele><time>2026-04-14T14:03:26.194Z</time></trkpt><trkpt lat="45.1119499" lon="7.8847102"><ele>254.0</ele><time>2026-04-14T14:03:28.195Z</time></trkpt><trkpt lat="45.1119317" lon="7.8848771"><ele>254.0</ele><time>2026-04-14T14:03:30.196Z</time></trkpt><trkpt lat="45.1119202" lon="7.885045"><ele>254.0</ele><time>2026-04-14T14:03:32.193Z</time></trkpt><trkpt lat="45.111907" lon="7.8852085"><ele>254.0</ele><time>2026-04-14T14:03:34.194Z</time></trkpt><trkpt lat="45.1118969" lon="7.8853687"><ele>253.99999999999997</ele><time>2026-04-14T14:03:36.194Z</time></trkpt><trkpt lat="45.1118741" lon="7.8855211"><ele>253.99999999999997</ele><time>2026-04-14T14:03:38.194Z</time></trkpt><trkpt lat="45.1117958" lon="7.8856199"><ele>254.0</ele><time>2026-04-14T14:03:40.194Z</time></trkpt><trkpt lat="45.111685" lon="7.885642"><ele>254.0</ele><time>2026-04-14T14:03:42.194Z</time></trkpt><trkpt lat="45.111569" lon="7.8856446"><ele>255.25</ele><time>2026-04-14T14:03:44.194Z</time></trkpt><trkpt lat="45.1114485" lon="7.8856572"><ele>256.5</ele><time>2026-04-14T14:03:46.194Z</time></trkpt><trkpt lat="45.1113312" lon="7.8856735"><ele>257.75</ele><time>2026-04-14T14:03:48.195Z</time></trkpt><trkpt lat="45.11121" lon="7.8856838"><ele>259.0</ele><time>2026-04-14T14:03:50.195Z</time></trkpt><trkpt lat="45.1110901" lon="7.8856937"><ele>259.0</ele><time>2026-04-14T14:03:52.195Z</time></trkpt><trkpt lat="45.110973" lon="7.8857082"><ele>259.0</ele><time>2026-04-14T14:03:54.194Z</time></trkpt><trkpt lat="45.1108581" lon="7.8857225"><ele>259.0</ele><time>2026-04-14T14:03:56.195Z</time></trkpt><trkpt lat="45.1107468" lon="7.8857372"><ele>259.0</ele><time>2026-04-14T14:03:58.194Z</time></trkpt><trkpt lat="45.1106415" lon="7.8857483"><ele>260.3333333333333</ele><time>2026-04-14T14:04:00.194Z</time></trkpt><trkpt lat="45.1105417" lon="7.8857507"><ele>261.66666666666663</ele><time>2026-04-14T14:04:02.193Z</time></trkpt><trkpt lat="45.1104482" lon="7.885757"><ele>263.0</ele><time>2026-04-14T14:04:04.195Z</time></trkpt><trkpt lat="45.1103613" lon="7.885768"><ele>264.3333333333333</ele><time>2026-04-14T14:04:06.193Z</time></trkpt><trkpt lat="45.110275" lon="7.8857784"><ele>265.6666666666667</ele><time>2026-04-14T14:04:08.194Z</time></trkpt><trkpt lat="45.1101951" lon="7.8857905"><ele>267.0</ele><time>2026-04-14T14:04:10.193Z</time></trkpt><trkpt lat="45.1101081" lon="7.8857786"><ele>267.0</ele><time>2026-04-14T14:04:13.273Z</time></trkpt><trkpt lat="45.1100225" lon="7.885849"><ele>267.0</ele><time>2026-04-14T14:04:15.286Z</time></trkpt><trkpt lat="45.1099542" lon="7.8858785"><ele>267.0</ele><time>2026-04-14T14:04:17.201Z</time></trkpt><trkpt lat="45.1098865" lon="7.8859155"><ele>267.0</ele><time>2026-04-14T14:04:19.237Z</time></trkpt><trkpt lat="45.1098203" lon="7.8859438"><ele>267.0</ele><time>2026-04-14T14:04:21.271Z</time></trkpt><trkpt lat="45.1097584" lon="7.8859673"><ele>267.0</ele><time>2026-04-14T14:04:23.305Z</time></trkpt><trkpt lat="45.1096708" lon="7.8859946"><ele>267.6666666666667</ele><time>2026-04-14T14:04:26.181Z</time></trkpt><trkpt lat="45.109597" lon="7.8860122"><ele>268.3333333333333</ele><time>2026-04-14T14:04:28.753Z</time></trkpt><trkpt lat="45.1095268" lon="7.8860303"><ele>269.0</ele><time>2026-04-14T14:04:31.128Z</time></trkpt><trkpt lat="45.1094427" lon="7.8860552"><ele>269.66666666666663</ele><time>2026-04-14T14:04:34.141Z</time></trkpt><trkpt lat="45.1093573" lon="7.8860786"><ele>270.3333333333333</ele><time>2026-04-14T14:04:37.31Z</time></trkpt><trkpt lat="45.1092917" lon="7.8860701"><ele>271.0</ele><time>2026-04-14T14:04:40.204Z</time></trkpt><trkpt lat="45.1092183" lon="7.8860428"><ele>271.0</ele><time>2026-04-14T14:04:43.255Z</time></trkpt><trkpt lat="45.1091508" lon="7.8860143"><ele>271.0</ele><time>2026-04-14T14:04:46.312Z</time></trkpt><trkpt lat="45.1090728" lon="7.88599"><ele>271.0</ele><time>2026-04-14T14:04:49.342Z</time></trkpt><trkpt lat="45.1090103" lon="7.8859521"><ele>271.0</ele><time>2026-04-14T14:04:52.271Z</time></trkpt><trkpt lat="45.1089293" lon="7.8858986"><ele>271.0</ele><time>2026-04-14T14:04:56.008Z</time></trkpt><trkpt lat="45.1088517" lon="7.8858626"><ele>271.0</ele><time>2026-04-14T14:05:00.29Z</time></trkpt><trkpt lat="45.1087881" lon="7.8858278"><ele>271.3333333333333</ele><time>2026-04-14T14:05:03.165Z</time></trkpt><trkpt lat="45.1086864" lon="7.8857906"><ele>271.66666666666663</ele><time>2026-04-14T14:05:07.196Z</time></trkpt><trkpt lat="45.1086016" lon="7.8857843"><ele>272.0</ele><time>2026-04-14T14:05:10.225Z</time></trkpt><trkpt lat="45.1085301" lon="7.8857859"><ele>272.3333333333333</ele><time>2026-04-14T14:05:12.26Z</time></trkpt><trkpt lat="45.1084507" lon="7.8857866"><ele>272.6666666666667</ele><time>2026-04-14T14:05:14.295Z</time></trkpt><trkpt lat="45.1083561" lon="7.885798"><ele>273.0</ele><time>2026-04-14T14:05:16.193Z</time></trkpt><trkpt lat="45.1082513" lon="7.8858082"><ele>272.5</ele><time>2026-04-14T14:05:18.195Z</time></trkpt><trkpt lat="45.1081389" lon="7.8858164"><ele>272.0</ele><time>2026-04-14T14:05:20.196Z</time></trkpt><trkpt lat="45.108028" lon="7.8858182"><ele>271.5</ele><time>2026-04-14T14:05:22.195Z</time></trkpt><trkpt lat="45.1079043" lon="7.8858061"><ele>271.0</ele><time>2026-04-14T14:05:24.195Z</time></trkpt><trkpt lat="45.1077791" lon="7.8857815"><ele>271.0</ele><time>2026-04-14T14:05:26.195Z</time></trkpt><trkpt lat="45.1077157" lon="7.8857664"><ele>271.0</ele><time>2026-04-14T14:05:27.194Z</time></trkpt><trkpt lat="45.1076509" lon="7.8857555"><ele>271.0</ele><time>2026-04-14T14:05:28.194Z</time></trkpt><trkpt lat="45.1075855" lon="7.885749"><ele>271.0</ele><time>2026-04-14T14:05:29.194Z</time></trkpt><trkpt lat="45.1075187" lon="7.8857484"><ele>271.0</ele><time>2026-04-14T14:05:30.195Z</time></trkpt><trkpt lat="45.1074518" lon="7.885756"><ele>271.0</ele><time>2026-04-14T14:05:31.194Z</time></trkpt><trkpt lat="45.1073823" lon="7.8857618"><ele>271.0</ele><time>2026-04-14T14:05:32.195Z</time></trkpt><trkpt lat="45.1073121" lon="7.8857671"><ele>270.42857142857144</ele><time>2026-04-14T14:05:33.193Z</time></trkpt><trkpt lat="45.107243" lon="7.8857737"><ele>269.8571428571429</ele><time>2026-04-14T14:05:34.193Z</time></trkpt><trkpt lat="45.1071731" lon="7.8857777"><ele>269.28571428571433</ele><time>2026-04-14T14:05:35.194Z</time></trkpt><trkpt lat="45.1071032" lon="7.8857857"><ele>268.7142857142857</ele><time>2026-04-14T14:05:36.193Z</time></trkpt><trkpt lat="45.1070349" lon="7.8857973"><ele>268.14285714285717</ele><time>2026-04-14T14:05:37.194Z</time></trkpt><trkpt lat="45.1069695" lon="7.8858078"><ele>267.5714285714286</ele><time>2026-04-14T14:05:38.196Z</time></trkpt><trkpt lat="45.1069063" lon="7.8858177"><ele>267.0</ele><time>2026-04-14T14:05:39.194Z</time></trkpt><trkpt lat="45.106789" lon="7.8858407"><ele>267.0</ele><time>2026-04-14T14:05:41.195Z</time></trkpt><trkpt lat="45.1066872" lon="7.8858761"><ele>267.0</ele><time>2026-04-14T14:05:43.195Z</time></trkpt><trkpt lat="45.1065974" lon="7.8859269"><ele>267.0</ele><time>2026-04-14T14:05:45.194Z</time></trkpt><trkpt lat="45.1065192" lon="7.8859751"><ele>267.0</ele><time>2026-04-14T14:05:47.196Z</time></trkpt><trkpt lat="45.106442" lon="7.8860304"><ele>267.0</ele><time>2026-04-14T14:05:49.195Z</time></trkpt><trkpt lat="45.1063621" lon="7.8860964"><ele>268.4</ele><time>2026-04-14T14:05:51.194Z</time></trkpt><trkpt lat="45.1062804" lon="7.8861711"><ele>269.79999999999995</ele><time>2026-04-14T14:05:53.195Z</time></trkpt><trkpt lat="45.1062035" lon="7.8862516"><ele>271.2</ele><time>2026-04-14T14:05:55.194Z</time></trkpt><trkpt lat="45.1061272" lon="7.8863342"><ele>272.59999999999997</ele><time>2026-04-14T14:05:57.193Z</time></trkpt><trkpt lat="45.1060539" lon="7.8864237"><ele>274.0</ele><time>2026-04-14T14:05:59.195Z</time></trkpt><trkpt lat="45.1059819" lon="7.8865181"><ele>274.0</ele><time>2026-04-14T14:06:01.195Z</time></trkpt><trkpt lat="45.105915" lon="7.886615"><ele>274.0</ele><time>2026-04-14T14:06:03.193Z</time></trkpt><trkpt lat="45.1058483" lon="7.8867091"><ele>274.0</ele><time>2026-04-14T14:06:05.193Z</time></trkpt><trkpt lat="45.1057769" lon="7.8868021"><ele>274.0</ele><time>2026-04-14T14:06:07.194Z</time></trkpt><trkpt lat="45.105705" lon="7.8869001"><ele>274.0</ele><time>2026-04-14T14:06:09.194Z</time></trkpt><trkpt lat="45.1056365" lon="7.8869967"><ele>273.4</ele><time>2026-04-14T14:06:11.195Z</time></trkpt><trkpt lat="45.105567" lon="7.8870901"><ele>272.79999999999995</ele><time>2026-04-14T14:06:13.194Z</time></trkpt><trkpt lat="45.105502" lon="7.8871897"><ele>272.20000000000005</ele><time>2026-04-14T14:06:15.194Z</time></trkpt><trkpt lat="45.105448" lon="7.8873061"><ele>271.6</ele><time>2026-04-14T14:06:17.193Z</time></trkpt><trkpt lat="45.1054186" lon="7.88744"><ele>271.0</ele><time>2026-04-14T14:06:19.195Z</time></trkpt><trkpt lat="45.1054153" lon="7.887581"><ele>271.66666666666663</ele><time>2026-04-14T14:06:21.194Z</time></trkpt><trkpt lat="45.1054222" lon="7.8877145"><ele>272.3333333333333</ele><time>2026-04-14T14:06:23.194Z</time></trkpt><trkpt lat="45.1054365" lon="7.8878422"><ele>273.0</ele><time>2026-04-14T14:06:25.194Z</time></trkpt><trkpt lat="45.1054499" lon="7.8879646"><ele>273.6666666666667</ele><time>2026-04-14T14:06:27.194Z</time></trkpt><trkpt lat="45.1054698" lon="7.8880862"><ele>274.33333333333337</ele><time>2026-04-14T14:06:29.193Z</time></trkpt><trkpt lat="45.1054822" lon="7.8881999"><ele>275.0</ele><time>2026-04-14T14:06:31.193Z</time></trkpt><trkpt lat="45.1054966" lon="7.8883441"><ele>275.5</ele><time>2026-04-14T14:06:34.256Z</time></trkpt><trkpt lat="45.1054991" lon="7.8884674"><ele>276.0</ele><time>2026-04-14T14:06:36.292Z</time></trkpt><trkpt lat="45.1055305" lon="7.8885717"><ele>276.5</ele><time>2026-04-14T14:06:38.205Z</time></trkpt><trkpt lat="45.1055609" lon="7.8886768"><ele>277.0</ele><time>2026-04-14T14:06:40.241Z</time></trkpt><trkpt lat="45.1055745" lon="7.8887813"><ele>277.5</ele><time>2026-04-14T14:06:42.276Z</time></trkpt><trkpt lat="45.1055774" lon="7.8888811"><ele>278.0</ele><time>2026-04-14T14:06:44.193Z</time></trkpt><trkpt lat="45.1055954" lon="7.8889851"><ele>278.0</ele><time>2026-04-14T14:06:46.224Z</time></trkpt><trkpt lat="45.1055985" lon="7.8890928"><ele>278.0</ele><time>2026-04-14T14:06:48.258Z</time></trkpt><trkpt lat="45.1056183" lon="7.8891964"><ele>278.0</ele><time>2026-04-14T14:06:50.293Z</time></trkpt><trkpt lat="45.1056285" lon="7.8892993"><ele>278.0</ele><time>2026-04-14T14:06:52.208Z</time></trkpt><trkpt lat="45.1056385" lon="7.8894016"><ele>278.0</ele><time>2026-04-14T14:06:54.243Z</time></trkpt><trkpt lat="45.1056488" lon="7.8895047"><ele>278.0</ele><time>2026-04-14T14:06:56.277Z</time></trkpt><trkpt lat="45.1056455" lon="7.8896048"><ele>278.0</ele><time>2026-04-14T14:06:58.194Z</time></trkpt><trkpt lat="45.1056477" lon="7.889715"><ele>278.57142857142856</ele><time>2026-04-14T14:07:00.226Z</time></trkpt><trkpt lat="45.1056407" lon="7.8898223"><ele>279.14285714285717</ele><time>2026-04-14T14:07:02.261Z</time></trkpt><trkpt lat="45.1056145" lon="7.8899216"><ele>279.7142857142857</ele><time>2026-04-14T14:07:04.194Z</time></trkpt><trkpt lat="45.1055883" lon="7.8900274"><ele>280.2857142857143</ele><time>2026-04-14T14:07:06.329Z</time></trkpt><trkpt lat="45.1055739" lon="7.8901208"><ele>280.85714285714283</ele><time>2026-04-14T14:07:08.245Z</time></trkpt><trkpt lat="45.1055523" lon="7.8902162"><ele>281.42857142857144</ele><time>2026-04-14T14:07:10.279Z</time></trkpt><trkpt lat="45.1055285" lon="7.8903056"><ele>282.0</ele><time>2026-04-14T14:07:12.315Z</time></trkpt><trkpt lat="45.1054955" lon="7.8903934"><ele>282.8571428571429</ele><time>2026-04-14T14:07:14.23Z</time></trkpt><trkpt lat="45.1054553" lon="7.8904837"><ele>283.7142857142857</ele><time>2026-04-14T14:07:16.264Z</time></trkpt><trkpt lat="45.10542" lon="7.8905682"><ele>284.57142857142856</ele><time>2026-04-14T14:07:18.194Z</time></trkpt><trkpt lat="45.1053793" lon="7.8906601"><ele>285.42857142857144</ele><time>2026-04-14T14:07:20.214Z</time></trkpt><trkpt lat="45.1053351" lon="7.8907448"><ele>286.2857142857143</ele><time>2026-04-14T14:07:22.25Z</time></trkpt><trkpt lat="45.1052915" lon="7.8908243"><ele>287.14285714285717</ele><time>2026-04-14T14:07:24.284Z</time></trkpt><trkpt lat="45.1052483" lon="7.8909024"><ele>288.0</ele><time>2026-04-14T14:07:26.201Z</time></trkpt><trkpt lat="45.1052033" lon="7.8909827"><ele>289.5714285714286</ele><time>2026-04-14T14:07:28.236Z</time></trkpt><trkpt lat="45.1051552" lon="7.8910594"><ele>291.14285714285717</ele><time>2026-04-14T14:07:30.271Z</time></trkpt><trkpt lat="45.1051013" lon="7.8911299"><ele>292.7142857142857</ele><time>2026-04-14T14:07:32.305Z</time></trkpt><trkpt lat="45.1050483" lon="7.8911852"><ele>294.28571428571433</ele><time>2026-04-14T14:07:34.221Z</time></trkpt><trkpt lat="45.1049893" lon="7.89123"><ele>295.8571428571429</ele><time>2026-04-14T14:07:36.277Z</time></trkpt><trkpt lat="45.1049257" lon="7.8912556"><ele>297.42857142857144</ele><time>2026-04-14T14:07:38.29Z</time></trkpt><trkpt lat="45.1048273" lon="7.8912472"><ele>299.0</ele><time>2026-04-14T14:07:41.283Z</time></trkpt><trkpt lat="45.1047383" lon="7.8912288"><ele>300.1666666666667</ele><time>2026-04-14T14:07:44.275Z</time></trkpt><trkpt lat="45.1046542" lon="7.8912159"><ele>301.33333333333337</ele><time>2026-04-14T14:07:47.267Z</time></trkpt><trkpt lat="45.1045705" lon="7.891202"><ele>302.5</ele><time>2026-04-14T14:07:50.26Z</time></trkpt><trkpt lat="45.1044787" lon="7.8911928"><ele>303.6666666666667</ele><time>2026-04-14T14:07:53.273Z</time></trkpt><trkpt lat="45.104394" lon="7.8911792"><ele>304.8333333333333</ele><time>2026-04-14T14:07:56.244Z</time></trkpt><trkpt lat="45.1043117" lon="7.8911648"><ele>306.0</ele><time>2026-04-14T14:07:59.235Z</time></trkpt><trkpt lat="45.10422" lon="7.8911531"><ele>306.0</ele><time>2026-04-14T14:08:02.227Z</time></trkpt><trkpt lat="45.1041326" lon="7.8911385"><ele>306.0</ele><time>2026-04-14T14:08:05.219Z</time></trkpt><trkpt lat="45.1040503" lon="7.8911136"><ele>306.0</ele><time>2026-04-14T14:08:08.212Z</time></trkpt><trkpt lat="45.1039815" lon="7.8910882"><ele>306.0</ele><time>2026-04-14T14:08:11.203Z</time></trkpt><trkpt lat="45.1039116" lon="7.8910531"><ele>306.0</ele><time>2026-04-14T14:08:14.195Z</time></trkpt><trkpt lat="45.1038397" lon="7.8909988"><ele>306.0</ele><time>2026-04-14T14:08:17.151Z</time></trkpt><trkpt lat="45.1037501" lon="7.8909532"><ele>306.3333333333333</ele><time>2026-04-14T14:08:20.323Z</time></trkpt><trkpt lat="45.1036727" lon="7.8909133"><ele>306.6666666666667</ele><time>2026-04-14T14:08:23.321Z</time></trkpt><trkpt lat="45.1035918" lon="7.8908673"><ele>307.0</ele><time>2026-04-14T14:08:26.286Z</time></trkpt><trkpt lat="45.1035065" lon="7.8908359"><ele>307.33333333333337</ele><time>2026-04-14T14:08:29.277Z</time></trkpt><trkpt lat="45.1034279" lon="7.8908127"><ele>307.6666666666667</ele><time>2026-04-14T14:08:32.312Z</time></trkpt><trkpt lat="45.103356" lon="7.8908087"><ele>308.0</ele><time>2026-04-14T14:08:35.263Z</time></trkpt><trkpt lat="45.1032825" lon="7.8908261"><ele>309.83333333333337</ele><time>2026-04-14T14:08:38.255Z</time></trkpt><trkpt lat="45.1032041" lon="7.8908631"><ele>311.6666666666667</ele><time>2026-04-14T14:08:41.247Z</time></trkpt><trkpt lat="45.1031279" lon="7.8909229"><ele>313.5</ele><time>2026-04-14T14:08:44.24Z</time></trkpt><trkpt lat="45.1030637" lon="7.8910009"><ele>315.3333333333333</ele><time>2026-04-14T14:08:47.231Z</time></trkpt><trkpt lat="45.1030006" lon="7.8910613"><ele>317.16666666666663</ele><time>2026-04-14T14:08:50.223Z</time></trkpt><trkpt lat="45.1029431" lon="7.8911254"><ele>319.0</ele><time>2026-04-14T14:08:53.259Z</time></trkpt><trkpt lat="45.1028786" lon="7.8911975"><ele>319.0</ele><time>2026-04-14T14:08:56.27Z</time></trkpt><trkpt lat="45.1028157" lon="7.8912512"><ele>319.0</ele><time>2026-04-14T14:08:59.302Z</time></trkpt><trkpt lat="45.1027501" lon="7.8913061"><ele>319.0</ele><time>2026-04-14T14:09:02.314Z</time></trkpt><trkpt lat="45.1026841" lon="7.8913426"><ele>319.0</ele><time>2026-04-14T14:09:05.192Z</time></trkpt><trkpt lat="45.1026102" lon="7.8913776"><ele>319.0</ele><time>2026-04-14T14:09:08.298Z</time></trkpt><trkpt lat="45.1025481" lon="7.8914056"><ele>319.0</ele><time>2026-04-14T14:09:11.291Z</time></trkpt><trkpt lat="45.1024866" lon="7.8914345"><ele>319.0</ele><time>2026-04-14T14:09:14.283Z</time></trkpt><trkpt lat="45.1024255" lon="7.8914669"><ele>319.7142857142857</ele><time>2026-04-14T14:09:17.276Z</time></trkpt><trkpt lat="45.1023535" lon="7.8915009"><ele>320.4285714285714</ele><time>2026-04-14T14:09:20.269Z</time></trkpt><trkpt lat="45.1022812" lon="7.8915233"><ele>321.1428571428571</ele><time>2026-04-14T14:09:23.261Z</time></trkpt><trkpt lat="45.1022112" lon="7.8915494"><ele>321.8571428571429</ele><time>2026-04-14T14:09:26.253Z</time></trkpt><trkpt lat="45.1021394" lon="7.8915757"><ele>322.57142857142856</ele><time>2026-04-14T14:09:29.245Z</time></trkpt><trkpt lat="45.1020687" lon="7.8915883"><ele>323.2857142857143</ele><time>2026-04-14T14:09:32.238Z</time></trkpt><trkpt lat="45.1019922" lon="7.891596"><ele>324.0</ele><time>2026-04-14T14:09:35.229Z</time></trkpt><trkpt lat="45.1019149" lon="7.8915956"><ele>324.0</ele><time>2026-04-14T14:09:38.222Z</time></trkpt><trkpt lat="45.1018397" lon="7.8915904"><ele>324.0</ele><time>2026-04-14T14:09:41.196Z</time></trkpt><trkpt lat="45.1017609" lon="7.8915745"><ele>324.0</ele><time>2026-04-14T14:09:44.205Z</time></trkpt><trkpt lat="45.1016894" lon="7.8915534"><ele>324.0</ele><time>2026-04-14T14:09:47.317Z</time></trkpt><trkpt lat="45.1016265" lon="7.8915407"><ele>324.0</ele><time>2026-04-14T14:09:50.195Z</time></trkpt><trkpt lat="45.101548" lon="7.8915201"><ele>324.0</ele><time>2026-04-14T14:09:53.301Z</time></trkpt><trkpt lat="45.101477" lon="7.8914882"><ele>324.0</ele><time>2026-04-14T14:09:56.293Z</time></trkpt><trkpt lat="45.1014099" lon="7.8914605"><ele>323.42857142857144</ele><time>2026-04-14T14:09:59.285Z</time></trkpt><trkpt lat="45.1013388" lon="7.8914201"><ele>322.85714285714283</ele><time>2026-04-14T14:10:02.277Z</time></trkpt><trkpt lat="45.1012746" lon="7.8913864"><ele>322.2857142857143</ele><time>2026-04-14T14:10:05.131Z</time></trkpt><trkpt lat="45.1012127" lon="7.8913503"><ele>321.7142857142857</ele><time>2026-04-14T14:10:08.025Z</time></trkpt><trkpt lat="45.1011423" lon="7.8913056"><ele>321.14285714285717</ele><time>2026-04-14T14:10:11.256Z</time></trkpt><trkpt lat="45.1010786" lon="7.8912594"><ele>320.57142857142856</ele><time>2026-04-14T14:10:14.247Z</time></trkpt><trkpt lat="45.1010134" lon="7.8912139"><ele>320.0</ele><time>2026-04-14T14:10:17.239Z</time></trkpt><trkpt lat="45.1009478" lon="7.8911758"><ele>320.0</ele><time>2026-04-14T14:10:20.23Z</time></trkpt><trkpt lat="45.1008823" lon="7.8911334"><ele>320.0</ele><time>2026-04-14T14:10:23.189Z</time></trkpt><trkpt lat="45.1008148" lon="7.8910888"><ele>320.0</ele><time>2026-04-14T14:10:26.216Z</time></trkpt><trkpt lat="45.1007513" lon="7.8910439"><ele>320.0</ele><time>2026-04-14T14:10:29.21Z</time></trkpt><trkpt lat="45.1006832" lon="7.8910014"><ele>320.0</ele><time>2026-04-14T14:10:32.342Z</time></trkpt><trkpt lat="45.1006241" lon="7.8909583"><ele>320.0</ele><time>2026-04-14T14:10:35.194Z</time></trkpt><trkpt lat="45.1005591" lon="7.8909068"><ele>320.0</ele><time>2026-04-14T14:10:38.193Z</time></trkpt><trkpt lat="45.1004919" lon="7.8908539"><ele>322.57142857142856</ele><time>2026-04-14T14:10:41.295Z</time></trkpt><trkpt lat="45.1004234" lon="7.8907967"><ele>325.14285714285717</ele><time>2026-04-14T14:10:44.288Z</time></trkpt><trkpt lat="45.1003604" lon="7.8907506"><ele>327.7142857142857</ele><time>2026-04-14T14:10:47.202Z</time></trkpt><trkpt lat="45.1002961" lon="7.8907043"><ele>330.2857142857143</ele><time>2026-04-14T14:10:50.272Z</time></trkpt><trkpt lat="45.1002334" lon="7.8906399"><ele>332.85714285714283</ele><time>2026-04-14T14:10:53.264Z</time></trkpt><trkpt lat="45.1001771" lon="7.8905858"><ele>335.42857142857144</ele><time>2026-04-14T14:10:56.255Z</time></trkpt><trkpt lat="45.1001134" lon="7.8905397"><ele>338.0</ele><time>2026-04-14T14:10:59.247Z</time></trkpt><trkpt lat="45.1000519" lon="7.8904923"><ele>338.0</ele><time>2026-04-14T14:11:02.239Z</time></trkpt><trkpt lat="45.0999865" lon="7.890439"><ele>338.0</ele><time>2026-04-14T14:11:05.232Z</time></trkpt><trkpt lat="45.0999226" lon="7.890391"><ele>338.0</ele><time>2026-04-14T14:11:08.223Z</time></trkpt><trkpt lat="45.099851" lon="7.8903486"><ele>338.0</ele><time>2026-04-14T14:11:11.216Z</time></trkpt><trkpt lat="45.0997869" lon="7.8903057"><ele>338.0</ele><time>2026-04-14T14:11:14.208Z</time></trkpt><trkpt lat="45.0997171" lon="7.890266"><ele>338.0</ele><time>2026-04-14T14:11:17.32Z</time></trkpt><trkpt lat="45.0996478" lon="7.8902678"><ele>338.0</ele><time>2026-04-14T14:11:20.195Z</time></trkpt><trkpt lat="45.0995804" lon="7.8902407"><ele>340.7142857142857</ele><time>2026-04-14T14:11:23.305Z</time></trkpt><trkpt lat="45.0995193" lon="7.8902133"><ele>343.42857142857144</ele><time>2026-04-14T14:11:26.195Z</time></trkpt><trkpt lat="45.0994428" lon="7.8902151"><ele>346.1428571428571</ele><time>2026-04-14T14:11:29.29Z</time></trkpt><trkpt lat="45.0993769" lon="7.890195"><ele>348.8571428571429</ele><time>2026-04-14T14:11:32.192Z</time></trkpt><trkpt lat="45.0993064" lon="7.8901972"><ele>351.57142857142856</ele><time>2026-04-14T14:11:35.275Z</time></trkpt><trkpt lat="45.0992376" lon="7.8902081"><ele>354.2857142857143</ele><time>2026-04-14T14:11:38.267Z</time></trkpt><trkpt lat="45.0991631" lon="7.8902067"><ele>357.0</ele><time>2026-04-14T14:11:41.259Z</time></trkpt><trkpt lat="45.0990844" lon="7.8902111"><ele>357.42857142857144</ele><time>2026-04-14T14:11:44.252Z</time></trkpt><trkpt lat="45.0990117" lon="7.890219"><ele>357.8571428571429</ele><time>2026-04-14T14:11:47.243Z</time></trkpt><trkpt lat="45.0989461" lon="7.8901989"><ele>358.2857142857143</ele><time>2026-04-14T14:11:50.236Z</time></trkpt><trkpt lat="45.0988798" lon="7.89018"><ele>358.7142857142857</ele><time>2026-04-14T14:11:53.227Z</time></trkpt><trkpt lat="45.0988112" lon="7.8901223"><ele>359.14285714285717</ele><time>2026-04-14T14:11:56.221Z</time></trkpt><trkpt lat="45.0987483" lon="7.8900675"><ele>359.57142857142856</ele><time>2026-04-14T14:11:59.214Z</time></trkpt><trkpt lat="45.0986802" lon="7.8900311"><ele>360.0</ele><time>2026-04-14T14:12:02.205Z</time></trkpt><trkpt lat="45.0986111" lon="7.8900015"><ele>360.0</ele><time>2026-04-14T14:12:05.2Z</time></trkpt><trkpt lat="45.0985449" lon="7.8899577"><ele>360.0</ele><time>2026-04-14T14:12:08.309Z</time></trkpt><trkpt lat="45.0984823" lon="7.8899106"><ele>360.0</ele><time>2026-04-14T14:12:11.302Z</time></trkpt><trkpt lat="45.0984063" lon="7.8898665"><ele>360.0</ele><time>2026-04-14T14:12:15.251Z</time></trkpt><trkpt lat="45.0983383" lon="7.8898567"><ele>360.0</ele><time>2026-04-14T14:12:18.244Z</time></trkpt><trkpt lat="45.0982614" lon="7.8898486"><ele>360.0</ele><time>2026-04-14T14:12:21.236Z</time></trkpt><trkpt lat="45.0981873" lon="7.889852"><ele>360.0</ele><time>2026-04-14T14:12:24.228Z</time></trkpt><trkpt lat="45.0981218" lon="7.8898933"><ele>360.85714285714283</ele><time>2026-04-14T14:12:27.22Z</time></trkpt><trkpt lat="45.0980708" lon="7.8899594"><ele>361.7142857142857</ele><time>2026-04-14T14:12:30.213Z</time></trkpt><trkpt lat="45.0980226" lon="7.8900212"><ele>362.57142857142856</ele><time>2026-04-14T14:12:33.205Z</time></trkpt><trkpt lat="45.0979659" lon="7.8900698"><ele>363.42857142857144</ele><time>2026-04-14T14:12:36.196Z</time></trkpt><trkpt lat="45.0979165" lon="7.8901337"><ele>364.28571428571433</ele><time>2026-04-14T14:12:39.192Z</time></trkpt><trkpt lat="45.0978671" lon="7.8902015"><ele>365.14285714285717</ele><time>2026-04-14T14:12:42.301Z</time></trkpt><trkpt lat="45.0978018" lon="7.8902331"><ele>366.0</ele><time>2026-04-14T14:12:45.293Z</time></trkpt><trkpt lat="45.0977218" lon="7.8902393"><ele>370.0</ele><time>2026-04-14T14:12:49.242Z</time></trkpt><trkpt lat="45.0976376" lon="7.8902354"><ele>374.0</ele><time>2026-04-14T14:12:53.31Z</time></trkpt><trkpt lat="45.097577" lon="7.8902641"><ele>378.0</ele><time>2026-04-14T14:12:56.303Z</time></trkpt><trkpt lat="45.0975042" lon="7.8902746"><ele>382.0</ele><time>2026-04-14T14:12:59.294Z</time></trkpt><trkpt lat="45.0974324" lon="7.8902429"><ele>386.0</ele><time>2026-04-14T14:13:02.288Z</time></trkpt><trkpt lat="45.097361" lon="7.8902299"><ele>390.0</ele><time>2026-04-14T14:13:05.28Z</time></trkpt><trkpt lat="45.0972912" lon="7.8902227"><ele>394.0</ele><time>2026-04-14T14:13:09.23Z</time></trkpt><trkpt lat="45.0972272" lon="7.8902049"><ele>394.50000000000006</ele><time>2026-04-14T14:13:12.342Z</time></trkpt><trkpt lat="45.0971691" lon="7.8901672"><ele>395.0</ele><time>2026-04-14T14:13:14.257Z</time></trkpt><trkpt lat="45.0970878" lon="7.890109"><ele>395.5</ele><time>2026-04-14T14:13:17.311Z</time></trkpt><trkpt lat="45.0970192" lon="7.8900682"><ele>396.0</ele><time>2026-04-14T14:13:20.241Z</time></trkpt><trkpt lat="45.0969594" lon="7.8900177"><ele>396.50000000000006</ele><time>2026-04-14T14:13:23.233Z</time></trkpt><trkpt lat="45.09688" lon="7.889974"><ele>397.0</ele><time>2026-04-14T14:13:27.303Z</time></trkpt><trkpt lat="45.0968165" lon="7.8899472"><ele>394.85714285714283</ele><time>2026-04-14T14:13:30.295Z</time></trkpt><trkpt lat="45.0967432" lon="7.8899234"><ele>392.71428571428567</ele><time>2026-04-14T14:13:33.287Z</time></trkpt><trkpt lat="45.0966717" lon="7.8899106"><ele>390.57142857142856</ele><time>2026-04-14T14:13:36.281Z</time></trkpt><trkpt lat="45.0966005" lon="7.8899087"><ele>388.42857142857144</ele><time>2026-04-14T14:13:39.272Z</time></trkpt><trkpt lat="45.0965308" lon="7.889918"><ele>386.2857142857143</ele><time>2026-04-14T14:13:42.263Z</time></trkpt><trkpt lat="45.0964678" lon="7.889946"><ele>384.14285714285717</ele><time>2026-04-14T14:13:45.256Z</time></trkpt><trkpt lat="45.0964025" lon="7.889976"><ele>382.0</ele><time>2026-04-14T14:13:48.247Z</time></trkpt><trkpt lat="45.0963365" lon="7.8900075"><ele>382.0</ele><time>2026-04-14T14:13:51.238Z</time></trkpt><trkpt lat="45.0962769" lon="7.8900419"><ele>382.0</ele><time>2026-04-14T14:13:54.23Z</time></trkpt><trkpt lat="45.096219" lon="7.8900854"><ele>382.0</ele><time>2026-04-14T14:13:57.221Z</time></trkpt><trkpt lat="45.0961518" lon="7.8901123"><ele>382.0</ele><time>2026-04-14T14:14:00.213Z</time></trkpt><trkpt lat="45.0960848" lon="7.8901182"><ele>382.0</ele><time>2026-04-14T14:14:03.204Z</time></trkpt><trkpt lat="45.0960119" lon="7.890096"><ele>382.0</ele><time>2026-04-14T14:14:06.195Z</time></trkpt><trkpt lat="45.0959562" lon="7.8900275"><ele>382.0</ele><time>2026-04-14T14:14:08.23Z</time></trkpt><trkpt lat="45.0958863" lon="7.8898952"><ele>382.0</ele><time>2026-04-14T14:14:10.194Z</time></trkpt><trkpt lat="45.0958421" lon="7.8898141"><ele>382.0</ele><time>2026-04-14T14:14:11.194Z</time></trkpt><trkpt lat="45.0957935" lon="7.8897271"><ele>382.0</ele><time>2026-04-14T14:14:12.193Z</time></trkpt><trkpt lat="45.0957399" lon="7.8896347"><ele>382.0</ele><time>2026-04-14T14:14:13.195Z</time></trkpt><trkpt lat="45.0956818" lon="7.8895406"><ele>382.0</ele><time>2026-04-14T14:14:14.194Z</time></trkpt><trkpt lat="45.0956255" lon="7.8894449"><ele>382.0</ele><time>2026-04-14T14:14:15.194Z</time></trkpt><trkpt lat="45.0955731" lon="7.8893436"><ele>385.3333333333333</ele><time>2026-04-14T14:14:16.193Z</time></trkpt><trkpt lat="45.0955272" lon="7.8892358"><ele>388.66666666666663</ele><time>2026-04-14T14:14:17.194Z</time></trkpt><trkpt lat="45.0954924" lon="7.8891213"><ele>392.0</ele><time>2026-04-14T14:14:18.194Z</time></trkpt><trkpt lat="45.0954693" lon="7.8889988"><ele>395.3333333333333</ele><time>2026-04-14T14:14:19.194Z</time></trkpt><trkpt lat="45.095461" lon="7.8888747"><ele>398.6666666666667</ele><time>2026-04-14T14:14:20.193Z</time></trkpt><trkpt lat="45.0954703" lon="7.8887546"><ele>402.0</ele><time>2026-04-14T14:14:21.194Z</time></trkpt><trkpt lat="45.0954856" lon="7.8886402"><ele>402.0</ele><time>2026-04-14T14:14:22.193Z</time></trkpt><trkpt lat="45.0955047" lon="7.8885322"><ele>402.0</ele><time>2026-04-14T14:14:23.194Z</time></trkpt><trkpt lat="45.0955204" lon="7.8884314"><ele>402.0</ele><time>2026-04-14T14:14:24.194Z</time></trkpt><trkpt lat="45.0955359" lon="7.888339"><ele>402.0</ele><time>2026-04-14T14:14:25.195Z</time></trkpt><trkpt lat="45.0955536" lon="7.8882511"><ele>402.0</ele><time>2026-04-14T14:14:26.196Z</time></trkpt><trkpt lat="45.095587" lon="7.8880954"><ele>402.0</ele><time>2026-04-14T14:14:28.194Z</time></trkpt><trkpt lat="45.0956302" lon="7.8879779"><ele>401.6666666666667</ele><time>2026-04-14T14:14:30.194Z</time></trkpt><trkpt lat="45.0956797" lon="7.8878991"><ele>401.33333333333337</ele><time>2026-04-14T14:14:32.194Z</time></trkpt><trkpt lat="45.0957391" lon="7.8878199"><ele>401.0</ele><time>2026-04-14T14:14:35.194Z</time></trkpt><trkpt lat="45.0958017" lon="7.8877356"><ele>400.6666666666667</ele><time>2026-04-14T14:14:39.228Z</time></trkpt><trkpt lat="45.0958789" lon="7.8877054"><ele>400.33333333333337</ele><time>2026-04-14T14:14:42.267Z</time></trkpt><trkpt lat="45.095954" lon="7.8876556"><ele>400.0</ele><time>2026-04-14T14:14:46.289Z</time></trkpt><trkpt lat="45.0960174" lon="7.8875856"><ele>397.6666666666667</ele><time>2026-04-14T14:14:50.239Z</time></trkpt><trkpt lat="45.0960684" lon="7.8874972"><ele>395.33333333333337</ele><time>2026-04-14T14:14:53.231Z</time></trkpt><trkpt lat="45.0960737" lon="7.8873825"><ele>393.0</ele><time>2026-04-14T14:14:56.265Z</time></trkpt><trkpt lat="45.0960324" lon="7.8872849"><ele>390.66666666666663</ele><time>2026-04-14T14:14:59.335Z</time></trkpt><trkpt lat="45.0959811" lon="7.8872189"><ele>388.3333333333333</ele><time>2026-04-14T14:15:02.309Z</time></trkpt><trkpt lat="45.0959113" lon="7.8871436"><ele>386.0</ele><time>2026-04-14T14:15:06.275Z</time></trkpt><trkpt lat="45.0958618" lon="7.8870747"><ele>385.99999999999994</ele><time>2026-04-14T14:15:09.268Z</time></trkpt><trkpt lat="45.0958161" lon="7.8869957"><ele>386.0</ele><time>2026-04-14T14:15:12.26Z</time></trkpt><trkpt lat="45.0957489" lon="7.8869229"><ele>386.0</ele><time>2026-04-14T14:15:15.251Z</time></trkpt><trkpt lat="45.0956971" lon="7.8868403"><ele>386.0</ele><time>2026-04-14T14:15:18.244Z</time></trkpt><trkpt lat="45.095627" lon="7.8867556"><ele>385.99999999999994</ele><time>2026-04-14T14:15:21.235Z</time></trkpt><trkpt lat="45.0955623" lon="7.8866666"><ele>386.0</ele><time>2026-04-14T14:15:24.229Z</time></trkpt><trkpt lat="45.0955187" lon="7.8865471"><ele>388.00000000000006</ele><time>2026-04-14T14:15:27.22Z</time></trkpt><trkpt lat="45.0955085" lon="7.8864484"><ele>390.0</ele><time>2026-04-14T14:15:29.254Z</time></trkpt><trkpt lat="45.0955125" lon="7.8863484"><ele>392.0</ele><time>2026-04-14T14:15:31.288Z</time></trkpt><trkpt lat="45.095509" lon="7.8862539"><ele>394.0</ele><time>2026-04-14T14:15:33.203Z</time></trkpt><trkpt lat="45.0954994" lon="7.8861618"><ele>396.0</ele><time>2026-04-14T14:15:35.237Z</time></trkpt><trkpt lat="45.0954846" lon="7.8860704"><ele>398.00000000000006</ele><time>2026-04-14T14:15:37.271Z</time></trkpt><trkpt lat="45.0954473" lon="7.8859901"><ele>400.0</ele><time>2026-04-14T14:15:39.193Z</time></trkpt><trkpt lat="45.0954078" lon="7.8859002"><ele>400.00000000000006</ele><time>2026-04-14T14:15:41.222Z</time></trkpt><trkpt lat="45.0953051" lon="7.8857612"><ele>400.0</ele><time>2026-04-14T14:15:44.193Z</time></trkpt><trkpt lat="45.0952594" lon="7.8856968"><ele>400.0</ele><time>2026-04-14T14:15:45.195Z</time></trkpt><trkpt lat="45.0952076" lon="7.8856214"><ele>400.0</ele><time>2026-04-14T14:15:46.196Z</time></trkpt><trkpt lat="45.0951493" lon="7.8855396"><ele>400.00000000000006</ele><time>2026-04-14T14:15:47.196Z</time></trkpt><trkpt lat="45.0950833" lon="7.8854602"><ele>400.0</ele><time>2026-04-14T14:15:48.196Z</time></trkpt><trkpt lat="45.0950151" lon="7.8853672"><ele>400.0</ele><time>2026-04-14T14:15:49.195Z</time></trkpt><trkpt lat="45.094941" lon="7.8852566"><ele>400.0</ele><time>2026-04-14T14:15:50.195Z</time></trkpt><trkpt lat="45.0948695" lon="7.8851297"><ele>400.0</ele><time>2026-04-14T14:15:51.196Z</time></trkpt><trkpt lat="45.0948087" lon="7.8849977"><ele>400.0</ele><time>2026-04-14T14:15:52.196Z</time></trkpt><trkpt lat="45.0947427" lon="7.8848731"><ele>400.0</ele><time>2026-04-14T14:15:53.195Z</time></trkpt><trkpt lat="45.09468" lon="7.8847501"><ele>397.6</ele><time>2026-04-14T14:15:54.195Z</time></trkpt><trkpt lat="45.0946183" lon="7.8846191"><ele>395.2</ele><time>2026-04-14T14:15:55.197Z</time></trkpt><trkpt lat="45.0945626" lon="7.8844831"><ele>392.79999999999995</ele><time>2026-04-14T14:15:56.195Z</time></trkpt><trkpt lat="45.0945173" lon="7.8843434"><ele>390.4</ele><time>2026-04-14T14:15:57.196Z</time></trkpt><trkpt lat="45.0944777" lon="7.8842015"><ele>388.0</ele><time>2026-04-14T14:15:58.197Z</time></trkpt><trkpt lat="45.094455" lon="7.8840604"><ele>384.4</ele><time>2026-04-14T14:15:59.196Z</time></trkpt><trkpt lat="45.0944492" lon="7.8839198"><ele>380.79999999999995</ele><time>2026-04-14T14:16:00.194Z</time></trkpt><trkpt lat="45.0944505" lon="7.8837798"><ele>377.2</ele><time>2026-04-14T14:16:01.194Z</time></trkpt><trkpt lat="45.0944494" lon="7.8836466"><ele>373.6</ele><time>2026-04-14T14:16:02.194Z</time></trkpt><trkpt lat="45.0944428" lon="7.8835191"><ele>370.0</ele><time>2026-04-14T14:16:03.194Z</time></trkpt><trkpt lat="45.0944303" lon="7.8833958"><ele>370.0</ele><time>2026-04-14T14:16:04.195Z</time></trkpt><trkpt lat="45.0944153" lon="7.8832763"><ele>370.0</ele><time>2026-04-14T14:16:05.195Z</time></trkpt><trkpt lat="45.0943972" lon="7.8831641"><ele>370.0</ele><time>2026-04-14T14:16:06.194Z</time></trkpt><trkpt lat="45.0943751" lon="7.8830616"><ele>370.0</ele><time>2026-04-14T14:16:07.194Z</time></trkpt><trkpt lat="45.0943515" lon="7.8829654"><ele>370.0</ele><time>2026-04-14T14:16:08.195Z</time></trkpt><trkpt lat="45.0943265" lon="7.8828782"><ele>370.0</ele><time>2026-04-14T14:16:09.195Z</time></trkpt><trkpt lat="45.0942729" lon="7.8827218"><ele>370.8333333333333</ele><time>2026-04-14T14:16:11.193Z</time></trkpt><trkpt lat="45.0942183" lon="7.8825825"><ele>371.66666666666663</ele><time>2026-04-14T14:16:13.194Z</time></trkpt><trkpt lat="45.0941735" lon="7.8824758"><ele>372.5</ele><time>2026-04-14T14:16:15.194Z</time></trkpt><trkpt lat="45.0941152" lon="7.882408"><ele>373.3333333333333</ele><time>2026-04-14T14:16:19.238Z</time></trkpt><trkpt lat="45.0940585" lon="7.882325"><ele>374.1666666666667</ele><time>2026-04-14T14:16:21.272Z</time></trkpt><trkpt lat="45.0940034" lon="7.8822548"><ele>375.0</ele><time>2026-04-14T14:16:23.229Z</time></trkpt><trkpt lat="45.093941" lon="7.8822083"><ele>375.0</ele><time>2026-04-14T14:16:25.221Z</time></trkpt><trkpt lat="45.0938697" lon="7.8821902"><ele>375.0</ele><time>2026-04-14T14:16:27.256Z</time></trkpt><trkpt lat="45.093797" lon="7.8821904"><ele>375.0</ele><time>2026-04-14T14:16:29.291Z</time></trkpt><trkpt lat="45.093719" lon="7.882131"><ele>375.0</ele><time>2026-04-14T14:16:32.282Z</time></trkpt><trkpt lat="45.0936458" lon="7.8820445"><ele>375.0</ele><time>2026-04-14T14:16:35.274Z</time></trkpt><trkpt lat="45.0935767" lon="7.881962"><ele>375.0</ele><time>2026-04-14T14:16:38.267Z</time></trkpt><trkpt lat="45.0935302" lon="7.8819018"><ele>375.0</ele><time>2026-04-14T14:16:40.244Z</time></trkpt><trkpt lat="45.0934565" lon="7.8818045"><ele>375.0</ele><time>2026-04-14T14:16:43.293Z</time></trkpt><trkpt lat="45.0934022" lon="7.8817393"><ele>375.0</ele><time>2026-04-14T14:16:45.209Z</time></trkpt><trkpt lat="45.0933306" lon="7.8816586"><ele>375.0</ele><time>2026-04-14T14:16:48.201Z</time></trkpt><trkpt lat="45.0932794" lon="7.8815992"><ele>375.0</ele><time>2026-04-14T14:16:50.236Z</time></trkpt><trkpt lat="45.0932337" lon="7.881537"><ele>375.0</ele><time>2026-04-14T14:16:52.27Z</time></trkpt><trkpt lat="45.0932174" lon="7.8814475"><ele>376.7142857142857</ele><time>2026-04-14T14:16:54.304Z</time></trkpt><trkpt lat="45.0932599" lon="7.8813678"><ele>378.4285714285714</ele><time>2026-04-14T14:16:56.22Z</time></trkpt><trkpt lat="45.0933383" lon="7.8813715"><ele>380.1428571428571</ele><time>2026-04-14T14:16:58.254Z</time></trkpt><trkpt lat="45.0933988" lon="7.8814339"><ele>381.8571428571429</ele><time>2026-04-14T14:17:00.289Z</time></trkpt><trkpt lat="45.0934451" lon="7.8815039"><ele>383.57142857142856</ele><time>2026-04-14T14:17:02.324Z</time></trkpt><trkpt lat="45.0934966" lon="7.8815604"><ele>385.2857142857143</ele><time>2026-04-14T14:17:04.239Z</time></trkpt><trkpt lat="45.0935548" lon="7.8816084"><ele>387.0</ele><time>2026-04-14T14:17:06.272Z</time></trkpt><trkpt lat="45.0936198" lon="7.8816344"><ele>387.0</ele><time>2026-04-14T14:17:08.307Z</time></trkpt><trkpt lat="45.0936822" lon="7.881606"><ele>387.0</ele><time>2026-04-14T14:17:10.222Z</time></trkpt><trkpt lat="45.0937393" lon="7.8815645"><ele>387.0</ele><time>2026-04-14T14:17:12.256Z</time></trkpt><trkpt lat="45.0937768" lon="7.881488"><ele>387.0</ele><time>2026-04-14T14:17:14.292Z</time></trkpt><trkpt lat="45.0938273" lon="7.8813809"><ele>387.0</ele><time>2026-04-14T14:17:17.283Z</time></trkpt><trkpt lat="45.0938954" lon="7.8813088"><ele>387.0</ele><time>2026-04-14T14:17:20.276Z</time></trkpt><trkpt lat="45.0939468" lon="7.8812087"><ele>387.0</ele><time>2026-04-14T14:17:23.269Z</time></trkpt><trkpt lat="45.0940092" lon="7.8811557"><ele>387.0</ele><time>2026-04-14T14:17:26.26Z</time></trkpt><trkpt lat="45.0940663" lon="7.8810549"><ele>387.0</ele><time>2026-04-14T14:17:29.253Z</time></trkpt><trkpt lat="45.0941359" lon="7.8809783"><ele>387.0</ele><time>2026-04-14T14:17:32.244Z</time></trkpt><trkpt lat="45.0942072" lon="7.8809118"><ele>387.0</ele><time>2026-04-14T14:17:35.236Z</time></trkpt><trkpt lat="45.0942493" lon="7.8808289"><ele>387.0</ele><time>2026-04-14T14:17:38.228Z</time></trkpt><trkpt lat="45.094299" lon="7.8807721"><ele>390.0</ele><time>2026-04-14T14:17:40.261Z</time></trkpt><trkpt lat="45.0943653" lon="7.8807373"><ele>393.0</ele><time>2026-04-14T14:17:42.296Z</time></trkpt><trkpt lat="45.0944217" lon="7.8806465"><ele>396.0</ele><time>2026-04-14T14:17:45.13Z</time></trkpt><trkpt lat="45.0945059" lon="7.8806143"><ele>399.0</ele><time>2026-04-14T14:17:48.281Z</time></trkpt><trkpt lat="45.0945689" lon="7.8806717"><ele>402.0</ele><time>2026-04-14T14:17:50.195Z</time></trkpt><trkpt lat="45.0946323" lon="7.8806664"><ele>405.0</ele><time>2026-04-14T14:17:52.23Z</time></trkpt><trkpt lat="45.0947213" lon="7.8806512"><ele>405.0</ele><time>2026-04-14T14:17:55.221Z</time></trkpt><trkpt lat="45.0948102" lon="7.8806868"><ele>405.0</ele><time>2026-04-14T14:17:58.332Z</time></trkpt><trkpt lat="45.094891" lon="7.8807104"><ele>405.0</ele><time>2026-04-14T14:18:01.205Z</time></trkpt><trkpt lat="45.0949738" lon="7.8807524"><ele>405.0</ele><time>2026-04-14T14:18:04.197Z</time></trkpt><trkpt lat="45.095033" lon="7.8808443"><ele>405.0</ele><time>2026-04-14T14:18:07.309Z</time></trkpt><trkpt lat="45.0950499" lon="7.8809396"><ele>405.0</ele><time>2026-04-14T14:18:09.289Z</time></trkpt><trkpt lat="45.0951133" lon="7.8810378"><ele>405.3333333333333</ele><time>2026-04-14T14:18:12.258Z</time></trkpt><trkpt lat="45.095166" lon="7.8811288"><ele>405.66666666666663</ele><time>2026-04-14T14:18:15.189Z</time></trkpt><trkpt lat="45.0952418" lon="7.881197"><ele>406.0</ele><time>2026-04-14T14:18:18.2Z</time></trkpt><trkpt lat="45.0953136" lon="7.8810721"><ele>406.3333333333333</ele><time>2026-04-14T14:18:21.192Z</time></trkpt><trkpt lat="45.0953284" lon="7.8809473"><ele>406.66666666666663</ele><time>2026-04-14T14:18:23.225Z</time></trkpt><trkpt lat="45.0953068" lon="7.8808558"><ele>407.0</ele><time>2026-04-14T14:18:25.26Z</time></trkpt><trkpt lat="45.0952672" lon="7.8807832"><ele>407.0</ele><time>2026-04-14T14:18:27.295Z</time></trkpt><trkpt lat="45.0951967" lon="7.8806943"><ele>407.0</ele><time>2026-04-14T14:18:30.287Z</time></trkpt><trkpt lat="45.0951456" lon="7.8805798"><ele>407.0</ele><time>2026-04-14T14:18:33.278Z</time></trkpt><trkpt lat="45.0951113" lon="7.8804678"><ele>407.0</ele><time>2026-04-14T14:18:36.269Z</time></trkpt><trkpt lat="45.0950903" lon="7.8803503"><ele>407.0</ele><time>2026-04-14T14:18:39.261Z</time></trkpt><trkpt lat="45.0950648" lon="7.880228"><ele>406.99999999999994</ele><time>2026-04-14T14:18:42.254Z</time></trkpt><trkpt lat="45.0950277" lon="7.8801114"><ele>407.0</ele><time>2026-04-14T14:18:45.245Z</time></trkpt><trkpt lat="45.0950032" lon="7.8799918"><ele>407.0</ele><time>2026-04-14T14:18:48.236Z</time></trkpt><trkpt lat="45.094986" lon="7.8798649"><ele>407.0</ele><time>2026-04-14T14:18:51.228Z</time></trkpt><trkpt lat="45.0950143" lon="7.8797807"><ele>406.99999999999994</ele><time>2026-04-14T14:18:53.262Z</time></trkpt><trkpt lat="45.095043" lon="7.8796796"><ele>407.0</ele><time>2026-04-14T14:18:56.254Z</time></trkpt><trkpt lat="45.0950686" lon="7.8795671"><ele>409.20000000000005</ele><time>2026-04-14T14:18:59.245Z</time></trkpt><trkpt lat="45.0950719" lon="7.8794319"><ele>411.4</ele><time>2026-04-14T14:19:02.236Z</time></trkpt><trkpt lat="45.0950344" lon="7.8793237"><ele>413.6</ele><time>2026-04-14T14:19:04.27Z</time></trkpt><trkpt lat="45.0950021" lon="7.879159"><ele>415.79999999999995</ele><time>2026-04-14T14:19:07.194Z</time></trkpt><trkpt lat="45.0949863" lon="7.8790226"><ele>418.0</ele><time>2026-04-14T14:19:09.193Z</time></trkpt><trkpt lat="45.0949896" lon="7.8788645"><ele>417.83333333333337</ele><time>2026-04-14T14:19:11.194Z</time></trkpt><trkpt lat="45.0950002" lon="7.8787764"><ele>417.6666666666667</ele><time>2026-04-14T14:19:12.195Z</time></trkpt><trkpt lat="45.0950088" lon="7.8786857"><ele>417.5</ele><time>2026-04-14T14:19:13.194Z</time></trkpt><trkpt lat="45.0950171" lon="7.8785962"><ele>417.33333333333337</ele><time>2026-04-14T14:19:14.195Z</time></trkpt><trkpt lat="45.0949959" lon="7.8784234"><ele>417.1666666666667</ele><time>2026-04-14T14:19:16.195Z</time></trkpt><trkpt lat="45.0949347" lon="7.8782567"><ele>417.0</ele><time>2026-04-14T14:19:18.194Z</time></trkpt><trkpt lat="45.09492" lon="7.8781613"><ele>417.0</ele><time>2026-04-14T14:19:19.194Z</time></trkpt><trkpt lat="45.09491" lon="7.8780561"><ele>417.0</ele><time>2026-04-14T14:19:20.194Z</time></trkpt><trkpt lat="45.0949039" lon="7.8779293"><ele>417.0</ele><time>2026-04-14T14:19:21.194Z</time></trkpt><trkpt lat="45.0949062" lon="7.8777888"><ele>417.0</ele><time>2026-04-14T14:19:22.194Z</time></trkpt><trkpt lat="45.0949151" lon="7.8776396"><ele>417.0</ele><time>2026-04-14T14:19:23.194Z</time></trkpt><trkpt lat="45.0949261" lon="7.877486"><ele>415.20000000000005</ele><time>2026-04-14T14:19:24.194Z</time></trkpt><trkpt lat="45.0949485" lon="7.8773326"><ele>413.4</ele><time>2026-04-14T14:19:25.194Z</time></trkpt><trkpt lat="45.0949765" lon="7.8771813"><ele>411.6</ele><time>2026-04-14T14:19:26.193Z</time></trkpt><trkpt lat="45.095006" lon="7.8770323"><ele>409.79999999999995</ele><time>2026-04-14T14:19:27.194Z</time></trkpt><trkpt lat="45.0950328" lon="7.8768853"><ele>408.0</ele><time>2026-04-14T14:19:28.194Z</time></trkpt><trkpt lat="45.0950583" lon="7.8767376"><ele>406.79999999999995</ele><time>2026-04-14T14:19:29.194Z</time></trkpt><trkpt lat="45.0950859" lon="7.8765938"><ele>405.6</ele><time>2026-04-14T14:19:30.194Z</time></trkpt><trkpt lat="45.0951105" lon="7.8764606"><ele>404.4</ele><time>2026-04-14T14:19:31.194Z</time></trkpt><trkpt lat="45.0951315" lon="7.8763472"><ele>403.20000000000005</ele><time>2026-04-14T14:19:32.193Z</time></trkpt><trkpt lat="45.0951542" lon="7.8762555"><ele>402.0</ele><time>2026-04-14T14:19:33.194Z</time></trkpt><trkpt lat="45.0952168" lon="7.8761413"><ele>402.0</ele><time>2026-04-14T14:19:35.194Z</time></trkpt><trkpt lat="45.0953233" lon="7.8761155"><ele>402.0</ele><time>2026-04-14T14:19:37.194Z</time></trkpt><trkpt lat="45.0953891" lon="7.8761085"><ele>402.0</ele><time>2026-04-14T14:19:38.194Z</time></trkpt><trkpt lat="45.0954567" lon="7.8760889"><ele>402.0</ele><time>2026-04-14T14:19:39.193Z</time></trkpt><trkpt lat="45.0955273" lon="7.8760533"><ele>402.0</ele><time>2026-04-14T14:19:40.194Z</time></trkpt><trkpt lat="45.0956026" lon="7.8760104"><ele>402.0</ele><time>2026-04-14T14:19:41.194Z</time></trkpt><trkpt lat="45.0956844" lon="7.8759606"><ele>401.6</ele><time>2026-04-14T14:19:42.193Z</time></trkpt><trkpt lat="45.0957685" lon="7.8758954"><ele>401.20000000000005</ele><time>2026-04-14T14:19:43.194Z</time></trkpt><trkpt lat="45.0958494" lon="7.8758065"><ele>400.8</ele><time>2026-04-14T14:19:44.194Z</time></trkpt><trkpt lat="45.0959205" lon="7.8756954"><ele>400.4</ele><time>2026-04-14T14:19:45.194Z</time></trkpt><trkpt lat="45.0959736" lon="7.875557"><ele>400.0</ele><time>2026-04-14T14:19:46.194Z</time></trkpt><trkpt lat="45.0960121" lon="7.8753982"><ele>400.0</ele><time>2026-04-14T14:19:47.193Z</time></trkpt><trkpt lat="45.0960432" lon="7.8752308"><ele>400.0</ele><time>2026-04-14T14:19:48.193Z</time></trkpt><trkpt lat="45.0960752" lon="7.8750587"><ele>400.0</ele><time>2026-04-14T14:19:49.194Z</time></trkpt><trkpt lat="45.0961124" lon="7.874884"><ele>400.0</ele><time>2026-04-14T14:19:50.194Z</time></trkpt><trkpt lat="45.0961593" lon="7.8747111"><ele>400.0</ele><time>2026-04-14T14:19:51.194Z</time></trkpt><trkpt lat="45.0962244" lon="7.8745472"><ele>400.0</ele><time>2026-04-14T14:19:52.194Z</time></trkpt><trkpt lat="45.0963109" lon="7.8743987"><ele>400.0</ele><time>2026-04-14T14:19:53.194Z</time></trkpt><trkpt lat="45.0964122" lon="7.8742722"><ele>400.0</ele><time>2026-04-14T14:19:54.193Z</time></trkpt><trkpt lat="45.0965184" lon="7.8741626"><ele>394.75</ele><time>2026-04-14T14:19:55.193Z</time></trkpt><trkpt lat="45.0966264" lon="7.8740521"><ele>389.5</ele><time>2026-04-14T14:19:56.194Z</time></trkpt><trkpt lat="45.096734" lon="7.87394"><ele>384.25</ele><time>2026-04-14T14:19:57.195Z</time></trkpt><trkpt lat="45.09684" lon="7.8738264"><ele>379.0</ele><time>2026-04-14T14:19:58.193Z</time></trkpt><trkpt lat="45.0969439" lon="7.8737108"><ele>379.0</ele><time>2026-04-14T14:19:59.194Z</time></trkpt><trkpt lat="45.0970434" lon="7.8735902"><ele>379.0</ele><time>2026-04-14T14:20:00.194Z</time></trkpt><trkpt lat="45.0971401" lon="7.8734628"><ele>379.0</ele><time>2026-04-14T14:20:01.194Z</time></trkpt><trkpt lat="45.0972291" lon="7.8733302"><ele>379.0</ele><time>2026-04-14T14:20:02.195Z</time></trkpt><trkpt lat="45.097311" lon="7.8731906"><ele>379.75</ele><time>2026-04-14T14:20:03.194Z</time></trkpt><trkpt lat="45.0973906" lon="7.8730483"><ele>380.5</ele><time>2026-04-14T14:20:04.194Z</time></trkpt><trkpt lat="45.0974705" lon="7.8729024"><ele>381.25</ele><time>2026-04-14T14:20:05.194Z</time></trkpt><trkpt lat="45.0975531" lon="7.8727573"><ele>382.0</ele><time>2026-04-14T14:20:06.194Z</time></trkpt><trkpt lat="45.0976381" lon="7.8726146"><ele>379.75</ele><time>2026-04-14T14:20:07.193Z</time></trkpt><trkpt lat="45.0977218" lon="7.8724738"><ele>377.5</ele><time>2026-04-14T14:20:08.195Z</time></trkpt><trkpt lat="45.097802" lon="7.8723311"><ele>375.25</ele><time>2026-04-14T14:20:09.194Z</time></trkpt><trkpt lat="45.0978845" lon="7.8721919"><ele>373.0</ele><time>2026-04-14T14:20:10.193Z</time></trkpt><trkpt lat="45.0979721" lon="7.8720581"><ele>373.0</ele><time>2026-04-14T14:20:11.195Z</time></trkpt><trkpt lat="45.0980664" lon="7.8719392"><ele>373.0</ele><time>2026-04-14T14:20:12.195Z</time></trkpt><trkpt lat="45.0981691" lon="7.8718472"><ele>373.0</ele><time>2026-04-14T14:20:13.194Z</time></trkpt><trkpt lat="45.0982733" lon="7.8717714"><ele>373.0</ele><time>2026-04-14T14:20:14.194Z</time></trkpt><trkpt lat="45.098372" lon="7.871697"><ele>371.79999999999995</ele><time>2026-04-14T14:20:15.193Z</time></trkpt><trkpt lat="45.0984686" lon="7.8716243"><ele>370.6</ele><time>2026-04-14T14:20:16.194Z</time></trkpt><trkpt lat="45.0985614" lon="7.8715631"><ele>369.4</ele><time>2026-04-14T14:20:17.195Z</time></trkpt><trkpt lat="45.0986585" lon="7.8715357"><ele>368.20000000000005</ele><time>2026-04-14T14:20:18.194Z</time></trkpt><trkpt lat="45.0987597" lon="7.871542"><ele>367.0</ele><time>2026-04-14T14:20:19.194Z</time></trkpt><trkpt lat="45.0988575" lon="7.8715966"><ele>367.0</ele><time>2026-04-14T14:20:20.194Z</time></trkpt><trkpt lat="45.0989498" lon="7.8716791"><ele>367.0</ele><time>2026-04-14T14:20:21.193Z</time></trkpt><trkpt lat="45.0990412" lon="7.8717616"><ele>367.0</ele><time>2026-04-14T14:20:22.194Z</time></trkpt><trkpt lat="45.0991327" lon="7.871832"><ele>367.0</ele><time>2026-04-14T14:20:23.193Z</time></trkpt><trkpt lat="45.0992268" lon="7.8718953"><ele>367.0</ele><time>2026-04-14T14:20:24.194Z</time></trkpt><trkpt lat="45.0993232" lon="7.8719516"><ele>364.20000000000005</ele><time>2026-04-14T14:20:25.193Z</time></trkpt><trkpt lat="45.0994229" lon="7.8719897"><ele>361.4</ele><time>2026-04-14T14:20:26.194Z</time></trkpt><trkpt lat="45.0995245" lon="7.872014"><ele>358.6</ele><time>2026-04-14T14:20:27.194Z</time></trkpt><trkpt lat="45.0996262" lon="7.87204"><ele>355.79999999999995</ele><time>2026-04-14T14:20:28.193Z</time></trkpt><trkpt lat="45.0997251" lon="7.8720711"><ele>353.0</ele><time>2026-04-14T14:20:29.194Z</time></trkpt><trkpt lat="45.0998192" lon="7.8721164"><ele>353.0</ele><time>2026-04-14T14:20:30.195Z</time></trkpt><trkpt lat="45.0999036" lon="7.8721819"><ele>353.0</ele><time>2026-04-14T14:20:31.194Z</time></trkpt><trkpt lat="45.0999763" lon="7.8722672"><ele>353.0</ele><time>2026-04-14T14:20:32.196Z</time></trkpt><trkpt lat="45.1000351" lon="7.872369"><ele>353.0</ele><time>2026-04-14T14:20:33.194Z</time></trkpt><trkpt lat="45.1000788" lon="7.8724854"><ele>353.0</ele><time>2026-04-14T14:20:34.194Z</time></trkpt><trkpt lat="45.1001043" lon="7.8726069"><ele>353.1666666666667</ele><time>2026-04-14T14:20:35.194Z</time></trkpt><trkpt lat="45.1001139" lon="7.8727287"><ele>353.33333333333337</ele><time>2026-04-14T14:20:36.194Z</time></trkpt><trkpt lat="45.1001117" lon="7.8728458"><ele>353.5</ele><time>2026-04-14T14:20:37.195Z</time></trkpt><trkpt lat="45.1000974" lon="7.8729594"><ele>353.6666666666667</ele><time>2026-04-14T14:20:38.194Z</time></trkpt><trkpt lat="45.1000677" lon="7.8730622"><ele>353.8333333333333</ele><time>2026-04-14T14:20:39.194Z</time></trkpt><trkpt lat="45.1000325" lon="7.8731572"><ele>354.0</ele><time>2026-04-14T14:20:40.193Z</time></trkpt><trkpt lat="45.1000008" lon="7.8732508"><ele>354.0</ele><time>2026-04-14T14:20:41.193Z</time></trkpt><trkpt lat="45.0999817" lon="7.8733475"><ele>354.0</ele><time>2026-04-14T14:20:42.194Z</time></trkpt><trkpt lat="45.0999828" lon="7.8734524"><ele>354.0</ele><time>2026-04-14T14:20:43.193Z</time></trkpt><trkpt lat="45.0999979" lon="7.8735596"><ele>354.0</ele><time>2026-04-14T14:20:44.195Z</time></trkpt><trkpt lat="45.1000291" lon="7.8736656"><ele>354.0</ele><time>2026-04-14T14:20:45.195Z</time></trkpt><trkpt lat="45.1000799" lon="7.8737651"><ele>354.0</ele><time>2026-04-14T14:20:46.194Z</time></trkpt><trkpt lat="45.1001429" lon="7.8738511"><ele>352.0</ele><time>2026-04-14T14:20:47.195Z</time></trkpt><trkpt lat="45.1002155" lon="7.8739287"><ele>350.0</ele><time>2026-04-14T14:20:48.193Z</time></trkpt><trkpt lat="45.1002932" lon="7.8739976"><ele>348.0</ele><time>2026-04-14T14:20:49.194Z</time></trkpt><trkpt lat="45.1003724" lon="7.8740649"><ele>346.0</ele><time>2026-04-14T14:20:50.195Z</time></trkpt><trkpt lat="45.1004526" lon="7.8741276"><ele>344.0</ele><time>2026-04-14T14:20:51.194Z</time></trkpt><trkpt lat="45.1005329" lon="7.8741902"><ele>344.0</ele><time>2026-04-14T14:20:52.193Z</time></trkpt><trkpt lat="45.1006118" lon="7.8742562"><ele>344.0</ele><time>2026-04-14T14:20:53.195Z</time></trkpt><trkpt lat="45.1006872" lon="7.8743278"><ele>344.0</ele><time>2026-04-14T14:20:54.193Z</time></trkpt><trkpt lat="45.1007593" lon="7.8744072"><ele>344.0</ele><time>2026-04-14T14:20:55.195Z</time></trkpt><trkpt lat="45.1008293" lon="7.8744975"><ele>344.0</ele><time>2026-04-14T14:20:56.194Z</time></trkpt><trkpt lat="45.1008976" lon="7.8745885"><ele>344.0</ele><time>2026-04-14T14:20:57.195Z</time></trkpt><trkpt lat="45.1009684" lon="7.8746724"><ele>344.0</ele><time>2026-04-14T14:20:58.194Z</time></trkpt><trkpt lat="45.1010405" lon="7.8747521"><ele>344.0</ele><time>2026-04-14T14:20:59.193Z</time></trkpt><trkpt lat="45.101114" lon="7.8748324"><ele>344.0</ele><time>2026-04-14T14:21:00.194Z</time></trkpt><trkpt lat="45.1011887" lon="7.8749168"><ele>344.0</ele><time>2026-04-14T14:21:01.193Z</time></trkpt><trkpt lat="45.1012649" lon="7.8750051"><ele>344.0</ele><time>2026-04-14T14:21:02.195Z</time></trkpt><trkpt lat="45.1013374" lon="7.8750966"><ele>344.0</ele><time>2026-04-14T14:21:03.196Z</time></trkpt><trkpt lat="45.1014075" lon="7.8751889"><ele>344.0</ele><time>2026-04-14T14:21:04.194Z</time></trkpt><trkpt lat="45.1014809" lon="7.8752793"><ele>344.0</ele><time>2026-04-14T14:21:05.194Z</time></trkpt><trkpt lat="45.1015559" lon="7.8753679"><ele>344.0</ele><time>2026-04-14T14:21:06.194Z</time></trkpt><trkpt lat="45.1016313" lon="7.8754583"><ele>342.79999999999995</ele><time>2026-04-14T14:21:07.195Z</time></trkpt><trkpt lat="45.1017068" lon="7.875554"><ele>341.59999999999997</ele><time>2026-04-14T14:21:08.196Z</time></trkpt><trkpt lat="45.101783" lon="7.8756493"><ele>340.4</ele><time>2026-04-14T14:21:09.194Z</time></trkpt><trkpt lat="45.1018582" lon="7.8757462"><ele>339.2</ele><time>2026-04-14T14:21:10.194Z</time></trkpt><trkpt lat="45.1019306" lon="7.875843"><ele>338.0</ele><time>2026-04-14T14:21:11.195Z</time></trkpt><trkpt lat="45.1020053" lon="7.8759382"><ele>336.59999999999997</ele><time>2026-04-14T14:21:12.194Z</time></trkpt><trkpt lat="45.1020832" lon="7.8760271"><ele>335.2</ele><time>2026-04-14T14:21:13.193Z</time></trkpt><trkpt lat="45.1021661" lon="7.8761079"><ele>333.8</ele><time>2026-04-14T14:21:14.193Z</time></trkpt><trkpt lat="45.1022583" lon="7.8761671"><ele>332.4</ele><time>2026-04-14T14:21:15.194Z</time></trkpt><trkpt lat="45.1023569" lon="7.8761946"><ele>331.0</ele><time>2026-04-14T14:21:16.193Z</time></trkpt><trkpt lat="45.1024602" lon="7.8761885"><ele>331.0</ele><time>2026-04-14T14:21:17.194Z</time></trkpt><trkpt lat="45.1025642" lon="7.8761631"><ele>331.0</ele><time>2026-04-14T14:21:18.194Z</time></trkpt><trkpt lat="45.102668" lon="7.8761309"><ele>331.0</ele><time>2026-04-14T14:21:19.194Z</time></trkpt><trkpt lat="45.1027729" lon="7.876098"><ele>331.0</ele><time>2026-04-14T14:21:20.194Z</time></trkpt><trkpt lat="45.1028809" lon="7.8760765"><ele>331.0</ele><time>2026-04-14T14:21:21.194Z</time></trkpt><trkpt lat="45.102988" lon="7.8760914"><ele>331.0</ele><time>2026-04-14T14:21:22.193Z</time></trkpt><trkpt lat="45.103084" lon="7.8761518"><ele>331.0</ele><time>2026-04-14T14:21:23.192Z</time></trkpt><trkpt lat="45.1031591" lon="7.8762487"><ele>331.0</ele><time>2026-04-14T14:21:24.193Z</time></trkpt><trkpt lat="45.1032064" lon="7.8763688"><ele>331.0</ele><time>2026-04-14T14:21:25.193Z</time></trkpt><trkpt lat="45.1032351" lon="7.8765054"><ele>331.0</ele><time>2026-04-14T14:21:26.195Z</time></trkpt><trkpt lat="45.1032602" lon="7.8766377"><ele>330.8333333333333</ele><time>2026-04-14T14:21:27.193Z</time></trkpt><trkpt lat="45.1032805" lon="7.8767636"><ele>330.66666666666663</ele><time>2026-04-14T14:21:28.194Z</time></trkpt><trkpt lat="45.1033059" lon="7.8768852"><ele>330.5</ele><time>2026-04-14T14:21:29.193Z</time></trkpt><trkpt lat="45.1033391" lon="7.8769998"><ele>330.3333333333333</ele><time>2026-04-14T14:21:30.193Z</time></trkpt><trkpt lat="45.1033811" lon="7.8771056"><ele>330.1666666666667</ele><time>2026-04-14T14:21:31.193Z</time></trkpt><trkpt lat="45.1034332" lon="7.877204"><ele>330.0</ele><time>2026-04-14T14:21:32.194Z</time></trkpt><trkpt lat="45.1034905" lon="7.877293"><ele>330.0</ele><time>2026-04-14T14:21:33.192Z</time></trkpt><trkpt lat="45.103552" lon="7.8773747"><ele>330.0</ele><time>2026-04-14T14:21:34.195Z</time></trkpt><trkpt lat="45.1036127" lon="7.8774514"><ele>330.0</ele><time>2026-04-14T14:21:35.195Z</time></trkpt><trkpt lat="45.1036704" lon="7.8775267"><ele>330.0</ele><time>2026-04-14T14:21:36.193Z</time></trkpt><trkpt lat="45.1037283" lon="7.8776036"><ele>330.0</ele><time>2026-04-14T14:21:37.193Z</time></trkpt><trkpt lat="45.1037852" lon="7.8776803"><ele>330.0</ele><time>2026-04-14T14:21:38.194Z</time></trkpt><trkpt lat="45.1038406" lon="7.8777567"><ele>329.3333333333333</ele><time>2026-04-14T14:21:39.196Z</time></trkpt><trkpt lat="45.1038967" lon="7.8778345"><ele>328.6666666666667</ele><time>2026-04-14T14:21:40.193Z</time></trkpt><trkpt lat="45.103956" lon="7.8779116"><ele>328.0</ele><time>2026-04-14T14:21:41.194Z</time></trkpt><trkpt lat="45.1040151" lon="7.8779852"><ele>327.33333333333337</ele><time>2026-04-14T14:21:42.192Z</time></trkpt><trkpt lat="45.1040766" lon="7.8780551"><ele>326.6666666666667</ele><time>2026-04-14T14:21:43.194Z</time></trkpt><trkpt lat="45.1041427" lon="7.8781156"><ele>326.0</ele><time>2026-04-14T14:21:44.194Z</time></trkpt><trkpt lat="45.1042139" lon="7.8781637"><ele>326.0</ele><time>2026-04-14T14:21:45.193Z</time></trkpt><trkpt lat="45.1042889" lon="7.8782016"><ele>326.0</ele><time>2026-04-14T14:21:46.194Z</time></trkpt><trkpt lat="45.1043659" lon="7.8782308"><ele>326.0</ele><time>2026-04-14T14:21:47.194Z</time></trkpt><trkpt lat="45.1044429" lon="7.878255"><ele>326.0</ele><time>2026-04-14T14:21:48.192Z</time></trkpt><trkpt lat="45.1045196" lon="7.8782774"><ele>326.0</ele><time>2026-04-14T14:21:49.193Z</time></trkpt><trkpt lat="45.104595" lon="7.8782995"><ele>326.0</ele><time>2026-04-14T14:21:50.193Z</time></trkpt><trkpt lat="45.1046742" lon="7.8783222"><ele>326.0</ele><time>2026-04-14T14:21:51.193Z</time></trkpt><trkpt lat="45.104752" lon="7.8783479"><ele>326.0</ele><time>2026-04-14T14:21:52.193Z</time></trkpt><trkpt lat="45.1048354" lon="7.8783754"><ele>326.0</ele><time>2026-04-14T14:21:53.194Z</time></trkpt><trkpt lat="45.1049179" lon="7.8784031"><ele>326.0</ele><time>2026-04-14T14:21:54.194Z</time></trkpt><trkpt lat="45.105003" lon="7.8784312"><ele>326.0</ele><time>2026-04-14T14:21:55.196Z</time></trkpt><trkpt lat="45.1050897" lon="7.8784597"><ele>326.0</ele><time>2026-04-14T14:21:56.194Z</time></trkpt><trkpt lat="45.1051807" lon="7.8784815"><ele>326.4</ele><time>2026-04-14T14:21:57.193Z</time></trkpt><trkpt lat="45.1052768" lon="7.8784898"><ele>326.8</ele><time>2026-04-14T14:21:58.194Z</time></trkpt><trkpt lat="45.1053797" lon="7.8784799"><ele>327.2</ele><time>2026-04-14T14:21:59.194Z</time></trkpt><trkpt lat="45.1054848" lon="7.8784524"><ele>327.59999999999997</ele><time>2026-04-14T14:22:00.195Z</time></trkpt><trkpt lat="45.10559" lon="7.8784134"><ele>328.0</ele><time>2026-04-14T14:22:01.194Z</time></trkpt><trkpt lat="45.1056965" lon="7.8783716"><ele>328.0</ele><time>2026-04-14T14:22:02.195Z</time></trkpt><trkpt lat="45.1058022" lon="7.8783279"><ele>328.0</ele><time>2026-04-14T14:22:03.194Z</time></trkpt><trkpt lat="45.1059078" lon="7.8782868"><ele>328.0</ele><time>2026-04-14T14:22:04.194Z</time></trkpt><trkpt lat="45.1060174" lon="7.8782618"><ele>328.0</ele><time>2026-04-14T14:22:05.194Z</time></trkpt><trkpt lat="45.1061294" lon="7.8782591"><ele>328.0</ele><time>2026-04-14T14:22:06.194Z</time></trkpt><trkpt lat="45.1062415" lon="7.8782866"><ele>328.0</ele><time>2026-04-14T14:22:07.194Z</time></trkpt><trkpt lat="45.1063516" lon="7.8783408"><ele>328.0</ele><time>2026-04-14T14:22:08.194Z</time></trkpt><trkpt lat="45.1064589" lon="7.8783951"><ele>328.0</ele><time>2026-04-14T14:22:09.192Z</time></trkpt><trkpt lat="45.1065711" lon="7.8784258"><ele>328.0</ele><time>2026-04-14T14:22:10.193Z</time></trkpt><trkpt lat="45.1066874" lon="7.8784254"><ele>328.4</ele><time>2026-04-14T14:22:11.193Z</time></trkpt><trkpt lat="45.1067983" lon="7.8784094"><ele>328.79999999999995</ele><time>2026-04-14T14:22:12.192Z</time></trkpt><trkpt lat="45.1068911" lon="7.8784051"><ele>329.2</ele><time>2026-04-14T14:22:13.194Z</time></trkpt><trkpt lat="45.1069715" lon="7.8784136"><ele>329.6</ele><time>2026-04-14T14:22:14.194Z</time></trkpt><trkpt lat="45.1070538" lon="7.8785262"><ele>330.0</ele><time>2026-04-14T14:22:16.194Z</time></trkpt><trkpt lat="45.107045" lon="7.8786146"><ele>327.2</ele><time>2026-04-14T14:22:17.193Z</time></trkpt><trkpt lat="45.1069433" lon="7.878738"><ele>324.4</ele><time>2026-04-14T14:22:19.192Z</time></trkpt><trkpt lat="45.1068506" lon="7.8787552"><ele>321.6</ele><time>2026-04-14T14:22:20.194Z</time></trkpt><trkpt lat="45.1067597" lon="7.8787622"><ele>318.8</ele><time>2026-04-14T14:22:21.193Z</time></trkpt><trkpt lat="45.1066656" lon="7.8787702"><ele>316.0</ele><time>2026-04-14T14:22:22.193Z</time></trkpt><trkpt lat="45.106574" lon="7.8788029"><ele>316.0</ele><time>2026-04-14T14:22:23.192Z</time></trkpt><trkpt lat="45.1064992" lon="7.8788662"><ele>316.0</ele><time>2026-04-14T14:22:24.194Z</time></trkpt><trkpt lat="45.1064509" lon="7.8789511"><ele>316.0</ele><time>2026-04-14T14:22:25.194Z</time></trkpt><trkpt lat="45.1064701" lon="7.8790429"><ele>316.0</ele><time>2026-04-14T14:22:26.195Z</time></trkpt><trkpt lat="45.1065152" lon="7.8791218"><ele>316.0</ele><time>2026-04-14T14:22:27.193Z</time></trkpt><trkpt lat="45.1065847" lon="7.8791619"><ele>316.0</ele><time>2026-04-14T14:22:28.194Z</time></trkpt><trkpt lat="45.1066828" lon="7.879114"><ele>315.0</ele><time>2026-04-14T14:22:29.193Z</time></trkpt><trkpt lat="45.106771" lon="7.8790372"><ele>314.0</ele><time>2026-04-14T14:22:30.193Z</time></trkpt><trkpt lat="45.1068538" lon="7.8789589"><ele>313.0</ele><time>2026-04-14T14:22:31.194Z</time></trkpt><trkpt lat="45.1069378" lon="7.8788943"><ele>312.0</ele><time>2026-04-14T14:22:32.194Z</time></trkpt><trkpt lat="45.1070293" lon="7.8788554"><ele>311.0</ele><time>2026-04-14T14:22:33.194Z</time></trkpt><trkpt lat="45.1071267" lon="7.8788405"><ele>311.0</ele><time>2026-04-14T14:22:34.193Z</time></trkpt><trkpt lat="45.1072261" lon="7.8788503"><ele>311.0</ele><time>2026-04-14T14:22:35.193Z</time></trkpt><trkpt lat="45.1073213" lon="7.8788949"><ele>311.0</ele><time>2026-04-14T14:22:36.195Z</time></trkpt><trkpt lat="45.1074063" lon="7.8789744"><ele>311.0</ele><time>2026-04-14T14:22:37.194Z</time></trkpt><trkpt lat="45.1074819" lon="7.8790754"><ele>311.0</ele><time>2026-04-14T14:22:38.194Z</time></trkpt><trkpt lat="45.1075597" lon="7.8791801"><ele>307.6</ele><time>2026-04-14T14:22:39.194Z</time></trkpt><trkpt lat="45.1076435" lon="7.8792758"><ele>304.20000000000005</ele><time>2026-04-14T14:22:40.193Z</time></trkpt><trkpt lat="45.1077389" lon="7.8793481"><ele>300.79999999999995</ele><time>2026-04-14T14:22:41.194Z</time></trkpt><trkpt lat="45.1078474" lon="7.8793949"><ele>297.4</ele><time>2026-04-14T14:22:42.194Z</time></trkpt><trkpt lat="45.1079629" lon="7.8794104"><ele>294.0</ele><time>2026-04-14T14:22:43.194Z</time></trkpt><trkpt lat="45.1080796" lon="7.8794045"><ele>294.0</ele><time>2026-04-14T14:22:44.194Z</time></trkpt><trkpt lat="45.1081943" lon="7.8793802"><ele>294.0</ele><time>2026-04-14T14:22:45.194Z</time></trkpt><trkpt lat="45.1083083" lon="7.8793534"><ele>294.0</ele><time>2026-04-14T14:22:46.194Z</time></trkpt><trkpt lat="45.1084232" lon="7.8793187"><ele>294.0</ele><time>2026-04-14T14:22:47.194Z</time></trkpt><trkpt lat="45.1085357" lon="7.8792672"><ele>295.5</ele><time>2026-04-14T14:22:48.196Z</time></trkpt><trkpt lat="45.1086386" lon="7.8791847"><ele>297.0</ele><time>2026-04-14T14:22:49.196Z</time></trkpt><trkpt lat="45.1087321" lon="7.8790705"><ele>298.5</ele><time>2026-04-14T14:22:50.196Z</time></trkpt><trkpt lat="45.108823" lon="7.8789488"><ele>300.0</ele><time>2026-04-14T14:22:51.194Z</time></trkpt><trkpt lat="45.1089226" lon="7.8788371"><ele>300.0</ele><time>2026-04-14T14:22:52.196Z</time></trkpt><trkpt lat="45.1090254" lon="7.878734"><ele>300.0</ele><time>2026-04-14T14:22:53.195Z</time></trkpt><trkpt lat="45.1091177" lon="7.8786238"><ele>300.0</ele><time>2026-04-14T14:22:54.195Z</time></trkpt><trkpt lat="45.1091878" lon="7.8784924"><ele>300.0</ele><time>2026-04-14T14:22:55.195Z</time></trkpt><trkpt lat="45.1092291" lon="7.8783369"><ele>297.5</ele><time>2026-04-14T14:22:56.194Z</time></trkpt><trkpt lat="45.1092461" lon="7.8781622"><ele>295.0</ele><time>2026-04-14T14:22:57.193Z</time></trkpt><trkpt lat="45.1092613" lon="7.8779795"><ele>292.5</ele><time>2026-04-14T14:22:58.193Z</time></trkpt><trkpt lat="45.1092888" lon="7.8777986"><ele>290.0</ele><time>2026-04-14T14:22:59.195Z</time></trkpt><trkpt lat="45.1093366" lon="7.8776245"><ele>289.5</ele><time>2026-04-14T14:23:00.194Z</time></trkpt><trkpt lat="45.1094118" lon="7.8774658"><ele>289.0</ele><time>2026-04-14T14:23:01.194Z</time></trkpt><trkpt lat="45.109511" lon="7.8773312"><ele>288.5</ele><time>2026-04-14T14:23:02.193Z</time></trkpt><trkpt lat="45.1096206" lon="7.8772033"><ele>288.0</ele><time>2026-04-14T14:23:03.193Z</time></trkpt><trkpt lat="45.109724" lon="7.8770631"><ele>288.0</ele><time>2026-04-14T14:23:04.194Z</time></trkpt><trkpt lat="45.1098193" lon="7.8769124"><ele>288.0</ele><time>2026-04-14T14:23:05.193Z</time></trkpt><trkpt lat="45.10991" lon="7.8767544"><ele>288.0</ele><time>2026-04-14T14:23:06.194Z</time></trkpt><trkpt lat="45.1099983" lon="7.8765925"><ele>288.0</ele><time>2026-04-14T14:23:07.194Z</time></trkpt><trkpt lat="45.1100879" lon="7.8764328"><ele>284.0</ele><time>2026-04-14T14:23:08.195Z</time></trkpt><trkpt lat="45.1101849" lon="7.8762773"><ele>280.0</ele><time>2026-04-14T14:23:09.194Z</time></trkpt><trkpt lat="45.1102909" lon="7.8761328"><ele>276.0</ele><time>2026-04-14T14:23:10.194Z</time></trkpt><trkpt lat="45.1104044" lon="7.8760004"><ele>272.0</ele><time>2026-04-14T14:23:11.194Z</time></trkpt><trkpt lat="45.1105256" lon="7.8758772"><ele>272.0</ele><time>2026-04-14T14:23:12.194Z</time></trkpt><trkpt lat="45.1106467" lon="7.8757495"><ele>272.0</ele><time>2026-04-14T14:23:13.195Z</time></trkpt><trkpt lat="45.1107659" lon="7.8756156"><ele>272.0</ele><time>2026-04-14T14:23:14.194Z</time></trkpt><trkpt lat="45.110886" lon="7.875482"><ele>270.33333333333337</ele><time>2026-04-14T14:23:15.193Z</time></trkpt><trkpt lat="45.1110105" lon="7.8753558"><ele>268.6666666666667</ele><time>2026-04-14T14:23:16.194Z</time></trkpt><trkpt lat="45.1111386" lon="7.8752391"><ele>267.0</ele><time>2026-04-14T14:23:17.193Z</time></trkpt><trkpt lat="45.1112705" lon="7.8751306"><ele>265.0</ele><time>2026-04-14T14:23:18.195Z</time></trkpt><trkpt lat="45.1114041" lon="7.8750276"><ele>263.0</ele><time>2026-04-14T14:23:19.197Z</time></trkpt><trkpt lat="45.1115377" lon="7.8749279"><ele>261.0</ele><time>2026-04-14T14:23:20.195Z</time></trkpt><trkpt lat="45.1116713" lon="7.8748269"><ele>261.0</ele><time>2026-04-14T14:23:21.196Z</time></trkpt><trkpt lat="45.1118031" lon="7.8747211"><ele>261.0</ele><time>2026-04-14T14:23:22.196Z</time></trkpt><trkpt lat="45.1119306" lon="7.8746073"><ele>261.0</ele><time>2026-04-14T14:23:23.196Z</time></trkpt><trkpt lat="45.1120525" lon="7.8744814"><ele>261.0</ele><time>2026-04-14T14:23:24.194Z</time></trkpt><trkpt lat="45.1121621" lon="7.8743338"><ele>261.0</ele><time>2026-04-14T14:23:25.195Z</time></trkpt><trkpt lat="45.1122571" lon="7.8741621"><ele>261.0</ele><time>2026-04-14T14:23:26.193Z</time></trkpt><trkpt lat="45.11234" lon="7.8739733"><ele>259.6666666666667</ele><time>2026-04-14T14:23:27.194Z</time></trkpt><trkpt lat="45.1124059" lon="7.873768"><ele>258.33333333333337</ele><time>2026-04-14T14:23:28.193Z</time></trkpt><trkpt lat="45.1124546" lon="7.8735519"><ele>257.0</ele><time>2026-04-14T14:23:29.193Z</time></trkpt><trkpt lat="45.112492" lon="7.8733349"><ele>255.25</ele><time>2026-04-14T14:23:30.196Z</time></trkpt><trkpt lat="45.1125273" lon="7.8731253"><ele>253.5</ele><time>2026-04-14T14:23:31.193Z</time></trkpt><trkpt lat="45.1125619" lon="7.872923"><ele>251.75</ele><time>2026-04-14T14:23:32.196Z</time></trkpt><trkpt lat="45.112595" lon="7.872729"><ele>250.0</ele><time>2026-04-14T14:23:33.194Z</time></trkpt><trkpt lat="45.112627" lon="7.8725409"><ele>250.0</ele><time>2026-04-14T14:23:34.194Z</time></trkpt><trkpt lat="45.1126558" lon="7.8723579"><ele>250.0</ele><time>2026-04-14T14:23:35.194Z</time></trkpt><trkpt lat="45.1126851" lon="7.8721814"><ele>250.0</ele><time>2026-04-14T14:23:36.195Z</time></trkpt><trkpt lat="45.1127123" lon="7.8720129"><ele>250.0</ele><time>2026-04-14T14:23:37.193Z</time></trkpt><trkpt lat="45.1127417" lon="7.8718483"><ele>249.75</ele><time>2026-04-14T14:23:38.194Z</time></trkpt><trkpt lat="45.1127676" lon="7.8716881"><ele>249.5</ele><time>2026-04-14T14:23:39.194Z</time></trkpt><trkpt lat="45.1127919" lon="7.8715314"><ele>249.25</ele><time>2026-04-14T14:23:40.193Z</time></trkpt><trkpt lat="45.1128166" lon="7.8713753"><ele>249.0</ele><time>2026-04-14T14:23:41.193Z</time></trkpt><trkpt lat="45.1128416" lon="7.8712206"><ele>249.0</ele><time>2026-04-14T14:23:42.193Z</time></trkpt><trkpt lat="45.112865" lon="7.8710689"><ele>248.99999999999997</ele><time>2026-04-14T14:23:43.194Z</time></trkpt><trkpt lat="45.1128883" lon="7.8709166"><ele>248.99999999999997</ele><time>2026-04-14T14:23:44.194Z</time></trkpt><trkpt lat="45.1129119" lon="7.8707664"><ele>249.0</ele><time>2026-04-14T14:23:45.193Z</time></trkpt><trkpt lat="45.1129351" lon="7.8706181"><ele>249.0</ele><time>2026-04-14T14:23:46.193Z</time></trkpt><trkpt lat="45.1129578" lon="7.8704727"><ele>248.79999999999998</ele><time>2026-04-14T14:23:47.193Z</time></trkpt><trkpt lat="45.1129799" lon="7.8703295"><ele>248.59999999999997</ele><time>2026-04-14T14:23:48.193Z</time></trkpt><trkpt lat="45.113003" lon="7.8701903"><ele>248.4</ele><time>2026-04-14T14:23:49.194Z</time></trkpt><trkpt lat="45.1130271" lon="7.8700494"><ele>248.2</ele><time>2026-04-14T14:23:50.194Z</time></trkpt><trkpt lat="45.1130494" lon="7.8699105"><ele>248.0</ele><time>2026-04-14T14:23:51.195Z</time></trkpt><trkpt lat="45.1130726" lon="7.8697724"><ele>247.8</ele><time>2026-04-14T14:23:52.194Z</time></trkpt><trkpt lat="45.113099" lon="7.8696373"><ele>247.60000000000002</ele><time>2026-04-14T14:23:53.195Z</time></trkpt><trkpt lat="45.1131273" lon="7.869507"><ele>247.39999999999998</ele><time>2026-04-14T14:23:54.193Z</time></trkpt><trkpt lat="45.1131592" lon="7.8693832"><ele>247.2</ele><time>2026-04-14T14:23:55.196Z</time></trkpt><trkpt lat="45.1131974" lon="7.8692665"><ele>247.0</ele><time>2026-04-14T14:23:56.203Z</time></trkpt><trkpt lat="45.1132376" lon="7.8691568"><ele>246.16666666666666</ele><time>2026-04-14T14:23:57.193Z</time></trkpt><trkpt lat="45.1132822" lon="7.8690531"><ele>245.33333333333331</ele><time>2026-04-14T14:23:58.195Z</time></trkpt><trkpt lat="45.1133238" lon="7.8689509"><ele>244.5</ele><time>2026-04-14T14:23:59.193Z</time></trkpt><trkpt lat="45.1133621" lon="7.8688521"><ele>243.66666666666669</ele><time>2026-04-14T14:24:00.193Z</time></trkpt><trkpt lat="45.1134002" lon="7.8687584"><ele>242.83333333333334</ele><time>2026-04-14T14:24:01.194Z</time></trkpt><trkpt lat="45.11344" lon="7.8686687"><ele>242.0</ele><time>2026-04-14T14:24:02.194Z</time></trkpt><trkpt lat="45.1134828" lon="7.8685807"><ele>242.0</ele><time>2026-04-14T14:24:03.194Z</time></trkpt><trkpt lat="45.1135248" lon="7.8684939"><ele>241.99999999999997</ele><time>2026-04-14T14:24:04.193Z</time></trkpt><trkpt lat="45.1135666" lon="7.8684088"><ele>242.0</ele><time>2026-04-14T14:24:05.195Z</time></trkpt><trkpt lat="45.1136082" lon="7.8683241"><ele>242.0</ele><time>2026-04-14T14:24:06.195Z</time></trkpt><trkpt lat="45.1136512" lon="7.8682406"><ele>241.99999999999997</ele><time>2026-04-14T14:24:07.194Z</time></trkpt><trkpt lat="45.1136961" lon="7.8681564"><ele>242.0</ele><time>2026-04-14T14:24:08.196Z</time></trkpt><trkpt lat="45.1137425" lon="7.8680729"><ele>242.0</ele><time>2026-04-14T14:24:09.194Z</time></trkpt><trkpt lat="45.1137895" lon="7.8679881"><ele>242.00000000000003</ele><time>2026-04-14T14:24:10.193Z</time></trkpt><trkpt lat="45.1138391" lon="7.8679031"><ele>242.0</ele><time>2026-04-14T14:24:11.194Z</time></trkpt><trkpt lat="45.1138882" lon="7.8678181"><ele>242.0</ele><time>2026-04-14T14:24:12.196Z</time></trkpt><trkpt lat="45.1139353" lon="7.8677327"><ele>242.0</ele><time>2026-04-14T14:24:13.194Z</time></trkpt><trkpt lat="45.1139816" lon="7.8676448"><ele>242.00000000000003</ele><time>2026-04-14T14:24:14.194Z</time></trkpt><trkpt lat="45.1140269" lon="7.8675538"><ele>242.0</ele><time>2026-04-14T14:24:15.193Z</time></trkpt><trkpt lat="45.114073" lon="7.8674607"><ele>241.50000000000003</ele><time>2026-04-14T14:24:16.194Z</time></trkpt><trkpt lat="45.1141211" lon="7.8673695"><ele>241.0</ele><time>2026-04-14T14:24:17.196Z</time></trkpt><trkpt lat="45.1141708" lon="7.867281"><ele>240.5</ele><time>2026-04-14T14:24:18.196Z</time></trkpt><trkpt lat="45.1142209" lon="7.8671925"><ele>240.0</ele><time>2026-04-14T14:24:19.196Z</time></trkpt><trkpt lat="45.114271" lon="7.8671041"><ele>239.50000000000003</ele><time>2026-04-14T14:24:20.197Z</time></trkpt><trkpt lat="45.1143197" lon="7.8670143"><ele>239.0</ele><time>2026-04-14T14:24:21.196Z</time></trkpt><trkpt lat="45.1143678" lon="7.8669241"><ele>239.00000000000003</ele><time>2026-04-14T14:24:22.196Z</time></trkpt><trkpt lat="45.114415" lon="7.8668341"><ele>239.0</ele><time>2026-04-14T14:24:23.195Z</time></trkpt><trkpt lat="45.1144629" lon="7.8667455"><ele>239.0</ele><time>2026-04-14T14:24:24.195Z</time></trkpt><trkpt lat="45.1145082" lon="7.8666575"><ele>239.0</ele><time>2026-04-14T14:24:25.195Z</time></trkpt><trkpt lat="45.114553" lon="7.8665724"><ele>239.00000000000003</ele><time>2026-04-14T14:24:26.195Z</time></trkpt><trkpt lat="45.1145965" lon="7.8664877"><ele>239.0</ele><time>2026-04-14T14:24:27.193Z</time></trkpt><trkpt lat="45.1146383" lon="7.8664031"><ele>238.8571428571429</ele><time>2026-04-14T14:24:28.195Z</time></trkpt><trkpt lat="45.1146784" lon="7.8663183"><ele>238.71428571428572</ele><time>2026-04-14T14:24:29.197Z</time></trkpt><trkpt lat="45.1147181" lon="7.8662333"><ele>238.57142857142858</ele><time>2026-04-14T14:24:30.196Z</time></trkpt><trkpt lat="45.114758" lon="7.8661483"><ele>238.42857142857144</ele><time>2026-04-14T14:24:31.196Z</time></trkpt><trkpt lat="45.1147982" lon="7.8660659"><ele>238.28571428571428</ele><time>2026-04-14T14:24:32.195Z</time></trkpt><trkpt lat="45.1148383" lon="7.8659829"><ele>238.14285714285714</ele><time>2026-04-14T14:24:33.194Z</time></trkpt><trkpt lat="45.1148781" lon="7.8659009"><ele>238.0</ele><time>2026-04-14T14:24:34.194Z</time></trkpt><trkpt lat="45.1149176" lon="7.8658219"><ele>238.0</ele><time>2026-04-14T14:24:35.194Z</time></trkpt><trkpt lat="45.114955" lon="7.8657451"><ele>238.0</ele><time>2026-04-14T14:24:36.194Z</time></trkpt><trkpt lat="45.1149928" lon="7.865666"><ele>238.0</ele><time>2026-04-14T14:24:37.195Z</time></trkpt><trkpt lat="45.1150326" lon="7.8655877"><ele>238.0</ele><time>2026-04-14T14:24:38.194Z</time></trkpt><trkpt lat="45.1150715" lon="7.8655108"><ele>238.0</ele><time>2026-04-14T14:24:39.195Z</time></trkpt><trkpt lat="45.1151098" lon="7.8654327"><ele>238.0</ele><time>2026-04-14T14:24:40.194Z</time></trkpt><trkpt lat="45.1151479" lon="7.8653544"><ele>238.0</ele><time>2026-04-14T14:24:41.195Z</time></trkpt><trkpt lat="45.1151862" lon="7.8652772"><ele>238.0</ele><time>2026-04-14T14:24:42.194Z</time></trkpt><trkpt lat="45.1152234" lon="7.8651979"><ele>238.0</ele><time>2026-04-14T14:24:43.193Z</time></trkpt><trkpt lat="45.1152598" lon="7.8651169"><ele>238.0</ele><time>2026-04-14T14:24:44.194Z</time></trkpt><trkpt lat="45.1152963" lon="7.865035"><ele>238.0</ele><time>2026-04-14T14:24:45.194Z</time></trkpt><trkpt lat="45.1153346" lon="7.8649546"><ele>238.0</ele><time>2026-04-14T14:24:46.193Z</time></trkpt><trkpt lat="45.1153732" lon="7.8648746"><ele>238.0</ele><time>2026-04-14T14:24:47.194Z</time></trkpt><trkpt lat="45.1154116" lon="7.8647959"><ele>238.0</ele><time>2026-04-14T14:24:48.195Z</time></trkpt><trkpt lat="45.1154497" lon="7.8647175"><ele>238.42857142857144</ele><time>2026-04-14T14:24:49.195Z</time></trkpt><trkpt lat="45.1154883" lon="7.8646365"><ele>238.85714285714286</ele><time>2026-04-14T14:24:50.196Z</time></trkpt><trkpt lat="45.1155267" lon="7.8645562"><ele>239.28571428571428</ele><time>2026-04-14T14:24:51.197Z</time></trkpt><trkpt lat="45.1155636" lon="7.8644747"><ele>239.71428571428572</ele><time>2026-04-14T14:24:52.197Z</time></trkpt><trkpt lat="45.1156015" lon="7.8643915"><ele>240.14285714285717</ele><time>2026-04-14T14:24:53.197Z</time></trkpt><trkpt lat="45.1156398" lon="7.8643108"><ele>240.57142857142858</ele><time>2026-04-14T14:24:54.195Z</time></trkpt><trkpt lat="45.1156781" lon="7.8642307"><ele>241.0</ele><time>2026-04-14T14:24:55.195Z</time></trkpt><trkpt lat="45.1157165" lon="7.8641495"><ele>240.2857142857143</ele><time>2026-04-14T14:24:56.195Z</time></trkpt><trkpt lat="45.1157562" lon="7.8640691"><ele>239.5714285714286</ele><time>2026-04-14T14:24:57.194Z</time></trkpt><trkpt lat="45.1157952" lon="7.8639905"><ele>238.85714285714286</ele><time>2026-04-14T14:24:58.193Z</time></trkpt><trkpt lat="45.1158347" lon="7.863912"><ele>238.14285714285717</ele><time>2026-04-14T14:24:59.193Z</time></trkpt><trkpt lat="45.1158732" lon="7.8638321"><ele>237.42857142857144</ele><time>2026-04-14T14:25:00.193Z</time></trkpt><trkpt lat="45.1159117" lon="7.8637534"><ele>236.71428571428572</ele><time>2026-04-14T14:25:01.194Z</time></trkpt><trkpt lat="45.1159526" lon="7.8636766"><ele>236.0</ele><time>2026-04-14T14:25:02.194Z</time></trkpt><trkpt lat="45.1159945" lon="7.8636015"><ele>236.0</ele><time>2026-04-14T14:25:03.194Z</time></trkpt><trkpt lat="45.1160363" lon="7.8635229"><ele>236.0</ele><time>2026-04-14T14:25:04.194Z</time></trkpt><trkpt lat="45.1160739" lon="7.8634421"><ele>236.0</ele><time>2026-04-14T14:25:05.194Z</time></trkpt><trkpt lat="45.116112" lon="7.8633619"><ele>236.0</ele><time>2026-04-14T14:25:06.193Z</time></trkpt><trkpt lat="45.116149" lon="7.8632818"><ele>236.0</ele><time>2026-04-14T14:25:07.195Z</time></trkpt><trkpt lat="45.1161881" lon="7.8632017"><ele>236.0</ele><time>2026-04-14T14:25:08.194Z</time></trkpt><trkpt lat="45.1162281" lon="7.8631227"><ele>236.0</ele><time>2026-04-14T14:25:09.197Z</time></trkpt><trkpt lat="45.1162694" lon="7.8630447"><ele>236.14285714285714</ele><time>2026-04-14T14:25:10.195Z</time></trkpt><trkpt lat="45.1163152" lon="7.8629697"><ele>236.28571428571428</ele><time>2026-04-14T14:25:11.194Z</time></trkpt><trkpt lat="45.1163611" lon="7.8628967"><ele>236.42857142857142</ele><time>2026-04-14T14:25:12.193Z</time></trkpt><trkpt lat="45.1164078" lon="7.8628268"><ele>236.57142857142856</ele><time>2026-04-14T14:25:13.194Z</time></trkpt><trkpt lat="45.1164574" lon="7.8627612"><ele>236.71428571428572</ele><time>2026-04-14T14:25:14.195Z</time></trkpt><trkpt lat="45.1165091" lon="7.8626993"><ele>236.85714285714283</ele><time>2026-04-14T14:25:15.196Z</time></trkpt><trkpt lat="45.1165612" lon="7.8626396"><ele>236.99999999999997</ele><time>2026-04-14T14:25:16.195Z</time></trkpt><trkpt lat="45.1166157" lon="7.8625826"><ele>236.71428571428567</ele><time>2026-04-14T14:25:17.195Z</time></trkpt><trkpt lat="45.1166751" lon="7.8625321"><ele>236.42857142857142</ele><time>2026-04-14T14:25:18.197Z</time></trkpt><trkpt lat="45.1167372" lon="7.8624871"><ele>236.1428571428571</ele><time>2026-04-14T14:25:19.196Z</time></trkpt><trkpt lat="45.1168038" lon="7.8624485"><ele>235.85714285714283</ele><time>2026-04-14T14:25:20.198Z</time></trkpt><trkpt lat="45.1168727" lon="7.8624153"><ele>235.57142857142856</ele><time>2026-04-14T14:25:21.197Z</time></trkpt><trkpt lat="45.1169457" lon="7.8623887"><ele>235.28571428571428</ele><time>2026-04-14T14:25:22.197Z</time></trkpt><trkpt lat="45.1170221" lon="7.8623695"><ele>235.0</ele><time>2026-04-14T14:25:23.195Z</time></trkpt><trkpt lat="45.117102" lon="7.8623583"><ele>234.99999999999997</ele><time>2026-04-14T14:25:24.195Z</time></trkpt><trkpt lat="45.1171827" lon="7.8623603"><ele>235.0</ele><time>2026-04-14T14:25:25.195Z</time></trkpt><trkpt lat="45.1172632" lon="7.8623709"><ele>235.0</ele><time>2026-04-14T14:25:26.194Z</time></trkpt><trkpt lat="45.1173464" lon="7.8623819"><ele>235.0</ele><time>2026-04-14T14:25:27.194Z</time></trkpt><trkpt lat="45.11743" lon="7.8623912"><ele>234.99999999999997</ele><time>2026-04-14T14:25:28.194Z</time></trkpt><trkpt lat="45.1175148" lon="7.8623981"><ele>235.0</ele><time>2026-04-14T14:25:29.195Z</time></trkpt><trkpt lat="45.1176012" lon="7.8624031"><ele>234.49999999999997</ele><time>2026-04-14T14:25:30.195Z</time></trkpt><trkpt lat="45.1176893" lon="7.8624118"><ele>234.0</ele><time>2026-04-14T14:25:31.195Z</time></trkpt><trkpt lat="45.1177752" lon="7.8624194"><ele>233.5</ele><time>2026-04-14T14:25:32.195Z</time></trkpt><trkpt lat="45.1178602" lon="7.8624259"><ele>233.0</ele><time>2026-04-14T14:25:33.195Z</time></trkpt><trkpt lat="45.1179424" lon="7.8624313"><ele>232.49999999999997</ele><time>2026-04-14T14:25:34.194Z</time></trkpt><trkpt lat="45.1180238" lon="7.8624362"><ele>232.0</ele><time>2026-04-14T14:25:35.195Z</time></trkpt><trkpt lat="45.1181038" lon="7.8624433"><ele>231.99999999999997</ele><time>2026-04-14T14:25:36.196Z</time></trkpt><trkpt lat="45.1181794" lon="7.8624505"><ele>232.0</ele><time>2026-04-14T14:25:37.195Z</time></trkpt><trkpt lat="45.1182511" lon="7.8624577"><ele>232.0</ele><time>2026-04-14T14:25:38.195Z</time></trkpt><trkpt lat="45.1183205" lon="7.8624617"><ele>232.0</ele><time>2026-04-14T14:25:39.194Z</time></trkpt><trkpt lat="45.1183884" lon="7.862465"><ele>231.99999999999997</ele><time>2026-04-14T14:25:40.195Z</time></trkpt><trkpt lat="45.1184548" lon="7.8624668"><ele>232.0</ele><time>2026-04-14T14:25:41.194Z</time></trkpt><trkpt lat="45.1185739" lon="7.862472"><ele>231.0</ele><time>2026-04-14T14:25:43.194Z</time></trkpt><trkpt lat="45.1186787" lon="7.8624811"><ele>230.0</ele><time>2026-04-14T14:25:45.194Z</time></trkpt><trkpt lat="45.1187815" lon="7.8624877"><ele>229.0</ele><time>2026-04-14T14:25:47.194Z</time></trkpt><trkpt lat="45.1188848" lon="7.862493"><ele>228.0</ele><time>2026-04-14T14:25:49.194Z</time></trkpt><trkpt lat="45.1189897" lon="7.8624953"><ele>227.0</ele><time>2026-04-14T14:25:51.194Z</time></trkpt><trkpt lat="45.1190902" lon="7.8625048"><ele>227.0</ele><time>2026-04-14T14:25:53.193Z</time></trkpt><trkpt lat="45.1191873" lon="7.8625138"><ele>227.0</ele><time>2026-04-14T14:25:55.193Z</time></trkpt><trkpt lat="45.1192836" lon="7.8625135"><ele>227.0</ele><time>2026-04-14T14:25:57.193Z</time></trkpt><trkpt lat="45.1193783" lon="7.8625144"><ele>227.0</ele><time>2026-04-14T14:25:59.193Z</time></trkpt><trkpt lat="45.1194716" lon="7.8625164"><ele>227.0</ele><time>2026-04-14T14:26:01.194Z</time></trkpt><trkpt lat="45.119549" lon="7.8625641"><ele>228.39999999999998</ele><time>2026-04-14T14:26:03.194Z</time></trkpt><trkpt lat="45.1195536" lon="7.8626914"><ele>229.79999999999998</ele><time>2026-04-14T14:26:05.195Z</time></trkpt><trkpt lat="45.1195328" lon="7.862842"><ele>231.2</ele><time>2026-04-14T14:26:07.194Z</time></trkpt><trkpt lat="45.1195236" lon="7.8629871"><ele>232.6</ele><time>2026-04-14T14:26:09.194Z</time></trkpt><trkpt lat="45.119523" lon="7.8631321"><ele>234.0</ele><time>2026-04-14T14:26:11.194Z</time></trkpt><trkpt lat="45.119524" lon="7.8632762"><ele>234.0</ele><time>2026-04-14T14:26:13.195Z</time></trkpt><trkpt lat="45.1195166" lon="7.8634209"><ele>233.99999999999997</ele><time>2026-04-14T14:26:15.194Z</time></trkpt><trkpt lat="45.119506" lon="7.8635602"><ele>233.99999999999997</ele><time>2026-04-14T14:26:17.194Z</time></trkpt><trkpt lat="45.1194828" lon="7.863697"><ele>234.0</ele><time>2026-04-14T14:26:19.193Z</time></trkpt><trkpt lat="45.1194381" lon="7.8638247"><ele>234.0</ele><time>2026-04-14T14:26:21.195Z</time></trkpt><trkpt lat="45.1193838" lon="7.8639425"><ele>234.39999999999998</ele><time>2026-04-14T14:26:23.194Z</time></trkpt><trkpt lat="45.1193352" lon="7.864065"><ele>234.79999999999998</ele><time>2026-04-14T14:26:25.193Z</time></trkpt><trkpt lat="45.1192855" lon="7.8641837"><ele>235.20000000000002</ele><time>2026-04-14T14:26:27.194Z</time></trkpt><trkpt lat="45.1192353" lon="7.8642986"><ele>235.60000000000002</ele><time>2026-04-14T14:26:29.195Z</time></trkpt><trkpt lat="45.1191852" lon="7.8644162"><ele>236.0</ele><time>2026-04-14T14:26:31.193Z</time></trkpt><trkpt lat="45.1191382" lon="7.8645423"><ele>236.0</ele><time>2026-04-14T14:26:33.193Z</time></trkpt><trkpt lat="45.1190842" lon="7.864667"><ele>236.00000000000003</ele><time>2026-04-14T14:26:35.193Z</time></trkpt><trkpt lat="45.1190302" lon="7.8647983"><ele>236.00000000000003</ele><time>2026-04-14T14:26:37.195Z</time></trkpt><trkpt lat="45.1189778" lon="7.8649318"><ele>236.0</ele><time>2026-04-14T14:26:39.194Z</time></trkpt><trkpt lat="45.1189283" lon="7.8650618"><ele>236.0</ele><time>2026-04-14T14:26:41.194Z</time></trkpt><trkpt lat="45.1188768" lon="7.865192"><ele>235.4</ele><time>2026-04-14T14:26:43.194Z</time></trkpt><trkpt lat="45.1188208" lon="7.8653291"><ele>234.8</ele><time>2026-04-14T14:26:45.194Z</time></trkpt><trkpt lat="45.1187654" lon="7.8654711"><ele>234.20000000000002</ele><time>2026-04-14T14:26:47.194Z</time></trkpt><trkpt lat="45.1187057" lon="7.8656069"><ele>233.60000000000002</ele><time>2026-04-14T14:26:49.194Z</time></trkpt><trkpt lat="45.1186517" lon="7.8657431"><ele>233.0</ele><time>2026-04-14T14:26:51.194Z</time></trkpt><trkpt lat="45.1186002" lon="7.8658805"><ele>233.4</ele><time>2026-04-14T14:26:53.194Z</time></trkpt><trkpt lat="45.1185541" lon="7.8660141"><ele>233.8</ele><time>2026-04-14T14:26:55.194Z</time></trkpt><trkpt lat="45.1185073" lon="7.8661498"><ele>234.2</ele><time>2026-04-14T14:26:57.195Z</time></trkpt><trkpt lat="45.118462" lon="7.866285"><ele>234.6</ele><time>2026-04-14T14:26:59.193Z</time></trkpt><trkpt lat="45.1184183" lon="7.8664217"><ele>235.0</ele><time>2026-04-14T14:27:01.194Z</time></trkpt><trkpt lat="45.1183738" lon="7.866552"><ele>235.0</ele><time>2026-04-14T14:27:03.195Z</time></trkpt><trkpt lat="45.118316" lon="7.866666"><ele>235.0</ele><time>2026-04-14T14:27:05.194Z</time></trkpt><trkpt lat="45.1182454" lon="7.8667653"><ele>235.0</ele><time>2026-04-14T14:27:07.195Z</time></trkpt><trkpt lat="45.1181765" lon="7.8668663"><ele>235.0</ele><time>2026-04-14T14:27:09.194Z</time></trkpt><trkpt lat="45.1181069" lon="7.8669637"><ele>235.0</ele><time>2026-04-14T14:27:11.193Z</time></trkpt><trkpt lat="45.1180385" lon="7.8670573"><ele>235.66666666666666</ele><time>2026-04-14T14:27:13.196Z</time></trkpt><trkpt lat="45.1179797" lon="7.867154"><ele>236.33333333333331</ele><time>2026-04-14T14:27:15.194Z</time></trkpt><trkpt lat="45.1179226" lon="7.8672421"><ele>237.0</ele><time>2026-04-14T14:27:17.194Z</time></trkpt><trkpt lat="45.1178654" lon="7.8673225"><ele>237.66666666666669</ele><time>2026-04-14T14:27:19.196Z</time></trkpt><trkpt lat="45.1178132" lon="7.8673955"><ele>238.33333333333334</ele><time>2026-04-14T14:27:21.195Z</time></trkpt><trkpt lat="45.1177425" lon="7.8674951"><ele>239.0</ele><time>2026-04-14T14:27:24.285Z</time></trkpt><trkpt lat="45.1176832" lon="7.8675849"><ele>239.8571428571429</ele><time>2026-04-14T14:27:26.201Z</time></trkpt><trkpt lat="45.1176314" lon="7.8676573"><ele>240.71428571428572</ele><time>2026-04-14T14:27:28.236Z</time></trkpt><trkpt lat="45.1175861" lon="7.867725"><ele>241.57142857142858</ele><time>2026-04-14T14:27:30.271Z</time></trkpt><trkpt lat="45.1175347" lon="7.8677858"><ele>242.42857142857144</ele><time>2026-04-14T14:27:32.305Z</time></trkpt><trkpt lat="45.1174879" lon="7.8678619"><ele>243.28571428571428</ele><time>2026-04-14T14:27:34.339Z</time></trkpt><trkpt lat="45.1174397" lon="7.8679267"><ele>244.14285714285714</ele><time>2026-04-14T14:27:36.255Z</time></trkpt><trkpt lat="45.117385" lon="7.8679756"><ele>245.0</ele><time>2026-04-14T14:27:38.289Z</time></trkpt><trkpt lat="45.1173147" lon="7.8680575"><ele>245.0</ele><time>2026-04-14T14:27:41.281Z</time></trkpt><trkpt lat="45.1172678" lon="7.8681191"><ele>245.0</ele><time>2026-04-14T14:27:43.315Z</time></trkpt><trkpt lat="45.117221" lon="7.868179"><ele>245.0</ele><time>2026-04-14T14:27:45.231Z</time></trkpt><trkpt lat="45.1171764" lon="7.8682444"><ele>245.0</ele><time>2026-04-14T14:27:47.265Z</time></trkpt><trkpt lat="45.1171274" lon="7.8683131"><ele>245.0</ele><time>2026-04-14T14:27:49.299Z</time></trkpt><trkpt lat="45.1170771" lon="7.8683757"><ele>245.0</ele><time>2026-04-14T14:27:51.277Z</time></trkpt><trkpt lat="45.1170274" lon="7.8684364"><ele>245.0</ele><time>2026-04-14T14:27:53.249Z</time></trkpt><trkpt lat="45.1169726" lon="7.8684993"><ele>244.83333333333334</ele><time>2026-04-14T14:27:55.284Z</time></trkpt><trkpt lat="45.1169205" lon="7.8685639"><ele>244.66666666666669</ele><time>2026-04-14T14:27:57.318Z</time></trkpt><trkpt lat="45.1168646" lon="7.8686339"><ele>244.5</ele><time>2026-04-14T14:27:59.295Z</time></trkpt><trkpt lat="45.1167759" lon="7.8687232"><ele>244.33333333333331</ele><time>2026-04-14T14:28:02.008Z</time></trkpt><trkpt lat="45.11671" lon="7.868804"><ele>244.16666666666666</ele><time>2026-04-14T14:28:04.26Z</time></trkpt><trkpt lat="45.1166503" lon="7.8688776"><ele>244.0</ele><time>2026-04-14T14:28:06.295Z</time></trkpt><trkpt lat="45.1165883" lon="7.8689693"><ele>243.39999999999998</ele><time>2026-04-14T14:28:08.471Z</time></trkpt><trkpt lat="45.1165382" lon="7.8690517"><ele>242.79999999999998</ele><time>2026-04-14T14:28:10.247Z</time></trkpt><trkpt lat="45.116476" lon="7.8691369"><ele>242.20000000000002</ele><time>2026-04-14T14:28:12.194Z</time></trkpt><trkpt lat="45.1164168" lon="7.869245"><ele>241.60000000000002</ele><time>2026-04-14T14:28:14.194Z</time></trkpt><trkpt lat="45.1163643" lon="7.8693656"><ele>241.0</ele><time>2026-04-14T14:28:16.193Z</time></trkpt><trkpt lat="45.1163118" lon="7.8695027"><ele>241.0</ele><time>2026-04-14T14:28:18.194Z</time></trkpt><trkpt lat="45.11626" lon="7.8696452"><ele>241.00000000000003</ele><time>2026-04-14T14:28:20.197Z</time></trkpt><trkpt lat="45.1162069" lon="7.8697916"><ele>241.00000000000003</ele><time>2026-04-14T14:28:22.196Z</time></trkpt><trkpt lat="45.1161569" lon="7.8699322"><ele>241.0</ele><time>2026-04-14T14:28:24.197Z</time></trkpt><trkpt lat="45.1161069" lon="7.8700658"><ele>241.0</ele><time>2026-04-14T14:28:26.198Z</time></trkpt><trkpt lat="45.1160614" lon="7.8702009"><ele>242.8</ele><time>2026-04-14T14:28:28.196Z</time></trkpt><trkpt lat="45.1160164" lon="7.8703373"><ele>244.60000000000002</ele><time>2026-04-14T14:28:30.194Z</time></trkpt><trkpt lat="45.1159701" lon="7.870469"><ele>246.4</ele><time>2026-04-14T14:28:32.194Z</time></trkpt><trkpt lat="45.115923" lon="7.8705999"><ele>248.2</ele><time>2026-04-14T14:28:34.194Z</time></trkpt><trkpt lat="45.1158759" lon="7.8707276"><ele>250.0</ele><time>2026-04-14T14:28:36.194Z</time></trkpt><trkpt lat="45.1158272" lon="7.8708526"><ele>248.2</ele><time>2026-04-14T14:28:38.195Z</time></trkpt><trkpt lat="45.1157796" lon="7.8709802"><ele>246.4</ele><time>2026-04-14T14:28:40.193Z</time></trkpt><trkpt lat="45.1157355" lon="7.8711119"><ele>244.60000000000002</ele><time>2026-04-14T14:28:42.194Z</time></trkpt><trkpt lat="45.115684" lon="7.8712377"><ele>242.8</ele><time>2026-04-14T14:28:44.194Z</time></trkpt><trkpt lat="45.115632" lon="7.8713637"><ele>241.0</ele><time>2026-04-14T14:28:46.193Z</time></trkpt><trkpt lat="45.1155882" lon="7.8714936"><ele>241.0</ele><time>2026-04-14T14:28:48.196Z</time></trkpt><trkpt lat="45.1155434" lon="7.8716248"><ele>241.00000000000003</ele><time>2026-04-14T14:28:50.196Z</time></trkpt><trkpt lat="45.1154998" lon="7.8717562"><ele>241.00000000000003</ele><time>2026-04-14T14:28:52.194Z</time></trkpt><trkpt lat="45.1154549" lon="7.8718864"><ele>241.0</ele><time>2026-04-14T14:28:54.195Z</time></trkpt><trkpt lat="45.115407" lon="7.8720154"><ele>241.0</ele><time>2026-04-14T14:28:56.194Z</time></trkpt><trkpt lat="45.1153573" lon="7.8721404"><ele>241.8</ele><time>2026-04-14T14:28:58.195Z</time></trkpt><trkpt lat="45.1153085" lon="7.8722648"><ele>242.60000000000002</ele><time>2026-04-14T14:29:00.195Z</time></trkpt><trkpt lat="45.1152598" lon="7.8723808"><ele>243.4</ele><time>2026-04-14T14:29:02.195Z</time></trkpt><trkpt lat="45.115202" lon="7.8724901"><ele>244.2</ele><time>2026-04-14T14:29:04.194Z</time></trkpt><trkpt lat="45.1151381" lon="7.8725965"><ele>245.0</ele><time>2026-04-14T14:29:06.194Z</time></trkpt><trkpt lat="45.1150696" lon="7.8726948"><ele>244.4</ele><time>2026-04-14T14:29:08.194Z</time></trkpt><trkpt lat="45.1150031" lon="7.8727914"><ele>243.8</ele><time>2026-04-14T14:29:10.193Z</time></trkpt><trkpt lat="45.1149387" lon="7.8728836"><ele>243.2</ele><time>2026-04-14T14:29:12.193Z</time></trkpt><trkpt lat="45.1148763" lon="7.8729783"><ele>242.6</ele><time>2026-04-14T14:29:14.196Z</time></trkpt><trkpt lat="45.1148142" lon="7.8730728"><ele>242.0</ele><time>2026-04-14T14:29:16.196Z</time></trkpt><trkpt lat="45.1147458" lon="7.8731726"><ele>242.0</ele><time>2026-04-14T14:29:18.194Z</time></trkpt><trkpt lat="45.1146819" lon="7.8732749"><ele>242.0</ele><time>2026-04-14T14:29:20.194Z</time></trkpt><trkpt lat="45.1146232" lon="7.8733819"><ele>242.0</ele><time>2026-04-14T14:29:22.194Z</time></trkpt><trkpt lat="45.1145683" lon="7.8734899"><ele>242.0</ele><time>2026-04-14T14:29:24.195Z</time></trkpt><trkpt lat="45.1145184" lon="7.8735983"><ele>242.0</ele><time>2026-04-14T14:29:26.195Z</time></trkpt><trkpt lat="45.1144671" lon="7.8737053"><ele>243.2</ele><time>2026-04-14T14:29:28.195Z</time></trkpt><trkpt lat="45.1144151" lon="7.8738028"><ele>244.39999999999998</ele><time>2026-04-14T14:29:30.195Z</time></trkpt><trkpt lat="45.1143676" lon="7.8738998"><ele>245.60000000000002</ele><time>2026-04-14T14:29:32.195Z</time></trkpt><trkpt lat="45.11432" lon="7.8739953"><ele>246.8</ele><time>2026-04-14T14:29:34.194Z</time></trkpt><trkpt lat="45.1142674" lon="7.8741162"><ele>248.0</ele><time>2026-04-14T14:29:37.212Z</time></trkpt><trkpt lat="45.1142095" lon="7.87424"><ele>248.50000000000003</ele><time>2026-04-14T14:29:39.247Z</time></trkpt><trkpt lat="45.1141748" lon="7.874353"><ele>249.0</ele><time>2026-04-14T14:29:41.282Z</time></trkpt><trkpt lat="45.1141548" lon="7.8744568"><ele>249.5</ele><time>2026-04-14T14:29:43.196Z</time></trkpt><trkpt lat="45.1141463" lon="7.874571"><ele>250.0</ele><time>2026-04-14T14:29:45.231Z</time></trkpt><trkpt lat="45.1141303" lon="7.8746879"><ele>250.50000000000003</ele><time>2026-04-14T14:29:47.266Z</time></trkpt><trkpt lat="45.1141238" lon="7.8748064"><ele>251.0</ele><time>2026-04-14T14:29:49.299Z</time></trkpt><trkpt lat="45.1141306" lon="7.8749144"><ele>251.00000000000003</ele><time>2026-04-14T14:29:51.215Z</time></trkpt><trkpt lat="45.1141281" lon="7.8750261"><ele>251.0</ele><time>2026-04-14T14:29:53.249Z</time></trkpt><trkpt lat="45.1141272" lon="7.8751264"><ele>251.0</ele><time>2026-04-14T14:29:55.284Z</time></trkpt><trkpt lat="45.1141285" lon="7.8752337"><ele>251.0</ele><time>2026-04-14T14:29:57.317Z</time></trkpt><trkpt lat="45.1141332" lon="7.8753332"><ele>251.00000000000003</ele><time>2026-04-14T14:29:59.231Z</time></trkpt><trkpt lat="45.1141361" lon="7.8754431"><ele>251.0</ele><time>2026-04-14T14:30:01.265Z</time></trkpt><trkpt lat="45.1141381" lon="7.8755595"><ele>251.50000000000003</ele><time>2026-04-14T14:30:03.301Z</time></trkpt><trkpt lat="45.114145" lon="7.8756692"><ele>252.0</ele><time>2026-04-14T14:30:05.215Z</time></trkpt><trkpt lat="45.1141432" lon="7.8757889"><ele>252.5</ele><time>2026-04-14T14:30:07.249Z</time></trkpt><trkpt lat="45.1141423" lon="7.8759083"><ele>253.0</ele><time>2026-04-14T14:30:09.281Z</time></trkpt><trkpt lat="45.1141367" lon="7.8760459"><ele>253.50000000000003</ele><time>2026-04-14T14:30:11.577Z</time></trkpt><trkpt lat="45.1141363" lon="7.8761479"><ele>254.0</ele><time>2026-04-14T14:30:13.349Z</time></trkpt><trkpt lat="45.1141313" lon="7.8762605"><ele>254.00000000000003</ele><time>2026-04-14T14:30:15.265Z</time></trkpt><trkpt lat="45.1141246" lon="7.8763843"><ele>254.0</ele><time>2026-04-14T14:30:17.298Z</time></trkpt><trkpt lat="45.1141199" lon="7.8765039"><ele>254.0</ele><time>2026-04-14T14:30:19.214Z</time></trkpt><trkpt lat="45.1141044" lon="7.8766221"><ele>254.0</ele><time>2026-04-14T14:30:21.247Z</time></trkpt><trkpt lat="45.1140834" lon="7.8767376"><ele>254.00000000000003</ele><time>2026-04-14T14:30:23.281Z</time></trkpt><trkpt lat="45.1140617" lon="7.8768451"><ele>254.0</ele><time>2026-04-14T14:30:25.195Z</time></trkpt><trkpt lat="45.1140329" lon="7.8770428"><ele>252.79999999999998</ele><time>2026-04-14T14:30:28.194Z</time></trkpt><trkpt lat="45.114006" lon="7.8771909"><ele>251.59999999999997</ele><time>2026-04-14T14:30:30.193Z</time></trkpt><trkpt lat="45.1139767" lon="7.8773527"><ele>250.4</ele><time>2026-04-14T14:30:32.196Z</time></trkpt><trkpt lat="45.1139484" lon="7.8775259"><ele>249.2</ele><time>2026-04-14T14:30:34.194Z</time></trkpt><trkpt lat="45.1139318" lon="7.8776143"><ele>248.0</ele><time>2026-04-14T14:30:35.195Z</time></trkpt><trkpt lat="45.1139124" lon="7.8777029"><ele>248.0</ele><time>2026-04-14T14:30:36.196Z</time></trkpt><trkpt lat="45.1138908" lon="7.8777918"><ele>248.00000000000003</ele><time>2026-04-14T14:30:37.195Z</time></trkpt><trkpt lat="45.1138633" lon="7.8778818"><ele>248.0</ele><time>2026-04-14T14:30:38.196Z</time></trkpt><trkpt lat="45.113833" lon="7.8779705"><ele>248.0</ele><time>2026-04-14T14:30:39.194Z</time></trkpt><trkpt lat="45.1138007" lon="7.8780577"><ele>248.00000000000003</ele><time>2026-04-14T14:30:40.194Z</time></trkpt><trkpt lat="45.1137656" lon="7.8781458"><ele>248.0</ele><time>2026-04-14T14:30:41.194Z</time></trkpt><trkpt lat="45.1137302" lon="7.8782314"><ele>248.0</ele><time>2026-04-14T14:30:42.194Z</time></trkpt><trkpt lat="45.1136924" lon="7.878316"><ele>248.0</ele><time>2026-04-14T14:30:43.194Z</time></trkpt><trkpt lat="45.1136508" lon="7.8783993"><ele>248.00000000000003</ele><time>2026-04-14T14:30:44.194Z</time></trkpt><trkpt lat="45.1136074" lon="7.8784835"><ele>248.0</ele><time>2026-04-14T14:30:45.193Z</time></trkpt><trkpt lat="45.1135666" lon="7.8785684"><ele>248.0</ele><time>2026-04-14T14:30:46.195Z</time></trkpt><trkpt lat="45.1135266" lon="7.8786521"><ele>248.00000000000003</ele><time>2026-04-14T14:30:47.193Z</time></trkpt><trkpt lat="45.1134866" lon="7.8787353"><ele>248.0</ele><time>2026-04-14T14:30:48.195Z</time></trkpt><trkpt lat="45.1134481" lon="7.8788144"><ele>248.0</ele><time>2026-04-14T14:30:49.194Z</time></trkpt><trkpt lat="45.1134101" lon="7.8788909"><ele>247.8</ele><time>2026-04-14T14:30:50.194Z</time></trkpt><trkpt lat="45.113372" lon="7.8789669"><ele>247.60000000000002</ele><time>2026-04-14T14:30:51.193Z</time></trkpt><trkpt lat="45.1133031" lon="7.879106"><ele>247.39999999999998</ele><time>2026-04-14T14:30:53.194Z</time></trkpt><trkpt lat="45.1132418" lon="7.8792248"><ele>247.2</ele><time>2026-04-14T14:30:55.194Z</time></trkpt><trkpt lat="45.1131868" lon="7.8793307"><ele>247.0</ele><time>2026-04-14T14:30:57.194Z</time></trkpt><trkpt lat="45.1131349" lon="7.8794368"><ele>247.0</ele><time>2026-04-14T14:30:59.196Z</time></trkpt><trkpt lat="45.1130852" lon="7.8795466"><ele>247.0</ele><time>2026-04-14T14:31:01.196Z</time></trkpt><trkpt lat="45.1130333" lon="7.8796584"><ele>247.0</ele><time>2026-04-14T14:31:03.196Z</time></trkpt><trkpt lat="45.1129834" lon="7.8797746"><ele>247.0</ele><time>2026-04-14T14:31:05.193Z</time></trkpt><trkpt lat="45.1129366" lon="7.8798915"><ele>247.0</ele><time>2026-04-14T14:31:07.194Z</time></trkpt><trkpt lat="45.1128935" lon="7.8800054"><ele>248.2</ele><time>2026-04-14T14:31:09.193Z</time></trkpt><trkpt lat="45.1128471" lon="7.8801198"><ele>249.39999999999998</ele><time>2026-04-14T14:31:11.193Z</time></trkpt><trkpt lat="45.1128066" lon="7.8802367"><ele>250.60000000000002</ele><time>2026-04-14T14:31:13.194Z</time></trkpt><trkpt lat="45.1127667" lon="7.8803519"><ele>251.8</ele><time>2026-04-14T14:31:15.194Z</time></trkpt><trkpt lat="45.1127254" lon="7.8804654"><ele>253.0</ele><time>2026-04-14T14:31:17.193Z</time></trkpt><trkpt lat="45.1126802" lon="7.8805815"><ele>253.0</ele><time>2026-04-14T14:31:19.193Z</time></trkpt><trkpt lat="45.1126351" lon="7.8806955"><ele>253.0</ele><time>2026-04-14T14:31:21.194Z</time></trkpt><trkpt lat="45.1125886" lon="7.8808055"><ele>253.0</ele><time>2026-04-14T14:31:23.194Z</time></trkpt><trkpt lat="45.1125419" lon="7.880921"><ele>253.0</ele><time>2026-04-14T14:31:25.194Z</time></trkpt><trkpt lat="45.112495" lon="7.8810352"><ele>253.0</ele><time>2026-04-14T14:31:27.194Z</time></trkpt><trkpt lat="45.1124516" lon="7.8811524"><ele>252.60000000000002</ele><time>2026-04-14T14:31:29.193Z</time></trkpt><trkpt lat="45.112407" lon="7.8812728"><ele>252.20000000000002</ele><time>2026-04-14T14:31:31.196Z</time></trkpt><trkpt lat="45.1123667" lon="7.8813943"><ele>251.8</ele><time>2026-04-14T14:31:33.194Z</time></trkpt><trkpt lat="45.1123317" lon="7.8815135"><ele>251.4</ele><time>2026-04-14T14:31:35.194Z</time></trkpt><trkpt lat="45.1122979" lon="7.8816288"><ele>251.0</ele><time>2026-04-14T14:31:38.26Z</time></trkpt><trkpt lat="45.1122766" lon="7.8818058"><ele>251.0</ele><time>2026-04-14T14:31:40.195Z</time></trkpt><trkpt lat="45.1122616" lon="7.8819456"><ele>251.00000000000003</ele><time>2026-04-14T14:31:42.194Z</time></trkpt><trkpt lat="45.1122465" lon="7.8820746"><ele>251.00000000000003</ele><time>2026-04-14T14:31:44.194Z</time></trkpt><trkpt lat="45.1122301" lon="7.8822046"><ele>251.0</ele><time>2026-04-14T14:31:46.194Z</time></trkpt><trkpt lat="45.1122137" lon="7.8823381"><ele>251.0</ele><time>2026-04-14T14:31:48.194Z</time></trkpt><trkpt lat="45.1121933" lon="7.8824793"><ele>251.4</ele><time>2026-04-14T14:31:50.195Z</time></trkpt><trkpt lat="45.1121777" lon="7.8826242"><ele>251.8</ele><time>2026-04-14T14:31:52.194Z</time></trkpt><trkpt lat="45.11216" lon="7.8827666"><ele>252.20000000000002</ele><time>2026-04-14T14:31:54.193Z</time></trkpt><trkpt lat="45.1121429" lon="7.8829035"><ele>252.60000000000002</ele><time>2026-04-14T14:31:56.196Z</time></trkpt><trkpt lat="45.1121287" lon="7.8830382"><ele>253.0</ele><time>2026-04-14T14:31:58.196Z</time></trkpt><trkpt lat="45.1121161" lon="7.8831649"><ele>253.0</ele><time>2026-04-14T14:32:00.195Z</time></trkpt><trkpt lat="45.1121052" lon="7.8832906"><ele>253.0</ele><time>2026-04-14T14:32:02.197Z</time></trkpt><trkpt lat="45.1120898" lon="7.8834258"><ele>253.0</ele><time>2026-04-14T14:32:04.196Z</time></trkpt><trkpt lat="45.112075" lon="7.8835633"><ele>253.0</ele><time>2026-04-14T14:32:06.196Z</time></trkpt><trkpt lat="45.1120616" lon="7.8837035"><ele>253.0</ele><time>2026-04-14T14:32:08.196Z</time></trkpt><trkpt lat="45.1120465" lon="7.8838419"><ele>253.2</ele><time>2026-04-14T14:32:10.195Z</time></trkpt><trkpt lat="45.1120304" lon="7.8839805"><ele>253.4</ele><time>2026-04-14T14:32:12.194Z</time></trkpt><trkpt lat="45.1120149" lon="7.8841216"><ele>253.59999999999997</ele><time>2026-04-14T14:32:14.194Z</time></trkpt><trkpt lat="45.1119986" lon="7.8842694"><ele>253.79999999999998</ele><time>2026-04-14T14:32:16.195Z</time></trkpt><trkpt lat="45.1119805" lon="7.8844211"><ele>254.0</ele><time>2026-04-14T14:32:18.194Z</time></trkpt><trkpt lat="45.1119681" lon="7.884567"><ele>254.00000000000003</ele><time>2026-04-14T14:32:20.194Z</time></trkpt><trkpt lat="45.1119519" lon="7.8847042"><ele>254.0</ele><time>2026-04-14T14:32:22.194Z</time></trkpt><trkpt lat="45.1119412" lon="7.8848359"><ele>254.0</ele><time>2026-04-14T14:32:24.195Z</time></trkpt><trkpt lat="45.1119356" lon="7.8849556"><ele>254.0</ele><time>2026-04-14T14:32:26.201Z</time></trkpt><trkpt lat="45.1119228" lon="7.8850731"><ele>254.00000000000003</ele><time>2026-04-14T14:32:28.193Z</time></trkpt><trkpt lat="45.1119118" lon="7.8851957"><ele>254.0</ele><time>2026-04-14T14:32:30.194Z</time></trkpt><trkpt lat="45.1119018" lon="7.8853823"><ele>254.0</ele><time>2026-04-14T14:32:33.195Z</time></trkpt><trkpt lat="45.1118868" lon="7.8855141"><ele>253.99999999999997</ele><time>2026-04-14T14:32:35.194Z</time></trkpt><trkpt lat="45.1118223" lon="7.8856029"><ele>253.99999999999997</ele><time>2026-04-14T14:32:37.194Z</time></trkpt><trkpt lat="45.1117213" lon="7.8856335"><ele>254.0</ele><time>2026-04-14T14:32:39.194Z</time></trkpt><trkpt lat="45.1116142" lon="7.8856427"><ele>254.0</ele><time>2026-04-14T14:32:41.196Z</time></trkpt><trkpt lat="45.1115099" lon="7.8856524"><ele>255.0</ele><time>2026-04-14T14:32:43.194Z</time></trkpt><trkpt lat="45.1114054" lon="7.8856606"><ele>255.99999999999997</ele><time>2026-04-14T14:32:45.194Z</time></trkpt><trkpt lat="45.1113035" lon="7.8856685"><ele>257.0</ele><time>2026-04-14T14:32:47.195Z</time></trkpt><trkpt lat="45.1112031" lon="7.8856819"><ele>258.0</ele><time>2026-04-14T14:32:49.194Z</time></trkpt><trkpt lat="45.1111004" lon="7.8856923"><ele>259.0</ele><time>2026-04-14T14:32:51.196Z</time></trkpt><trkpt lat="45.1110014" lon="7.885704"><ele>259.0</ele><time>2026-04-14T14:32:53.196Z</time></trkpt><trkpt lat="45.1109049" lon="7.8857177"><ele>259.0</ele><time>2026-04-14T14:32:55.194Z</time></trkpt><trkpt lat="45.11081" lon="7.8857294"><ele>259.0</ele><time>2026-04-14T14:32:57.194Z</time></trkpt><trkpt lat="45.1107258" lon="7.8857351"><ele>259.0</ele><time>2026-04-14T14:32:59.195Z</time></trkpt><trkpt lat="45.1106485" lon="7.8857375"><ele>259.0</ele><time>2026-04-14T14:33:01.195Z</time></trkpt><trkpt lat="45.1105698" lon="7.8857385"><ele>259.0</ele><time>2026-04-14T14:33:03.194Z</time></trkpt><trkpt lat="45.1104743" lon="7.8857698"><ele>260.3333333333333</ele><time>2026-04-14T14:33:06.249Z</time></trkpt><trkpt lat="45.1103798" lon="7.8857564"><ele>261.66666666666663</ele><time>2026-04-14T14:33:08.222Z</time></trkpt><trkpt lat="45.1103005" lon="7.8857642"><ele>263.0</ele><time>2026-04-14T14:33:10.257Z</time></trkpt><trkpt lat="45.1102303" lon="7.8857705"><ele>264.3333333333333</ele><time>2026-04-14T14:33:12.29Z</time></trkpt><trkpt lat="45.1101663" lon="7.8857849"><ele>265.6666666666667</ele><time>2026-04-14T14:33:14.205Z</time></trkpt><trkpt lat="45.1101004" lon="7.8858059"><ele>267.0</ele><time>2026-04-14T14:33:16.283Z</time></trkpt><trkpt lat="45.1100176" lon="7.8858276"><ele>267.0</ele><time>2026-04-14T14:33:19.233Z</time></trkpt><trkpt lat="45.1099359" lon="7.88587"><ele>267.0</ele><time>2026-04-14T14:33:22.225Z</time></trkpt><trkpt lat="45.10986" lon="7.8859004"><ele>267.0</ele><time>2026-04-14T14:33:25.338Z</time></trkpt><trkpt lat="45.1097929" lon="7.8859268"><ele>267.0</ele><time>2026-04-14T14:33:28.21Z</time></trkpt><trkpt lat="45.1097212" lon="7.8859541"><ele>267.0</ele><time>2026-04-14T14:33:31.202Z</time></trkpt><trkpt lat="45.1096427" lon="7.885987"><ele>267.0</ele><time>2026-04-14T14:33:34.314Z</time></trkpt><trkpt lat="45.1095678" lon="7.8860174"><ele>267.6666666666667</ele><time>2026-04-14T14:33:37.306Z</time></trkpt><trkpt lat="45.1094888" lon="7.8860439"><ele>268.3333333333333</ele><time>2026-04-14T14:33:40.297Z</time></trkpt><trkpt lat="45.1094144" lon="7.8860597"><ele>269.0</ele><time>2026-04-14T14:33:43.288Z</time></trkpt><trkpt lat="45.1093395" lon="7.8860685"><ele>269.66666666666663</ele><time>2026-04-14T14:33:46.281Z</time></trkpt><trkpt lat="45.1092618" lon="7.8860572"><ele>270.3333333333333</ele><time>2026-04-14T14:33:49.273Z</time></trkpt><trkpt lat="45.1091894" lon="7.8860183"><ele>271.0</ele><time>2026-04-14T14:33:52.265Z</time></trkpt><trkpt lat="45.1091241" lon="7.8859772"><ele>271.2857142857143</ele><time>2026-04-14T14:33:55.262Z</time></trkpt><trkpt lat="45.10905" lon="7.8859612"><ele>271.57142857142856</ele><time>2026-04-14T14:33:58.249Z</time></trkpt><trkpt lat="45.1089866" lon="7.8859106"><ele>271.8571428571429</ele><time>2026-04-14T14:34:01.24Z</time></trkpt><trkpt lat="45.1089214" lon="7.8858762"><ele>272.1428571428571</ele><time>2026-04-14T14:34:04.234Z</time></trkpt><trkpt lat="45.108861" lon="7.8858308"><ele>272.42857142857144</ele><time>2026-04-14T14:34:07.226Z</time></trkpt><trkpt lat="45.1087857" lon="7.8857866"><ele>272.7142857142857</ele><time>2026-04-14T14:34:11.295Z</time></trkpt><trkpt lat="45.1087217" lon="7.8857675"><ele>273.0</ele><time>2026-04-14T14:34:14.286Z</time></trkpt><trkpt lat="45.1086315" lon="7.8857618"><ele>273.0</ele><time>2026-04-14T14:34:17.278Z</time></trkpt><trkpt lat="45.1085333" lon="7.8857564"><ele>273.0</ele><time>2026-04-14T14:34:20.271Z</time></trkpt><trkpt lat="45.108461" lon="7.8857485"><ele>273.0</ele><time>2026-04-14T14:34:22.306Z</time></trkpt><trkpt lat="45.1083824" lon="7.8857546"><ele>273.0</ele><time>2026-04-14T14:34:24.22Z</time></trkpt><trkpt lat="45.1082936" lon="7.8857892"><ele>273.0</ele><time>2026-04-14T14:34:26.255Z</time></trkpt><trkpt lat="45.1082179" lon="7.8858029"><ele>273.0</ele><time>2026-04-14T14:34:28.193Z</time></trkpt><trkpt lat="45.1081176" lon="7.88581"><ele>272.5</ele><time>2026-04-14T14:34:30.194Z</time></trkpt><trkpt lat="45.1080064" lon="7.8858107"><ele>272.0</ele><time>2026-04-14T14:34:32.194Z</time></trkpt><trkpt lat="45.1078928" lon="7.8857965"><ele>271.5</ele><time>2026-04-14T14:34:34.194Z</time></trkpt><trkpt lat="45.1077729" lon="7.8857757"><ele>271.0</ele><time>2026-04-14T14:34:36.194Z</time></trkpt><trkpt lat="45.1076524" lon="7.8857586"><ele>271.0</ele><time>2026-04-14T14:34:38.194Z</time></trkpt><trkpt lat="45.107589" lon="7.8857548"><ele>271.0</ele><time>2026-04-14T14:34:39.194Z</time></trkpt><trkpt lat="45.1075251" lon="7.8857609"><ele>271.0</ele><time>2026-04-14T14:34:40.194Z</time></trkpt><trkpt lat="45.1074601" lon="7.8857701"><ele>271.0</ele><time>2026-04-14T14:34:41.193Z</time></trkpt><trkpt lat="45.1073924" lon="7.8857809"><ele>271.0</ele><time>2026-04-14T14:34:42.194Z</time></trkpt><trkpt lat="45.1073237" lon="7.8857884"><ele>271.0</ele><time>2026-04-14T14:34:43.194Z</time></trkpt><trkpt lat="45.1072526" lon="7.8857947"><ele>271.0</ele><time>2026-04-14T14:34:44.194Z</time></trkpt><trkpt lat="45.1071823" lon="7.8858025"><ele>270.3333333333333</ele><time>2026-04-14T14:34:45.193Z</time></trkpt><trkpt lat="45.1071135" lon="7.8858103"><ele>269.66666666666663</ele><time>2026-04-14T14:34:46.194Z</time></trkpt><trkpt lat="45.1070466" lon="7.8858173"><ele>269.0</ele><time>2026-04-14T14:34:47.194Z</time></trkpt><trkpt lat="45.1069816" lon="7.8858216"><ele>268.3333333333333</ele><time>2026-04-14T14:34:48.193Z</time></trkpt><trkpt lat="45.106861" lon="7.8858312"><ele>267.6666666666667</ele><time>2026-04-14T14:34:50.196Z</time></trkpt><trkpt lat="45.1067554" lon="7.8858515"><ele>267.0</ele><time>2026-04-14T14:34:52.202Z</time></trkpt><trkpt lat="45.1066627" lon="7.8858821"><ele>267.0</ele><time>2026-04-14T14:34:54.196Z</time></trkpt><trkpt lat="45.106583" lon="7.8859147"><ele>267.0</ele><time>2026-04-14T14:34:56.196Z</time></trkpt><trkpt lat="45.1065142" lon="7.8859577"><ele>267.0</ele><time>2026-04-14T14:34:58.194Z</time></trkpt><trkpt lat="45.1064517" lon="7.8860064"><ele>267.0</ele><time>2026-04-14T14:35:00.195Z</time></trkpt><trkpt lat="45.1063501" lon="7.8860697"><ele>267.0</ele><time>2026-04-14T14:35:03.289Z</time></trkpt><trkpt lat="45.1062755" lon="7.8861437"><ele>267.0</ele><time>2026-04-14T14:35:05.204Z</time></trkpt><trkpt lat="45.1062118" lon="7.8862227"><ele>268.1666666666667</ele><time>2026-04-14T14:35:07.301Z</time></trkpt><trkpt lat="45.1061565" lon="7.8862934"><ele>269.3333333333333</ele><time>2026-04-14T14:35:09.272Z</time></trkpt><trkpt lat="45.1060991" lon="7.8863687"><ele>270.5</ele><time>2026-04-14T14:35:11.308Z</time></trkpt><trkpt lat="45.1060472" lon="7.8864388"><ele>271.66666666666663</ele><time>2026-04-14T14:35:13.221Z</time></trkpt><trkpt lat="45.1059863" lon="7.8865102"><ele>272.8333333333333</ele><time>2026-04-14T14:35:15.257Z</time></trkpt><trkpt lat="45.1059286" lon="7.8865818"><ele>274.0</ele><time>2026-04-14T14:35:17.292Z</time></trkpt><trkpt lat="45.1058752" lon="7.8866613"><ele>274.0</ele><time>2026-04-14T14:35:19.248Z</time></trkpt><trkpt lat="45.1058249" lon="7.8867398"><ele>274.0</ele><time>2026-04-14T14:35:21.202Z</time></trkpt><trkpt lat="45.1057695" lon="7.886819"><ele>274.0</ele><time>2026-04-14T14:35:23.275Z</time></trkpt><trkpt lat="45.1057157" lon="7.8868983"><ele>274.0</ele><time>2026-04-14T14:35:25.31Z</time></trkpt><trkpt lat="45.1056626" lon="7.886972"><ele>274.0</ele><time>2026-04-14T14:35:27.226Z</time></trkpt><trkpt lat="45.1056081" lon="7.8870479"><ele>274.0</ele><time>2026-04-14T14:35:29.261Z</time></trkpt><trkpt lat="45.1055559" lon="7.8871238"><ele>274.16666666666663</ele><time>2026-04-14T14:35:31.295Z</time></trkpt><trkpt lat="45.1055039" lon="7.8871949"><ele>274.3333333333333</ele><time>2026-04-14T14:35:33.209Z</time></trkpt><trkpt lat="45.1054569" lon="7.8872862"><ele>274.5</ele><time>2026-04-14T14:35:35.206Z</time></trkpt><trkpt lat="45.1054198" lon="7.8873907"><ele>274.6666666666667</ele><time>2026-04-14T14:35:37.28Z</time></trkpt><trkpt lat="45.105402" lon="7.88749"><ele>274.83333333333337</ele><time>2026-04-14T14:35:39.195Z</time></trkpt><trkpt lat="45.1054036" lon="7.887596"><ele>275.0</ele><time>2026-04-14T14:35:41.229Z</time></trkpt><trkpt lat="45.1054149" lon="7.8876982"><ele>275.0</ele><time>2026-04-14T14:35:43.264Z</time></trkpt><trkpt lat="45.1054296" lon="7.8877987"><ele>275.0</ele><time>2026-04-14T14:35:45.299Z</time></trkpt><trkpt lat="45.1054379" lon="7.8878997"><ele>275.0</ele><time>2026-04-14T14:35:47.295Z</time></trkpt><trkpt lat="45.1054492" lon="7.8879883"><ele>275.0</ele><time>2026-04-14T14:35:49.248Z</time></trkpt><trkpt lat="45.1054625" lon="7.8880817"><ele>275.0</ele><time>2026-04-14T14:35:51.283Z</time></trkpt><trkpt lat="45.1054786" lon="7.8882014"><ele>275.0</ele><time>2026-04-14T14:35:54.116Z</time></trkpt><trkpt lat="45.105498" lon="7.8883274"><ele>275.5</ele><time>2026-04-14T14:35:57.267Z</time></trkpt><trkpt lat="45.1055164" lon="7.8884464"><ele>276.0</ele><time>2026-04-14T14:36:00.259Z</time></trkpt><trkpt lat="45.1055214" lon="7.8885357"><ele>276.5</ele><time>2026-04-14T14:36:02.357Z</time></trkpt><trkpt lat="45.1055387" lon="7.8886498"><ele>277.0</ele><time>2026-04-14T14:36:05.285Z</time></trkpt><trkpt lat="45.1055562" lon="7.888765"><ele>277.5</ele><time>2026-04-14T14:36:08.318Z</time></trkpt><trkpt lat="45.1055761" lon="7.8888782"><ele>278.0</ele><time>2026-04-14T14:36:11.269Z</time></trkpt><trkpt lat="45.1055903" lon="7.8889983"><ele>278.0</ele><time>2026-04-14T14:36:14.261Z</time></trkpt><trkpt lat="45.1056058" lon="7.8891087"><ele>278.0</ele><time>2026-04-14T14:36:17.255Z</time></trkpt><trkpt lat="45.1056195" lon="7.8892193"><ele>278.0</ele><time>2026-04-14T14:36:20.208Z</time></trkpt><trkpt lat="45.1056324" lon="7.8893421"><ele>278.0</ele><time>2026-04-14T14:36:23.239Z</time></trkpt><trkpt lat="45.1056417" lon="7.8894589"><ele>278.0</ele><time>2026-04-14T14:36:26.231Z</time></trkpt><trkpt lat="45.1056411" lon="7.8895856"><ele>278.0</ele><time>2026-04-14T14:36:29.223Z</time></trkpt><trkpt lat="45.1056344" lon="7.8897105"><ele>278.6666666666667</ele><time>2026-04-14T14:36:32.214Z</time></trkpt><trkpt lat="45.1056223" lon="7.8898308"><ele>279.33333333333337</ele><time>2026-04-14T14:36:35.207Z</time></trkpt><trkpt lat="45.1056064" lon="7.8899478"><ele>280.0</ele><time>2026-04-14T14:36:38.197Z</time></trkpt><trkpt lat="45.1055858" lon="7.8900641"><ele>280.6666666666667</ele><time>2026-04-14T14:36:41.31Z</time></trkpt><trkpt lat="45.1055569" lon="7.8901761"><ele>281.3333333333333</ele><time>2026-04-14T14:36:44.301Z</time></trkpt><trkpt lat="45.1055288" lon="7.8902889"><ele>282.0</ele><time>2026-04-14T14:36:47.294Z</time></trkpt><trkpt lat="45.1054952" lon="7.8903918"><ele>283.0</ele><time>2026-04-14T14:36:50.285Z</time></trkpt><trkpt lat="45.1054514" lon="7.8904938"><ele>284.0</ele><time>2026-04-14T14:36:53.277Z</time></trkpt><trkpt lat="45.1053969" lon="7.8905859"><ele>285.0</ele><time>2026-04-14T14:36:56.271Z</time></trkpt><trkpt lat="45.1053475" lon="7.8906877"><ele>286.0</ele><time>2026-04-14T14:36:59.263Z</time></trkpt><trkpt lat="45.1052997" lon="7.8907944"><ele>287.0</ele><time>2026-04-14T14:37:02.255Z</time></trkpt><trkpt lat="45.1052534" lon="7.8908953"><ele>288.0</ele><time>2026-04-14T14:37:05.246Z</time></trkpt><trkpt lat="45.1052012" lon="7.8909882"><ele>289.8333333333333</ele><time>2026-04-14T14:37:08.24Z</time></trkpt><trkpt lat="45.1051411" lon="7.8910698"><ele>291.6666666666667</ele><time>2026-04-14T14:37:11.231Z</time></trkpt><trkpt lat="45.1050741" lon="7.8911465"><ele>293.5</ele><time>2026-04-14T14:37:14.222Z</time></trkpt><trkpt lat="45.1049999" lon="7.8912036"><ele>295.33333333333337</ele><time>2026-04-14T14:37:17.214Z</time></trkpt><trkpt lat="45.1049112" lon="7.891219"><ele>297.1666666666667</ele><time>2026-04-14T14:37:20.206Z</time></trkpt><trkpt lat="45.1048277" lon="7.8912232"><ele>299.0</ele><time>2026-04-14T14:37:23.319Z</time></trkpt><trkpt lat="45.1047515" lon="7.8912182"><ele>300.1666666666667</ele><time>2026-04-14T14:37:26.194Z</time></trkpt><trkpt lat="45.1046633" lon="7.8912047"><ele>301.33333333333337</ele><time>2026-04-14T14:37:29.304Z</time></trkpt><trkpt lat="45.1045779" lon="7.8911855"><ele>302.5</ele><time>2026-04-14T14:37:32.296Z</time></trkpt><trkpt lat="45.1044964" lon="7.8911799"><ele>303.6666666666667</ele><time>2026-04-14T14:37:35.288Z</time></trkpt><trkpt lat="45.1044122" lon="7.8911762"><ele>304.8333333333333</ele><time>2026-04-14T14:37:38.281Z</time></trkpt><trkpt lat="45.1043136" lon="7.8911596"><ele>306.0</ele><time>2026-04-14T14:37:41.694Z</time></trkpt><trkpt lat="45.1042496" lon="7.8911481"><ele>306.0</ele><time>2026-04-14T14:37:43.887Z</time></trkpt><trkpt lat="45.1041833" lon="7.8911378"><ele>306.0</ele><time>2026-04-14T14:37:46.182Z</time></trkpt><trkpt lat="45.1040967" lon="7.8911198"><ele>306.0</ele><time>2026-04-14T14:37:49.292Z</time></trkpt><trkpt lat="45.1040251" lon="7.8910875"><ele>306.0</ele><time>2026-04-14T14:37:52.286Z</time></trkpt><trkpt lat="45.1039494" lon="7.8910482"><ele>306.0</ele><time>2026-04-14T14:37:55.276Z</time></trkpt><trkpt lat="45.1038709" lon="7.8910182"><ele>306.0</ele><time>2026-04-14T14:37:58.268Z</time></trkpt><trkpt lat="45.1037849" lon="7.8909851"><ele>306.3333333333333</ele><time>2026-04-14T14:38:01.242Z</time></trkpt><trkpt lat="45.1037064" lon="7.8909444"><ele>306.6666666666667</ele><time>2026-04-14T14:38:04.252Z</time></trkpt><trkpt lat="45.1036323" lon="7.8908971"><ele>307.0</ele><time>2026-04-14T14:38:07.245Z</time></trkpt><trkpt lat="45.1035584" lon="7.8908502"><ele>307.33333333333337</ele><time>2026-04-14T14:38:10.356Z</time></trkpt><trkpt lat="45.1034878" lon="7.8908153"><ele>307.6666666666667</ele><time>2026-04-14T14:38:13.228Z</time></trkpt><trkpt lat="45.1034077" lon="7.890805"><ele>308.0</ele><time>2026-04-14T14:38:16.221Z</time></trkpt><trkpt lat="45.1033213" lon="7.8908232"><ele>309.83333333333337</ele><time>2026-04-14T14:38:19.213Z</time></trkpt><trkpt lat="45.1032434" lon="7.8908443"><ele>311.6666666666667</ele><time>2026-04-14T14:38:22.205Z</time></trkpt><trkpt lat="45.1031637" lon="7.890882"><ele>313.5</ele><time>2026-04-14T14:38:25.318Z</time></trkpt><trkpt lat="45.1030927" lon="7.8909415"><ele>315.3333333333333</ele><time>2026-04-14T14:38:28.311Z</time></trkpt><trkpt lat="45.1030317" lon="7.8910107"><ele>317.16666666666663</ele><time>2026-04-14T14:38:31.303Z</time></trkpt><trkpt lat="45.1029673" lon="7.8910924"><ele>319.0</ele><time>2026-04-14T14:38:34.296Z</time></trkpt><trkpt lat="45.1029131" lon="7.8911568"><ele>319.0</ele><time>2026-04-14T14:38:37.288Z</time></trkpt><trkpt lat="45.1028501" lon="7.8912215"><ele>319.0</ele><time>2026-04-14T14:38:40.28Z</time></trkpt><trkpt lat="45.1027805" lon="7.8912873"><ele>319.0</ele><time>2026-04-14T14:38:43.271Z</time></trkpt><trkpt lat="45.1026999" lon="7.8913372"><ele>319.0</ele><time>2026-04-14T14:38:46.264Z</time></trkpt><trkpt lat="45.1026277" lon="7.8913816"><ele>319.0</ele><time>2026-04-14T14:38:49.256Z</time></trkpt><trkpt lat="45.1025592" lon="7.8914075"><ele>319.0</ele><time>2026-04-14T14:38:52.248Z</time></trkpt><trkpt lat="45.1024801" lon="7.8914288"><ele>319.8333333333333</ele><time>2026-04-14T14:38:55.241Z</time></trkpt><trkpt lat="45.1024018" lon="7.8914539"><ele>320.66666666666663</ele><time>2026-04-14T14:38:58.233Z</time></trkpt><trkpt lat="45.1023152" lon="7.8914981"><ele>321.5</ele><time>2026-04-14T14:39:01.226Z</time></trkpt><trkpt lat="45.1022295" lon="7.8915294"><ele>322.3333333333333</ele><time>2026-04-14T14:39:04.218Z</time></trkpt><trkpt lat="45.1021539" lon="7.8915529"><ele>323.1666666666667</ele><time>2026-04-14T14:39:07.21Z</time></trkpt><trkpt lat="45.1020722" lon="7.8915548"><ele>324.0</ele><time>2026-04-14T14:39:10.322Z</time></trkpt><trkpt lat="45.1019929" lon="7.8915575"><ele>324.0</ele><time>2026-04-14T14:39:13.194Z</time></trkpt><trkpt lat="45.1019059" lon="7.8915562"><ele>324.0</ele><time>2026-04-14T14:39:16.306Z</time></trkpt><trkpt lat="45.1018268" lon="7.8915612"><ele>324.0</ele><time>2026-04-14T14:39:19.179Z</time></trkpt><trkpt lat="45.1017439" lon="7.891565"><ele>324.0</ele><time>2026-04-14T14:39:22.29Z</time></trkpt><trkpt lat="45.1016698" lon="7.8915426"><ele>324.0</ele><time>2026-04-14T14:39:25.282Z</time></trkpt><trkpt lat="45.1016023" lon="7.8915168"><ele>324.0</ele><time>2026-04-14T14:39:28.273Z</time></trkpt><trkpt lat="45.101535" lon="7.8914751"><ele>323.3333333333333</ele><time>2026-04-14T14:39:31.266Z</time></trkpt><trkpt lat="45.1014671" lon="7.8914477"><ele>322.6666666666667</ele><time>2026-04-14T14:39:34.257Z</time></trkpt><trkpt lat="45.1013952" lon="7.891417"><ele>322.0</ele><time>2026-04-14T14:39:37.251Z</time></trkpt><trkpt lat="45.1013211" lon="7.8913638"><ele>321.33333333333337</ele><time>2026-04-14T14:39:40.241Z</time></trkpt><trkpt lat="45.1012517" lon="7.8913184"><ele>320.6666666666667</ele><time>2026-04-14T14:39:43.234Z</time></trkpt><trkpt lat="45.101174" lon="7.8912934"><ele>320.0</ele><time>2026-04-14T14:39:46.225Z</time></trkpt><trkpt lat="45.1010979" lon="7.8912492"><ele>320.0</ele><time>2026-04-14T14:39:49.216Z</time></trkpt><trkpt lat="45.1010241" lon="7.8911874"><ele>320.0</ele><time>2026-04-14T14:39:52.207Z</time></trkpt><trkpt lat="45.1009535" lon="7.8911166"><ele>320.0</ele><time>2026-04-14T14:39:55.2Z</time></trkpt><trkpt lat="45.1008657" lon="7.8910758"><ele>320.0</ele><time>2026-04-14T14:39:58.312Z</time></trkpt><trkpt lat="45.1007916" lon="7.8910276"><ele>320.0</ele><time>2026-04-14T14:40:01.304Z</time></trkpt><trkpt lat="45.1007192" lon="7.8909687"><ele>320.0</ele><time>2026-04-14T14:40:04.295Z</time></trkpt><trkpt lat="45.1006518" lon="7.8909323"><ele>323.0</ele><time>2026-04-14T14:40:07.288Z</time></trkpt><trkpt lat="45.1005719" lon="7.8908967"><ele>326.0</ele><time>2026-04-14T14:40:10.28Z</time></trkpt><trkpt lat="45.1004922" lon="7.8908656"><ele>329.0</ele><time>2026-04-14T14:40:13.271Z</time></trkpt><trkpt lat="45.1004243" lon="7.8908129"><ele>332.0</ele><time>2026-04-14T14:40:16.264Z</time></trkpt><trkpt lat="45.1003541" lon="7.8907633"><ele>335.0</ele><time>2026-04-14T14:40:19.255Z</time></trkpt><trkpt lat="45.1002816" lon="7.8907069"><ele>338.0</ele><time>2026-04-14T14:40:22.248Z</time></trkpt><trkpt lat="45.1002134" lon="7.8906377"><ele>338.0</ele><time>2026-04-14T14:40:25.222Z</time></trkpt><trkpt lat="45.1001436" lon="7.8905654"><ele>338.0</ele><time>2026-04-14T14:40:28.231Z</time></trkpt><trkpt lat="45.1000806" lon="7.8904963"><ele>338.0</ele><time>2026-04-14T14:40:31.223Z</time></trkpt><trkpt lat="45.1000104" lon="7.8904399"><ele>338.0</ele><time>2026-04-14T14:40:34.215Z</time></trkpt><trkpt lat="45.0999449" lon="7.8903886"><ele>338.0</ele><time>2026-04-14T14:40:37.208Z</time></trkpt><trkpt lat="45.0998763" lon="7.8903468"><ele>338.0</ele><time>2026-04-14T14:40:40.2Z</time></trkpt><trkpt lat="45.0998034" lon="7.8903115"><ele>341.1666666666667</ele><time>2026-04-14T14:40:43.194Z</time></trkpt><trkpt lat="45.0997221" lon="7.8902762"><ele>344.33333333333337</ele><time>2026-04-14T14:40:46.303Z</time></trkpt><trkpt lat="45.0996457" lon="7.8902473"><ele>347.5</ele><time>2026-04-14T14:40:49.295Z</time></trkpt><trkpt lat="45.0995677" lon="7.8902187"><ele>350.6666666666667</ele><time>2026-04-14T14:40:52.288Z</time></trkpt><trkpt lat="45.099489" lon="7.8901931"><ele>353.8333333333333</ele><time>2026-04-14T14:40:55.278Z</time></trkpt><trkpt lat="45.0994104" lon="7.8901955"><ele>357.0</ele><time>2026-04-14T14:40:58.27Z</time></trkpt><trkpt lat="45.0993272" lon="7.8901969"><ele>357.0</ele><time>2026-04-14T14:41:01.263Z</time></trkpt><trkpt lat="45.0992485" lon="7.890191"><ele>357.0</ele><time>2026-04-14T14:41:04.253Z</time></trkpt><trkpt lat="45.0991688" lon="7.890214"><ele>357.0</ele><time>2026-04-14T14:41:07.245Z</time></trkpt><trkpt lat="45.0990885" lon="7.890228"><ele>357.0</ele><time>2026-04-14T14:41:10.237Z</time></trkpt><trkpt lat="45.0990045" lon="7.8901962"><ele>357.0</ele><time>2026-04-14T14:41:13.348Z</time></trkpt><trkpt lat="45.0989274" lon="7.8901675"><ele>357.0</ele><time>2026-04-14T14:41:16.22Z</time></trkpt><trkpt lat="45.0988475" lon="7.8901373"><ele>357.5</ele><time>2026-04-14T14:41:19.21Z</time></trkpt><trkpt lat="45.0987688" lon="7.8901013"><ele>358.0</ele><time>2026-04-14T14:41:22.202Z</time></trkpt><trkpt lat="45.0986866" lon="7.8900579"><ele>358.5</ele><time>2026-04-14T14:41:25.193Z</time></trkpt><trkpt lat="45.0986087" lon="7.8900098"><ele>359.0</ele><time>2026-04-14T14:41:28.304Z</time></trkpt><trkpt lat="45.0985369" lon="7.8899537"><ele>359.5</ele><time>2026-04-14T14:41:31.297Z</time></trkpt><trkpt lat="45.0984684" lon="7.8898919"><ele>360.0</ele><time>2026-04-14T14:41:34.269Z</time></trkpt><trkpt lat="45.0983965" lon="7.8898563"><ele>360.0</ele><time>2026-04-14T14:41:37.279Z</time></trkpt><trkpt lat="45.0983169" lon="7.8898373"><ele>360.0</ele><time>2026-04-14T14:41:40.27Z</time></trkpt><trkpt lat="45.0982305" lon="7.889828"><ele>360.0</ele><time>2026-04-14T14:41:43.262Z</time></trkpt><trkpt lat="45.0981507" lon="7.8898535"><ele>360.0</ele><time>2026-04-14T14:41:46.255Z</time></trkpt><trkpt lat="45.0980795" lon="7.889915"><ele>360.0</ele><time>2026-04-14T14:41:49.246Z</time></trkpt><trkpt lat="45.0980241" lon="7.8899802"><ele>360.0</ele><time>2026-04-14T14:41:52.238Z</time></trkpt><trkpt lat="45.0979736" lon="7.8900496"><ele>365.6666666666667</ele><time>2026-04-14T14:41:55.229Z</time></trkpt><trkpt lat="45.0979105" lon="7.8901189"><ele>371.33333333333337</ele><time>2026-04-14T14:41:58.22Z</time></trkpt><trkpt lat="45.0978457" lon="7.8901909"><ele>377.0</ele><time>2026-04-14T14:42:01.212Z</time></trkpt><trkpt lat="45.097773" lon="7.8902298"><ele>382.6666666666667</ele><time>2026-04-14T14:42:04.205Z</time></trkpt><trkpt lat="45.0976959" lon="7.8902467"><ele>388.33333333333337</ele><time>2026-04-14T14:42:07.197Z</time></trkpt><trkpt lat="45.0976255" lon="7.8902588"><ele>394.0</ele><time>2026-04-14T14:42:10.195Z</time></trkpt><trkpt lat="45.0975393" lon="7.8902679"><ele>394.00000000000006</ele><time>2026-04-14T14:42:13.282Z</time></trkpt><trkpt lat="45.0974541" lon="7.8902814"><ele>394.0</ele><time>2026-04-14T14:42:16.292Z</time></trkpt><trkpt lat="45.0973686" lon="7.8902735"><ele>394.0</ele><time>2026-04-14T14:42:19.283Z</time></trkpt><trkpt lat="45.0972904" lon="7.8902544"><ele>394.0</ele><time>2026-04-14T14:42:22.274Z</time></trkpt><trkpt lat="45.0972109" lon="7.8902288"><ele>394.00000000000006</ele><time>2026-04-14T14:42:26.222Z</time></trkpt><trkpt lat="45.0971262" lon="7.8902021"><ele>394.0</ele><time>2026-04-14T14:42:29.213Z</time></trkpt><trkpt lat="45.0970689" lon="7.8901642"><ele>394.50000000000006</ele><time>2026-04-14T14:42:31.247Z</time></trkpt><trkpt lat="45.0970142" lon="7.8901195"><ele>395.0</ele><time>2026-04-14T14:42:33.282Z</time></trkpt><trkpt lat="45.0969398" lon="7.8900575"><ele>395.5</ele><time>2026-04-14T14:42:36.273Z</time></trkpt><trkpt lat="45.0968687" lon="7.8899905"><ele>396.0</ele><time>2026-04-14T14:42:39.263Z</time></trkpt><trkpt lat="45.0968051" lon="7.8899363"><ele>396.50000000000006</ele><time>2026-04-14T14:42:42.256Z</time></trkpt><trkpt lat="45.0967267" lon="7.8899191"><ele>397.0</ele><time>2026-04-14T14:42:45.247Z</time></trkpt><trkpt lat="45.0966372" lon="7.8899225"><ele>395.1666666666667</ele><time>2026-04-14T14:42:48.238Z</time></trkpt><trkpt lat="45.0965542" lon="7.8899359"><ele>393.33333333333337</ele><time>2026-04-14T14:42:51.23Z</time></trkpt><trkpt lat="45.096479" lon="7.8899725"><ele>391.5</ele><time>2026-04-14T14:42:54.221Z</time></trkpt><trkpt lat="45.0963967" lon="7.8899865"><ele>389.66666666666663</ele><time>2026-04-14T14:42:57.214Z</time></trkpt><trkpt lat="45.0963168" lon="7.8900118"><ele>387.8333333333333</ele><time>2026-04-14T14:43:00.204Z</time></trkpt><trkpt lat="45.0962438" lon="7.8900564"><ele>386.0</ele><time>2026-04-14T14:43:03.196Z</time></trkpt><trkpt lat="45.096169" lon="7.8900928"><ele>386.0</ele><time>2026-04-14T14:43:06.194Z</time></trkpt><trkpt lat="45.0960887" lon="7.890123"><ele>386.0</ele><time>2026-04-14T14:43:09.3Z</time></trkpt><trkpt lat="45.0960119" lon="7.8901295"><ele>386.0</ele><time>2026-04-14T14:43:12.29Z</time></trkpt><trkpt lat="45.09595" lon="7.8900213"><ele>386.0</ele><time>2026-04-14T14:43:15.283Z</time></trkpt><trkpt lat="45.0958806" lon="7.88988"><ele>386.0</ele><time>2026-04-14T14:43:17.194Z</time></trkpt><trkpt lat="45.0958307" lon="7.8897958"><ele>385.3333333333333</ele><time>2026-04-14T14:43:18.194Z</time></trkpt><trkpt lat="45.0957779" lon="7.8897092"><ele>384.66666666666663</ele><time>2026-04-14T14:43:19.193Z</time></trkpt><trkpt lat="45.0957214" lon="7.8896219"><ele>384.0</ele><time>2026-04-14T14:43:20.194Z</time></trkpt><trkpt lat="45.0956644" lon="7.8895288"><ele>383.3333333333333</ele><time>2026-04-14T14:43:21.194Z</time></trkpt><trkpt lat="45.0956088" lon="7.8894357"><ele>382.66666666666663</ele><time>2026-04-14T14:43:22.194Z</time></trkpt><trkpt lat="45.0955565" lon="7.8893376"><ele>382.0</ele><time>2026-04-14T14:43:23.193Z</time></trkpt><trkpt lat="45.0955113" lon="7.8892308"><ele>385.3333333333333</ele><time>2026-04-14T14:43:24.195Z</time></trkpt><trkpt lat="45.0954738" lon="7.8891192"><ele>388.66666666666663</ele><time>2026-04-14T14:43:25.194Z</time></trkpt><trkpt lat="45.0954487" lon="7.8889975"><ele>392.0</ele><time>2026-04-14T14:43:26.194Z</time></trkpt><trkpt lat="45.0954425" lon="7.8888747"><ele>395.3333333333333</ele><time>2026-04-14T14:43:27.194Z</time></trkpt><trkpt lat="45.0954575" lon="7.888755"><ele>398.6666666666667</ele><time>2026-04-14T14:43:28.195Z</time></trkpt><trkpt lat="45.0954752" lon="7.888643"><ele>402.0</ele><time>2026-04-14T14:43:29.195Z</time></trkpt><trkpt lat="45.0954925" lon="7.8885399"><ele>402.0</ele><time>2026-04-14T14:43:30.196Z</time></trkpt><trkpt lat="45.0955131" lon="7.8884443"><ele>402.0</ele><time>2026-04-14T14:43:31.197Z</time></trkpt><trkpt lat="45.0955299" lon="7.8883543"><ele>402.0</ele><time>2026-04-14T14:43:32.195Z</time></trkpt><trkpt lat="45.0955609" lon="7.8881955"><ele>402.0</ele><time>2026-04-14T14:43:34.196Z</time></trkpt><trkpt lat="45.0955948" lon="7.8880597"><ele>402.0</ele><time>2026-04-14T14:43:36.195Z</time></trkpt><trkpt lat="45.0956384" lon="7.8879625"><ele>402.0</ele><time>2026-04-14T14:43:38.197Z</time></trkpt><trkpt lat="45.0956849" lon="7.8878891"><ele>401.6666666666667</ele><time>2026-04-14T14:43:40.196Z</time></trkpt><trkpt lat="45.0957323" lon="7.8878233"><ele>401.33333333333337</ele><time>2026-04-14T14:43:43.292Z</time></trkpt><trkpt lat="45.0958021" lon="7.8877321"><ele>401.0</ele><time>2026-04-14T14:43:46.285Z</time></trkpt><trkpt lat="45.0958793" lon="7.8876769"><ele>400.6666666666667</ele><time>2026-04-14T14:43:49.276Z</time></trkpt><trkpt lat="45.0959465" lon="7.8876346"><ele>400.33333333333337</ele><time>2026-04-14T14:43:52.269Z</time></trkpt><trkpt lat="45.0960027" lon="7.8875744"><ele>400.0</ele><time>2026-04-14T14:43:55.26Z</time></trkpt><trkpt lat="45.0960614" lon="7.8875077"><ele>397.6666666666667</ele><time>2026-04-14T14:43:58.253Z</time></trkpt><trkpt lat="45.096084" lon="7.887393"><ele>395.33333333333337</ele><time>2026-04-14T14:44:01.244Z</time></trkpt><trkpt lat="45.0960419" lon="7.8872887"><ele>393.0</ele><time>2026-04-14T14:44:04.197Z</time></trkpt><trkpt lat="45.095977" lon="7.8872174"><ele>390.66666666666663</ele><time>2026-04-14T14:44:07.228Z</time></trkpt><trkpt lat="45.0959119" lon="7.8871534"><ele>388.3333333333333</ele><time>2026-04-14T14:44:10.22Z</time></trkpt><trkpt lat="45.0958548" lon="7.8870757"><ele>386.0</ele><time>2026-04-14T14:44:13.211Z</time></trkpt><trkpt lat="45.0957935" lon="7.8869838"><ele>391.3333333333333</ele><time>2026-04-14T14:44:16.202Z</time></trkpt><trkpt lat="45.0957358" lon="7.8869031"><ele>396.66666666666663</ele><time>2026-04-14T14:44:19.195Z</time></trkpt><trkpt lat="45.0956729" lon="7.8868325"><ele>402.0</ele><time>2026-04-14T14:44:22.307Z</time></trkpt><trkpt lat="45.0956058" lon="7.8867768"><ele>407.33333333333337</ele><time>2026-04-14T14:44:25.298Z</time></trkpt><trkpt lat="45.0955462" lon="7.8866872"><ele>412.6666666666667</ele><time>2026-04-14T14:44:28.289Z</time></trkpt><trkpt lat="45.0955124" lon="7.8865659"><ele>418.0</ele><time>2026-04-14T14:44:31.282Z</time></trkpt><trkpt lat="45.0955125" lon="7.8864445"><ele>418.00000000000006</ele><time>2026-04-14T14:44:34.273Z</time></trkpt><trkpt lat="45.0955106" lon="7.8863222"><ele>418.0</ele><time>2026-04-14T14:44:37.264Z</time></trkpt><trkpt lat="45.0955012" lon="7.8861997"><ele>418.0</ele><time>2026-04-14T14:44:40.256Z</time></trkpt><trkpt lat="45.0954914" lon="7.8860792"><ele>418.0</ele><time>2026-04-14T14:44:43.248Z</time></trkpt><trkpt lat="45.0954358" lon="7.8859902"><ele>418.00000000000006</ele><time>2026-04-14T14:44:46.241Z</time></trkpt><trkpt lat="45.0953968" lon="7.8858816"><ele>418.0</ele><time>2026-04-14T14:44:49.233Z</time></trkpt><trkpt lat="45.0952936" lon="7.8857483"><ele>416.6666666666667</ele><time>2026-04-14T14:44:52.195Z</time></trkpt><trkpt lat="45.0952431" lon="7.8856872"><ele>415.33333333333337</ele><time>2026-04-14T14:44:53.194Z</time></trkpt><trkpt lat="45.0951859" lon="7.8856191"><ele>414.0</ele><time>2026-04-14T14:44:54.195Z</time></trkpt><trkpt lat="45.0951237" lon="7.8855432"><ele>412.66666666666663</ele><time>2026-04-14T14:44:55.195Z</time></trkpt><trkpt lat="45.0950582" lon="7.8854578"><ele>411.3333333333333</ele><time>2026-04-14T14:44:56.195Z</time></trkpt><trkpt lat="45.0949871" lon="7.8853596"><ele>410.0</ele><time>2026-04-14T14:44:57.194Z</time></trkpt><trkpt lat="45.0949188" lon="7.8852451"><ele>410.0</ele><time>2026-04-14T14:44:58.194Z</time></trkpt><trkpt lat="45.0948527" lon="7.8851198"><ele>410.0</ele><time>2026-04-14T14:44:59.194Z</time></trkpt><trkpt lat="45.0947861" lon="7.884985"><ele>410.0</ele><time>2026-04-14T14:45:00.193Z</time></trkpt><trkpt lat="45.0947205" lon="7.8848525"><ele>410.0</ele><time>2026-04-14T14:45:01.192Z</time></trkpt><trkpt lat="45.0946554" lon="7.8847224"><ele>405.6</ele><time>2026-04-14T14:45:02.193Z</time></trkpt><trkpt lat="45.0946007" lon="7.8845918"><ele>401.2</ele><time>2026-04-14T14:45:03.195Z</time></trkpt><trkpt lat="45.094551" lon="7.8844637"><ele>396.79999999999995</ele><time>2026-04-14T14:45:04.194Z</time></trkpt><trkpt lat="45.0945101" lon="7.8843275"><ele>392.4</ele><time>2026-04-14T14:45:05.193Z</time></trkpt><trkpt lat="45.094477" lon="7.8841852"><ele>388.0</ele><time>2026-04-14T14:45:06.192Z</time></trkpt><trkpt lat="45.0944574" lon="7.8840427"><ele>384.4</ele><time>2026-04-14T14:45:07.194Z</time></trkpt><trkpt lat="45.0944504" lon="7.8839005"><ele>380.79999999999995</ele><time>2026-04-14T14:45:08.194Z</time></trkpt><trkpt lat="45.0944497" lon="7.8837597"><ele>377.2</ele><time>2026-04-14T14:45:09.194Z</time></trkpt><trkpt lat="45.0944506" lon="7.8836249"><ele>373.6</ele><time>2026-04-14T14:45:10.193Z</time></trkpt><trkpt lat="45.094447" lon="7.8834945"><ele>370.0</ele><time>2026-04-14T14:45:11.194Z</time></trkpt><trkpt lat="45.0944365" lon="7.8833719"><ele>369.99999999999994</ele><time>2026-04-14T14:45:12.194Z</time></trkpt><trkpt lat="45.0944217" lon="7.8832553"><ele>370.0</ele><time>2026-04-14T14:45:13.194Z</time></trkpt><trkpt lat="45.0944023" lon="7.8831455"><ele>370.0</ele><time>2026-04-14T14:45:14.193Z</time></trkpt><trkpt lat="45.0943782" lon="7.883042"><ele>370.0</ele><time>2026-04-14T14:45:15.194Z</time></trkpt><trkpt lat="45.0943485" lon="7.8829492"><ele>370.0</ele><time>2026-04-14T14:45:16.194Z</time></trkpt><trkpt lat="45.0943189" lon="7.8828619"><ele>369.99999999999994</ele><time>2026-04-14T14:45:17.194Z</time></trkpt><trkpt lat="45.094289" lon="7.8827818"><ele>370.0</ele><time>2026-04-14T14:45:18.192Z</time></trkpt><trkpt lat="45.0942362" lon="7.8826415"><ele>370.8333333333333</ele><time>2026-04-14T14:45:20.192Z</time></trkpt><trkpt lat="45.0941894" lon="7.882522"><ele>371.66666666666663</ele><time>2026-04-14T14:45:22.193Z</time></trkpt><trkpt lat="45.0941547" lon="7.8824448"><ele>372.5</ele><time>2026-04-14T14:45:24.195Z</time></trkpt><trkpt lat="45.0941071" lon="7.88236"><ele>373.3333333333333</ele><time>2026-04-14T14:45:27.193Z</time></trkpt><trkpt lat="45.0940588" lon="7.8822997"><ele>374.1666666666667</ele><time>2026-04-14T14:45:30.194Z</time></trkpt><trkpt lat="45.0939887" lon="7.8822292"><ele>375.0</ele><time>2026-04-14T14:45:32.68Z</time></trkpt><trkpt lat="45.0939121" lon="7.8822006"><ele>375.0</ele><time>2026-04-14T14:45:35.31Z</time></trkpt><trkpt lat="45.0938286" lon="7.8821829"><ele>375.0</ele><time>2026-04-14T14:45:38.302Z</time></trkpt><trkpt lat="45.0937468" lon="7.882155"><ele>375.0</ele><time>2026-04-14T14:45:41.292Z</time></trkpt><trkpt lat="45.0936836" lon="7.8820827"><ele>375.0</ele><time>2026-04-14T14:45:44.283Z</time></trkpt><trkpt lat="45.0936311" lon="7.8819978"><ele>375.0</ele><time>2026-04-14T14:45:47.276Z</time></trkpt><trkpt lat="45.0935717" lon="7.8819272"><ele>375.0</ele><time>2026-04-14T14:45:50.266Z</time></trkpt><trkpt lat="45.0935097" lon="7.8818562"><ele>375.0</ele><time>2026-04-14T14:45:53.258Z</time></trkpt><trkpt lat="45.0934502" lon="7.8817883"><ele>375.0</ele><time>2026-04-14T14:45:56.251Z</time></trkpt><trkpt lat="45.0933894" lon="7.8817202"><ele>375.0</ele><time>2026-04-14T14:45:59.242Z</time></trkpt><trkpt lat="45.0933205" lon="7.8816539"><ele>375.0</ele><time>2026-04-14T14:46:02.353Z</time></trkpt><trkpt lat="45.0932439" lon="7.8815512"><ele>375.0</ele><time>2026-04-14T14:46:06.303Z</time></trkpt><trkpt lat="45.093232" lon="7.8814505"><ele>375.0</ele><time>2026-04-14T14:46:09.285Z</time></trkpt><trkpt lat="45.0932991" lon="7.8813779"><ele>377.0</ele><time>2026-04-14T14:46:12.276Z</time></trkpt><trkpt lat="45.0933567" lon="7.8814144"><ele>379.0</ele><time>2026-04-14T14:46:14.194Z</time></trkpt><trkpt lat="45.0934175" lon="7.8814918"><ele>381.0</ele><time>2026-04-14T14:46:17.303Z</time></trkpt><trkpt lat="45.0934753" lon="7.8815738"><ele>383.0</ele><time>2026-04-14T14:46:20.295Z</time></trkpt><trkpt lat="45.0935521" lon="7.8816269"><ele>385.0</ele><time>2026-04-14T14:46:23.288Z</time></trkpt><trkpt lat="45.0936264" lon="7.8816391"><ele>387.0</ele><time>2026-04-14T14:46:26.28Z</time></trkpt><trkpt lat="45.0937002" lon="7.881603"><ele>387.0</ele><time>2026-04-14T14:46:29.272Z</time></trkpt><trkpt lat="45.0937593" lon="7.8815285"><ele>387.0</ele><time>2026-04-14T14:46:32.263Z</time></trkpt><trkpt lat="45.0938157" lon="7.8814556"><ele>387.0</ele><time>2026-04-14T14:46:35.256Z</time></trkpt><trkpt lat="45.0938689" lon="7.881381"><ele>387.0</ele><time>2026-04-14T14:46:38.247Z</time></trkpt><trkpt lat="45.0939225" lon="7.8813113"><ele>387.0</ele><time>2026-04-14T14:46:41.24Z</time></trkpt><trkpt lat="45.0939743" lon="7.8812349"><ele>387.0</ele><time>2026-04-14T14:46:45.309Z</time></trkpt><trkpt lat="45.0940352" lon="7.8811838"><ele>387.0</ele><time>2026-04-14T14:46:48.3Z</time></trkpt><trkpt lat="45.094089" lon="7.881121"><ele>387.57142857142856</ele><time>2026-04-14T14:46:51.293Z</time></trkpt><trkpt lat="45.0941336" lon="7.8810471"><ele>388.14285714285717</ele><time>2026-04-14T14:46:54.284Z</time></trkpt><trkpt lat="45.0941923" lon="7.8809686"><ele>388.71428571428567</ele><time>2026-04-14T14:46:58.234Z</time></trkpt><trkpt lat="45.0942416" lon="7.8809001"><ele>389.2857142857143</ele><time>2026-04-14T14:47:01.227Z</time></trkpt><trkpt lat="45.0942949" lon="7.8808433"><ele>389.85714285714283</ele><time>2026-04-14T14:47:04.219Z</time></trkpt><trkpt lat="45.0943392" lon="7.8807552"><ele>390.4285714285714</ele><time>2026-04-14T14:47:07.21Z</time></trkpt><trkpt lat="45.0943997" lon="7.8806884"><ele>391.0</ele><time>2026-04-14T14:47:10.202Z</time></trkpt><trkpt lat="45.0944526" lon="7.8806072"><ele>392.99999999999994</ele><time>2026-04-14T14:47:14.272Z</time></trkpt><trkpt lat="45.0945057" lon="7.8805573"><ele>395.0</ele><time>2026-04-14T14:47:18.22Z</time></trkpt><trkpt lat="45.0945565" lon="7.8804885"><ele>397.0</ele><time>2026-04-14T14:47:23.248Z</time></trkpt><trkpt lat="45.0946054" lon="7.8804156"><ele>399.0</ele><time>2026-04-14T14:47:27.198Z</time></trkpt><trkpt lat="45.0946595" lon="7.8803529"><ele>401.0</ele><time>2026-04-14T14:47:32.224Z</time></trkpt><trkpt lat="45.0947041" lon="7.8802895"><ele>402.99999999999994</ele><time>2026-04-14T14:47:35.239Z</time></trkpt><trkpt lat="45.0947543" lon="7.8802008"><ele>405.0</ele><time>2026-04-14T14:47:39.266Z</time></trkpt><trkpt lat="45.0948062" lon="7.8801371"><ele>406.85714285714283</ele><time>2026-04-14T14:47:44.311Z</time></trkpt><trkpt lat="45.094848" lon="7.8800604"><ele>408.7142857142857</ele><time>2026-04-14T14:47:49.219Z</time></trkpt><trkpt lat="45.0948969" lon="7.8799776"><ele>410.57142857142856</ele><time>2026-04-14T14:47:54.246Z</time></trkpt><trkpt lat="45.0949375" lon="7.8798984"><ele>412.42857142857144</ele><time>2026-04-14T14:47:58.313Z</time></trkpt><trkpt lat="45.0949802" lon="7.8798301"><ele>414.2857142857143</ele><time>2026-04-14T14:48:03.162Z</time></trkpt><trkpt lat="45.0950359" lon="7.8797465"><ele>416.1428571428571</ele><time>2026-04-14T14:48:07.289Z</time></trkpt><trkpt lat="45.0950666" lon="7.8796517"><ele>418.0</ele><time>2026-04-14T14:48:11.239Z</time></trkpt><trkpt lat="45.0950112" lon="7.8797496"><ele>418.0</ele><time>2026-04-14T14:48:18.3Z</time></trkpt><trkpt lat="45.0949668" lon="7.879889"><ele>418.0</ele><time>2026-04-14T14:48:20.194Z</time></trkpt><trkpt lat="45.0949696" lon="7.8800426"><ele>418.0</ele><time>2026-04-14T14:48:22.201Z</time></trkpt><trkpt lat="45.095009" lon="7.8802102"><ele>418.0</ele><time>2026-04-14T14:48:24.194Z</time></trkpt><trkpt lat="45.0950301" lon="7.8803026"><ele>418.0</ele><time>2026-04-14T14:48:25.194Z</time></trkpt><trkpt lat="45.0950516" lon="7.8804007"><ele>416.1666666666667</ele><time>2026-04-14T14:48:26.195Z</time></trkpt><trkpt lat="45.095075" lon="7.880503"><ele>414.33333333333337</ele><time>2026-04-14T14:48:27.195Z</time></trkpt><trkpt lat="45.0951054" lon="7.8806096"><ele>412.5</ele><time>2026-04-14T14:48:28.195Z</time></trkpt><trkpt lat="45.095145" lon="7.8807128"><ele>410.66666666666663</ele><time>2026-04-14T14:48:29.193Z</time></trkpt><trkpt lat="45.0951901" lon="7.8808103"><ele>408.8333333333333</ele><time>2026-04-14T14:48:30.193Z</time></trkpt><trkpt lat="45.095234" lon="7.8808954"><ele>407.0</ele><time>2026-04-14T14:48:31.193Z</time></trkpt><trkpt lat="45.0952666" lon="7.8809737"><ele>407.0</ele><time>2026-04-14T14:48:32.193Z</time></trkpt><trkpt lat="45.095276" lon="7.8811076"><ele>407.0</ele><time>2026-04-14T14:48:34.192Z</time></trkpt><trkpt lat="45.0951862" lon="7.8811016"><ele>407.0</ele><time>2026-04-14T14:48:36.194Z</time></trkpt><trkpt lat="45.0950965" lon="7.8809786"><ele>407.0</ele><time>2026-04-14T14:48:38.194Z</time></trkpt><trkpt lat="45.095053" lon="7.8809015"><ele>407.0</ele><time>2026-04-14T14:48:39.192Z</time></trkpt><trkpt lat="45.0950074" lon="7.8808253"><ele>406.99999999999994</ele><time>2026-04-14T14:48:40.192Z</time></trkpt><trkpt lat="45.0949547" lon="7.8807581"><ele>407.0</ele><time>2026-04-14T14:48:41.192Z</time></trkpt><trkpt lat="45.0948931" lon="7.8806986"><ele>407.0</ele><time>2026-04-14T14:48:42.193Z</time></trkpt><trkpt lat="45.0948214" lon="7.8806534"><ele>407.0</ele><time>2026-04-14T14:48:43.193Z</time></trkpt><trkpt lat="45.094744" lon="7.8806247"><ele>406.99999999999994</ele><time>2026-04-14T14:48:44.193Z</time></trkpt><trkpt lat="45.0946637" lon="7.8806142"><ele>407.0</ele><time>2026-04-14T14:48:45.194Z</time></trkpt><trkpt lat="45.0945787" lon="7.8806179"><ele>406.6</ele><time>2026-04-14T14:48:46.194Z</time></trkpt><trkpt lat="45.0944914" lon="7.8806304"><ele>406.20000000000005</ele><time>2026-04-14T14:48:47.195Z</time></trkpt><trkpt lat="45.0944042" lon="7.8806623"><ele>405.8</ele><time>2026-04-14T14:48:48.194Z</time></trkpt><trkpt lat="45.0943217" lon="7.8807202"><ele>405.4</ele><time>2026-04-14T14:48:49.195Z</time></trkpt><trkpt lat="45.0942455" lon="7.8807995"><ele>405.0</ele><time>2026-04-14T14:48:50.194Z</time></trkpt><trkpt lat="45.0941737" lon="7.88089"><ele>402.2</ele><time>2026-04-14T14:48:51.194Z</time></trkpt><trkpt lat="45.0941024" lon="7.880985"><ele>399.4</ele><time>2026-04-14T14:48:52.195Z</time></trkpt><trkpt lat="45.0940283" lon="7.8810837"><ele>396.6</ele><time>2026-04-14T14:48:53.194Z</time></trkpt><trkpt lat="45.0939521" lon="7.8811804"><ele>393.8</ele><time>2026-04-14T14:48:54.195Z</time></trkpt><trkpt lat="45.0938676" lon="7.8812827"><ele>391.0</ele><time>2026-04-14T14:48:55.194Z</time></trkpt><trkpt lat="45.0937861" lon="7.8813853"><ele>390.33333333333337</ele><time>2026-04-14T14:48:56.194Z</time></trkpt><trkpt lat="45.0937073" lon="7.8814753"><ele>389.6666666666667</ele><time>2026-04-14T14:48:57.194Z</time></trkpt><trkpt lat="45.0936287" lon="7.8815383"><ele>389.0</ele><time>2026-04-14T14:48:58.193Z</time></trkpt><trkpt lat="45.0935537" lon="7.8815591"><ele>388.33333333333337</ele><time>2026-04-14T14:48:59.194Z</time></trkpt><trkpt lat="45.0934814" lon="7.8815298"><ele>387.6666666666667</ele><time>2026-04-14T14:49:00.194Z</time></trkpt><trkpt lat="45.0934154" lon="7.8814643"><ele>387.0</ele><time>2026-04-14T14:49:01.194Z</time></trkpt><trkpt lat="45.0933528" lon="7.8814014"><ele>387.0</ele><time>2026-04-14T14:49:02.202Z</time></trkpt><trkpt lat="45.0932906" lon="7.881357"><ele>387.0</ele><time>2026-04-14T14:49:03.194Z</time></trkpt><trkpt lat="45.0931862" lon="7.8814129"><ele>387.0</ele><time>2026-04-14T14:49:05.194Z</time></trkpt><trkpt lat="45.0931906" lon="7.8815064"><ele>387.0</ele><time>2026-04-14T14:49:06.192Z</time></trkpt><trkpt lat="45.0932272" lon="7.881602"><ele>387.0</ele><time>2026-04-14T14:49:07.193Z</time></trkpt><trkpt lat="45.0932822" lon="7.8816825"><ele>387.0</ele><time>2026-04-14T14:49:08.194Z</time></trkpt><trkpt lat="45.0933443" lon="7.8817578"><ele>385.0</ele><time>2026-04-14T14:49:09.194Z</time></trkpt><trkpt lat="45.0934094" lon="7.8818343"><ele>383.0</ele><time>2026-04-14T14:49:10.195Z</time></trkpt><trkpt lat="45.0934774" lon="7.8819141"><ele>381.0</ele><time>2026-04-14T14:49:11.194Z</time></trkpt><trkpt lat="45.0935463" lon="7.8819912"><ele>379.0</ele><time>2026-04-14T14:49:12.192Z</time></trkpt><trkpt lat="45.0936153" lon="7.8820724"><ele>377.0</ele><time>2026-04-14T14:49:13.193Z</time></trkpt><trkpt lat="45.0936911" lon="7.8821477"><ele>375.0</ele><time>2026-04-14T14:49:14.194Z</time></trkpt><trkpt lat="45.0937797" lon="7.8822061"><ele>375.0</ele><time>2026-04-14T14:49:15.193Z</time></trkpt><trkpt lat="45.0938769" lon="7.8822456"><ele>375.0</ele><time>2026-04-14T14:49:16.195Z</time></trkpt><trkpt lat="45.093975" lon="7.8822894"><ele>375.0</ele><time>2026-04-14T14:49:17.196Z</time></trkpt><trkpt lat="45.0940624" lon="7.8823692"><ele>375.0</ele><time>2026-04-14T14:49:18.195Z</time></trkpt><trkpt lat="45.0941343" lon="7.8824809"><ele>375.0</ele><time>2026-04-14T14:49:19.194Z</time></trkpt><trkpt lat="45.0941902" lon="7.8826122"><ele>374.0</ele><time>2026-04-14T14:49:20.195Z</time></trkpt><trkpt lat="45.0942394" lon="7.8827518"><ele>373.0</ele><time>2026-04-14T14:49:21.196Z</time></trkpt><trkpt lat="45.0942853" lon="7.8828927"><ele>372.0</ele><time>2026-04-14T14:49:22.195Z</time></trkpt><trkpt lat="45.0943253" lon="7.8830315"><ele>371.0</ele><time>2026-04-14T14:49:23.196Z</time></trkpt><trkpt lat="45.0943598" lon="7.8831678"><ele>370.0</ele><time>2026-04-14T14:49:24.195Z</time></trkpt><trkpt lat="45.0943856" lon="7.8833047"><ele>370.0</ele><time>2026-04-14T14:49:25.193Z</time></trkpt><trkpt lat="45.0944041" lon="7.8834416"><ele>370.0</ele><time>2026-04-14T14:49:26.193Z</time></trkpt><trkpt lat="45.0944141" lon="7.8835753"><ele>370.0</ele><time>2026-04-14T14:49:27.194Z</time></trkpt><trkpt lat="45.0944172" lon="7.8837045"><ele>370.0</ele><time>2026-04-14T14:49:28.193Z</time></trkpt><trkpt lat="45.0944141" lon="7.8838322"><ele>370.0</ele><time>2026-04-14T14:49:29.194Z</time></trkpt><trkpt lat="45.0944139" lon="7.8839524"><ele>370.0</ele><time>2026-04-14T14:49:30.194Z</time></trkpt><trkpt lat="45.0944192" lon="7.8840644"><ele>370.0</ele><time>2026-04-14T14:49:31.193Z</time></trkpt><trkpt lat="45.0944292" lon="7.8841642"><ele>370.0</ele><time>2026-04-14T14:49:32.194Z</time></trkpt><trkpt lat="45.0944444" lon="7.8842557"><ele>370.0</ele><time>2026-04-14T14:49:33.193Z</time></trkpt><trkpt lat="45.0944674" lon="7.8843393"><ele>370.0</ele><time>2026-04-14T14:49:34.194Z</time></trkpt><trkpt lat="45.0945295" lon="7.8844827"><ele>370.0</ele><time>2026-04-14T14:49:36.194Z</time></trkpt><trkpt lat="45.0945857" lon="7.8846063"><ele>373.0</ele><time>2026-04-14T14:49:38.194Z</time></trkpt><trkpt lat="45.0946388" lon="7.884718"><ele>376.0</ele><time>2026-04-14T14:49:40.193Z</time></trkpt><trkpt lat="45.0946847" lon="7.8848033"><ele>379.0</ele><time>2026-04-14T14:49:42.193Z</time></trkpt><trkpt lat="45.0947268" lon="7.8848886"><ele>382.0</ele><time>2026-04-14T14:49:44.195Z</time></trkpt><trkpt lat="45.094767" lon="7.8849776"><ele>385.00000000000006</ele><time>2026-04-14T14:49:46.194Z</time></trkpt><trkpt lat="45.0948442" lon="7.8850487"><ele>388.0</ele><time>2026-04-14T14:49:49.308Z</time></trkpt><trkpt lat="45.0948914" lon="7.8851695"><ele>390.00000000000006</ele><time>2026-04-14T14:49:51.224Z</time></trkpt><trkpt lat="45.0948546" lon="7.8852432"><ele>392.0</ele><time>2026-04-14T14:49:52.301Z</time></trkpt><trkpt lat="45.0949029" lon="7.8853029"><ele>394.0</ele><time>2026-04-14T14:49:53.259Z</time></trkpt><trkpt lat="45.0949705" lon="7.8853745"><ele>396.0</ele><time>2026-04-14T14:49:55.293Z</time></trkpt><trkpt lat="45.0950069" lon="7.8854799"><ele>398.00000000000006</ele><time>2026-04-14T14:49:58.146Z</time></trkpt><trkpt lat="45.0950734" lon="7.8855468"><ele>400.0</ele><time>2026-04-14T14:50:00.318Z</time></trkpt><trkpt lat="45.0951348" lon="7.8856141"><ele>400.00000000000006</ele><time>2026-04-14T14:50:02.235Z</time></trkpt><trkpt lat="45.0951848" lon="7.8856851"><ele>400.0</ele><time>2026-04-14T14:50:04.269Z</time></trkpt><trkpt lat="45.0952342" lon="7.8857473"><ele>400.0</ele><time>2026-04-14T14:50:06.302Z</time></trkpt><trkpt lat="45.0952764" lon="7.885823"><ele>400.0</ele><time>2026-04-14T14:50:08.324Z</time></trkpt><trkpt lat="45.095319" lon="7.8858905"><ele>400.0</ele><time>2026-04-14T14:50:10.215Z</time></trkpt><trkpt lat="45.0953929" lon="7.8859619"><ele>400.00000000000006</ele><time>2026-04-14T14:50:13.243Z</time></trkpt><trkpt lat="45.0954355" lon="7.886047"><ele>400.0</ele><time>2026-04-14T14:50:15.278Z</time></trkpt><trkpt lat="45.095468" lon="7.8861564"><ele>403.00000000000006</ele><time>2026-04-14T14:50:17.311Z</time></trkpt><trkpt lat="45.0954614" lon="7.8862771"><ele>406.0</ele><time>2026-04-14T14:50:19.227Z</time></trkpt><trkpt lat="45.0954502" lon="7.8864001"><ele>409.0</ele><time>2026-04-14T14:50:21.261Z</time></trkpt><trkpt lat="45.0954394" lon="7.8865237"><ele>412.0</ele><time>2026-04-14T14:50:23.296Z</time></trkpt><trkpt lat="45.0954532" lon="7.8866531"><ele>415.00000000000006</ele><time>2026-04-14T14:50:25.211Z</time></trkpt><trkpt lat="45.0955124" lon="7.8866998"><ele>418.0</ele><time>2026-04-14T14:50:26.194Z</time></trkpt><trkpt lat="45.0956016" lon="7.8867977"><ele>418.2</ele><time>2026-04-14T14:50:28.195Z</time></trkpt><trkpt lat="45.0956778" lon="7.8869023"><ele>418.4</ele><time>2026-04-14T14:50:30.195Z</time></trkpt><trkpt lat="45.0957573" lon="7.8870157"><ele>418.59999999999997</ele><time>2026-04-14T14:50:32.196Z</time></trkpt><trkpt lat="45.0958535" lon="7.8871331"><ele>418.79999999999995</ele><time>2026-04-14T14:50:34.195Z</time></trkpt><trkpt lat="45.0959072" lon="7.8871939"><ele>419.0</ele><time>2026-04-14T14:50:35.195Z</time></trkpt><trkpt lat="45.0959558" lon="7.8872628"><ele>413.49999999999994</ele><time>2026-04-14T14:50:36.193Z</time></trkpt><trkpt lat="45.0959932" lon="7.887343"><ele>408.0</ele><time>2026-04-14T14:50:37.193Z</time></trkpt><trkpt lat="45.0960117" lon="7.8874312"><ele>402.5</ele><time>2026-04-14T14:50:38.193Z</time></trkpt><trkpt lat="45.0960144" lon="7.8875217"><ele>397.0</ele><time>2026-04-14T14:50:39.194Z</time></trkpt><trkpt lat="45.0959867" lon="7.8876116"><ele>391.49999999999994</ele><time>2026-04-14T14:50:40.193Z</time></trkpt><trkpt lat="45.0959121" lon="7.8876823"><ele>386.0</ele><time>2026-04-14T14:50:41.195Z</time></trkpt><trkpt lat="45.0958193" lon="7.887748"><ele>388.8</ele><time>2026-04-14T14:50:42.193Z</time></trkpt><trkpt lat="45.0957258" lon="7.8878179"><ele>391.6</ele><time>2026-04-14T14:50:43.195Z</time></trkpt><trkpt lat="45.095644" lon="7.8879017"><ele>394.4</ele><time>2026-04-14T14:50:44.195Z</time></trkpt><trkpt lat="45.0955753" lon="7.8880026"><ele>397.2</ele><time>2026-04-14T14:50:45.194Z</time></trkpt><trkpt lat="45.0955241" lon="7.8881186"><ele>400.0</ele><time>2026-04-14T14:50:46.195Z</time></trkpt><trkpt lat="45.095486" lon="7.8882375"><ele>400.0</ele><time>2026-04-14T14:50:47.193Z</time></trkpt><trkpt lat="45.0954587" lon="7.8883624"><ele>400.0</ele><time>2026-04-14T14:50:48.193Z</time></trkpt><trkpt lat="45.0954359" lon="7.8884897"><ele>400.0</ele><time>2026-04-14T14:50:49.195Z</time></trkpt><trkpt lat="45.095419" lon="7.8886198"><ele>400.0</ele><time>2026-04-14T14:50:50.195Z</time></trkpt><trkpt lat="45.0954032" lon="7.8887465"><ele>400.0</ele><time>2026-04-14T14:50:51.193Z</time></trkpt><trkpt lat="45.0953927" lon="7.8888728"><ele>400.33333333333337</ele><time>2026-04-14T14:50:52.195Z</time></trkpt><trkpt lat="45.0953954" lon="7.8889963"><ele>400.6666666666667</ele><time>2026-04-14T14:50:53.194Z</time></trkpt><trkpt lat="45.0954174" lon="7.8891133"><ele>401.0</ele><time>2026-04-14T14:50:54.194Z</time></trkpt><trkpt lat="45.0954475" lon="7.8892207"><ele>401.33333333333337</ele><time>2026-04-14T14:50:55.195Z</time></trkpt><trkpt lat="45.0954812" lon="7.8893182"><ele>401.6666666666667</ele><time>2026-04-14T14:50:56.195Z</time></trkpt><trkpt lat="45.0955215" lon="7.8894043"><ele>402.0</ele><time>2026-04-14T14:50:57.195Z</time></trkpt><trkpt lat="45.0955678" lon="7.8894767"><ele>401.3333333333333</ele><time>2026-04-14T14:50:58.194Z</time></trkpt><trkpt lat="45.0956498" lon="7.8895927"><ele>400.66666666666663</ele><time>2026-04-14T14:51:00.194Z</time></trkpt><trkpt lat="45.0957097" lon="7.889683"><ele>400.0</ele><time>2026-04-14T14:51:02.197Z</time></trkpt><trkpt lat="45.0957634" lon="7.8897644"><ele>399.3333333333333</ele><time>2026-04-14T14:51:04.195Z</time></trkpt><trkpt lat="45.0958128" lon="7.8898464"><ele>398.66666666666663</ele><time>2026-04-14T14:51:06.194Z</time></trkpt><trkpt lat="45.095853" lon="7.8899328"><ele>398.0</ele><time>2026-04-14T14:51:10.21Z</time></trkpt><trkpt lat="45.0959173" lon="7.8899924"><ele>396.2857142857143</ele><time>2026-04-14T14:51:12.244Z</time></trkpt><trkpt lat="45.0959635" lon="7.8900563"><ele>394.57142857142856</ele><time>2026-04-14T14:51:13.202Z</time></trkpt><trkpt lat="45.0959769" lon="7.8901468"><ele>392.8571428571429</ele><time>2026-04-14T14:51:16.194Z</time></trkpt><trkpt lat="45.0959228" lon="7.8902086"><ele>391.1428571428571</ele><time>2026-04-14T14:51:18.229Z</time></trkpt><trkpt lat="45.0958431" lon="7.8902441"><ele>389.42857142857144</ele><time>2026-04-14T14:51:20.263Z</time></trkpt><trkpt lat="45.0957807" lon="7.8902818"><ele>387.7142857142857</ele><time>2026-04-14T14:51:22.298Z</time></trkpt><trkpt lat="45.0957009" lon="7.8903511"><ele>386.0</ele><time>2026-04-14T14:51:25.291Z</time></trkpt><trkpt lat="45.0956487" lon="7.8904046"><ele>385.0</ele><time>2026-04-14T14:51:27.324Z</time></trkpt><trkpt lat="45.0955928" lon="7.8904492"><ele>384.0</ele><time>2026-04-14T14:51:29.24Z</time></trkpt><trkpt lat="45.0955183" lon="7.8904923"><ele>383.0</ele><time>2026-04-14T14:51:31.274Z</time></trkpt><trkpt lat="45.0954261" lon="7.8905341"><ele>382.0</ele><time>2026-04-14T14:51:33.195Z</time></trkpt><trkpt lat="45.0953144" lon="7.8905936"><ele>381.0</ele><time>2026-04-14T14:51:35.196Z</time></trkpt><trkpt lat="45.095197" lon="7.890663"><ele>381.0</ele><time>2026-04-14T14:51:37.195Z</time></trkpt><trkpt lat="45.0951339" lon="7.8907003"><ele>381.0</ele><time>2026-04-14T14:51:38.195Z</time></trkpt><trkpt lat="45.0950688" lon="7.890737"><ele>381.0</ele><time>2026-04-14T14:51:39.194Z</time></trkpt><trkpt lat="45.095002" lon="7.8907767"><ele>381.0</ele><time>2026-04-14T14:51:40.194Z</time></trkpt><trkpt lat="45.0949336" lon="7.8908181"><ele>381.0</ele><time>2026-04-14T14:51:41.194Z</time></trkpt><trkpt lat="45.0948623" lon="7.89086"><ele>381.0</ele><time>2026-04-14T14:51:42.192Z</time></trkpt><trkpt lat="45.0947903" lon="7.8909032"><ele>381.0</ele><time>2026-04-14T14:51:43.192Z</time></trkpt><trkpt lat="45.094717" lon="7.8909455"><ele>379.1666666666667</ele><time>2026-04-14T14:51:44.193Z</time></trkpt><trkpt lat="45.0946432" lon="7.8909888"><ele>377.3333333333333</ele><time>2026-04-14T14:51:45.193Z</time></trkpt><trkpt lat="45.0945671" lon="7.8910316"><ele>375.5</ele><time>2026-04-14T14:51:46.193Z</time></trkpt><trkpt lat="45.0944873" lon="7.8910737"><ele>373.66666666666663</ele><time>2026-04-14T14:51:47.194Z</time></trkpt><trkpt lat="45.0944056" lon="7.8911167"><ele>371.8333333333333</ele><time>2026-04-14T14:51:48.193Z</time></trkpt><trkpt lat="45.0943222" lon="7.8911556"><ele>370.0</ele><time>2026-04-14T14:51:49.197Z</time></trkpt><trkpt lat="45.0942385" lon="7.8911919"><ele>370.0</ele><time>2026-04-14T14:51:50.195Z</time></trkpt><trkpt lat="45.0941535" lon="7.8912271"><ele>370.0</ele><time>2026-04-14T14:51:51.194Z</time></trkpt><trkpt lat="45.0940657" lon="7.8912601"><ele>370.0</ele><time>2026-04-14T14:51:52.195Z</time></trkpt><trkpt lat="45.0939772" lon="7.8912921"><ele>370.0</ele><time>2026-04-14T14:51:53.195Z</time></trkpt><trkpt lat="45.0938899" lon="7.8913207"><ele>370.0</ele><time>2026-04-14T14:51:54.196Z</time></trkpt><trkpt lat="45.0938031" lon="7.8913457"><ele>370.0</ele><time>2026-04-14T14:51:55.196Z</time></trkpt><trkpt lat="45.0937154" lon="7.8913666"><ele>370.16666666666663</ele><time>2026-04-14T14:51:56.194Z</time></trkpt><trkpt lat="45.0936296" lon="7.8913788"><ele>370.3333333333333</ele><time>2026-04-14T14:51:57.195Z</time></trkpt><trkpt lat="45.0935449" lon="7.8913864"><ele>370.5</ele><time>2026-04-14T14:51:58.195Z</time></trkpt><trkpt lat="45.0934629" lon="7.8913885"><ele>370.6666666666667</ele><time>2026-04-14T14:51:59.195Z</time></trkpt><trkpt lat="45.093383" lon="7.8913855"><ele>370.83333333333337</ele><time>2026-04-14T14:52:00.194Z</time></trkpt><trkpt lat="45.0933079" lon="7.8913814"><ele>371.0</ele><time>2026-04-14T14:52:01.193Z</time></trkpt><trkpt lat="45.0932363" lon="7.8913763"><ele>371.0</ele><time>2026-04-14T14:52:02.194Z</time></trkpt><trkpt lat="45.0931679" lon="7.8913697"><ele>371.0</ele><time>2026-04-14T14:52:03.195Z</time></trkpt><trkpt lat="45.0931029" lon="7.891363"><ele>371.0</ele><time>2026-04-14T14:52:04.193Z</time></trkpt><trkpt lat="45.0929794" lon="7.8913461"><ele>371.0</ele><time>2026-04-14T14:52:06.193Z</time></trkpt><trkpt lat="45.0928553" lon="7.8913331"><ele>371.0</ele><time>2026-04-14T14:52:08.194Z</time></trkpt><trkpt lat="45.0927351" lon="7.8913243"><ele>371.0</ele><time>2026-04-14T14:52:10.194Z</time></trkpt><trkpt lat="45.0926151" lon="7.8913183"><ele>371.0</ele><time>2026-04-14T14:52:12.194Z</time></trkpt><trkpt lat="45.0924887" lon="7.8913059"><ele>371.0</ele><time>2026-04-14T14:52:14.194Z</time></trkpt><trkpt lat="45.0924238" lon="7.8912976"><ele>371.0</ele><time>2026-04-14T14:52:15.195Z</time></trkpt><trkpt lat="45.0923588" lon="7.8912882"><ele>371.0</ele><time>2026-04-14T14:52:16.194Z</time></trkpt><trkpt lat="45.0922949" lon="7.8912831"><ele>371.0</ele><time>2026-04-14T14:52:17.193Z</time></trkpt><trkpt lat="45.0921698" lon="7.8912928"><ele>370.83333333333337</ele><time>2026-04-14T14:52:19.194Z</time></trkpt><trkpt lat="45.0920449" lon="7.8913044"><ele>370.6666666666667</ele><time>2026-04-14T14:52:21.195Z</time></trkpt><trkpt lat="45.0919818" lon="7.89131"><ele>370.5</ele><time>2026-04-14T14:52:22.194Z</time></trkpt><trkpt lat="45.0919183" lon="7.8913179"><ele>370.3333333333333</ele><time>2026-04-14T14:52:23.196Z</time></trkpt><trkpt lat="45.091792" lon="7.8913247"><ele>370.16666666666663</ele><time>2026-04-14T14:52:25.195Z</time></trkpt><trkpt lat="45.0917282" lon="7.8913279"><ele>370.0</ele><time>2026-04-14T14:52:26.195Z</time></trkpt><trkpt lat="45.0916622" lon="7.8913326"><ele>370.0</ele><time>2026-04-14T14:52:27.195Z</time></trkpt><trkpt lat="45.091594" lon="7.8913423"><ele>370.0</ele><time>2026-04-14T14:52:28.195Z</time></trkpt><trkpt lat="45.0915241" lon="7.8913628"><ele>370.0</ele><time>2026-04-14T14:52:29.195Z</time></trkpt><trkpt lat="45.0914443" lon="7.8913932"><ele>370.0</ele><time>2026-04-14T14:52:30.193Z</time></trkpt><trkpt lat="45.0913521" lon="7.8914317"><ele>370.0</ele><time>2026-04-14T14:52:31.194Z</time></trkpt><trkpt lat="45.0912561" lon="7.8914887"><ele>370.0</ele><time>2026-04-14T14:52:32.194Z</time></trkpt><trkpt lat="45.0911583" lon="7.8915587"><ele>370.25</ele><time>2026-04-14T14:52:33.193Z</time></trkpt><trkpt lat="45.0910567" lon="7.8916395"><ele>370.5</ele><time>2026-04-14T14:52:34.194Z</time></trkpt><trkpt lat="45.0909584" lon="7.8917333"><ele>370.75</ele><time>2026-04-14T14:52:35.194Z</time></trkpt><trkpt lat="45.0908611" lon="7.8918334"><ele>371.0</ele><time>2026-04-14T14:52:36.192Z</time></trkpt><trkpt lat="45.09076" lon="7.8919332"><ele>369.25</ele><time>2026-04-14T14:52:37.195Z</time></trkpt><trkpt lat="45.0906541" lon="7.8920335"><ele>367.5</ele><time>2026-04-14T14:52:38.193Z</time></trkpt><trkpt lat="45.0905458" lon="7.8921349"><ele>365.75</ele><time>2026-04-14T14:52:39.193Z</time></trkpt><trkpt lat="45.0904345" lon="7.8922303"><ele>364.0</ele><time>2026-04-14T14:52:40.194Z</time></trkpt><trkpt lat="45.0903197" lon="7.892322"><ele>364.0</ele><time>2026-04-14T14:52:41.193Z</time></trkpt><trkpt lat="45.0902043" lon="7.8924142"><ele>364.0</ele><time>2026-04-14T14:52:42.194Z</time></trkpt><trkpt lat="45.0900889" lon="7.8925084"><ele>364.0</ele><time>2026-04-14T14:52:43.193Z</time></trkpt><trkpt lat="45.0899713" lon="7.8926065"><ele>364.0</ele><time>2026-04-14T14:52:44.194Z</time></trkpt><trkpt lat="45.0898528" lon="7.8927014"><ele>359.0</ele><time>2026-04-14T14:52:45.194Z</time></trkpt><trkpt lat="45.0897302" lon="7.8927911"><ele>354.0</ele><time>2026-04-14T14:52:46.193Z</time></trkpt><trkpt lat="45.0895998" lon="7.8928724"><ele>349.0</ele><time>2026-04-14T14:52:47.194Z</time></trkpt><trkpt lat="45.0894652" lon="7.8929583"><ele>344.0</ele><time>2026-04-14T14:52:48.195Z</time></trkpt><trkpt lat="45.0893294" lon="7.8930462"><ele>344.0</ele><time>2026-04-14T14:52:49.195Z</time></trkpt><trkpt lat="45.089195" lon="7.8931332"><ele>344.0</ele><time>2026-04-14T14:52:50.195Z</time></trkpt><trkpt lat="45.089061" lon="7.8932289"><ele>344.0</ele><time>2026-04-14T14:52:51.195Z</time></trkpt><trkpt lat="45.0889222" lon="7.8933271"><ele>342.33333333333337</ele><time>2026-04-14T14:52:52.195Z</time></trkpt><trkpt lat="45.0887817" lon="7.8934194"><ele>340.6666666666667</ele><time>2026-04-14T14:52:53.194Z</time></trkpt><trkpt lat="45.0886344" lon="7.8934918"><ele>339.0</ele><time>2026-04-14T14:52:54.195Z</time></trkpt><trkpt lat="45.0884827" lon="7.8935367"><ele>336.3333333333333</ele><time>2026-04-14T14:52:55.194Z</time></trkpt><trkpt lat="45.0883274" lon="7.8935606"><ele>333.66666666666663</ele><time>2026-04-14T14:52:56.195Z</time></trkpt><trkpt lat="45.0881706" lon="7.8935721"><ele>331.0</ele><time>2026-04-14T14:52:57.195Z</time></trkpt><trkpt lat="45.0880161" lon="7.8935771"><ele>330.5</ele><time>2026-04-14T14:52:58.194Z</time></trkpt><trkpt lat="45.0878666" lon="7.8935855"><ele>330.0</ele><time>2026-04-14T14:52:59.194Z</time></trkpt><trkpt lat="45.0877216" lon="7.8936018"><ele>329.5</ele><time>2026-04-14T14:53:00.193Z</time></trkpt><trkpt lat="45.0875797" lon="7.8936168"><ele>329.0</ele><time>2026-04-14T14:53:01.194Z</time></trkpt><trkpt lat="45.0874397" lon="7.8936309"><ele>330.25</ele><time>2026-04-14T14:53:02.194Z</time></trkpt><trkpt lat="45.087304" lon="7.8936496"><ele>331.5</ele><time>2026-04-14T14:53:03.195Z</time></trkpt><trkpt lat="45.0871733" lon="7.8936775"><ele>332.75</ele><time>2026-04-14T14:53:04.194Z</time></trkpt><trkpt lat="45.0870465" lon="7.8937051"><ele>334.0</ele><time>2026-04-14T14:53:05.195Z</time></trkpt><trkpt lat="45.0869206" lon="7.8937274"><ele>334.0</ele><time>2026-04-14T14:53:06.193Z</time></trkpt><trkpt lat="45.0867946" lon="7.8937529"><ele>334.0</ele><time>2026-04-14T14:53:07.194Z</time></trkpt><trkpt lat="45.0866689" lon="7.8937748"><ele>334.0</ele><time>2026-04-14T14:53:08.194Z</time></trkpt><trkpt lat="45.0865481" lon="7.893795"><ele>334.0</ele><time>2026-04-14T14:53:09.193Z</time></trkpt><trkpt lat="45.0864297" lon="7.8938082"><ele>333.25</ele><time>2026-04-14T14:53:10.193Z</time></trkpt><trkpt lat="45.0863132" lon="7.8938222"><ele>332.5</ele><time>2026-04-14T14:53:11.195Z</time></trkpt><trkpt lat="45.0861985" lon="7.8938381"><ele>331.75</ele><time>2026-04-14T14:53:12.194Z</time></trkpt><trkpt lat="45.0860879" lon="7.8938625"><ele>331.0</ele><time>2026-04-14T14:53:13.195Z</time></trkpt><trkpt lat="45.0859836" lon="7.8938974"><ele>331.0</ele><time>2026-04-14T14:53:14.195Z</time></trkpt><trkpt lat="45.0858852" lon="7.8939447"><ele>331.0</ele><time>2026-04-14T14:53:15.195Z</time></trkpt><trkpt lat="45.0857918" lon="7.8940043"><ele>331.0</ele><time>2026-04-14T14:53:16.194Z</time></trkpt><trkpt lat="45.0857046" lon="7.8940676"><ele>331.0</ele><time>2026-04-14T14:53:17.194Z</time></trkpt><trkpt lat="45.0856201" lon="7.8941347"><ele>331.0</ele><time>2026-04-14T14:53:18.195Z</time></trkpt><trkpt lat="45.0855399" lon="7.8942011"><ele>330.66666666666663</ele><time>2026-04-14T14:53:19.196Z</time></trkpt><trkpt lat="45.0854605" lon="7.8942667"><ele>330.3333333333333</ele><time>2026-04-14T14:53:20.195Z</time></trkpt><trkpt lat="45.0853823" lon="7.8943292"><ele>330.0</ele><time>2026-04-14T14:53:21.194Z</time></trkpt><trkpt lat="45.0853056" lon="7.8943894"><ele>329.6666666666667</ele><time>2026-04-14T14:53:22.194Z</time></trkpt><trkpt lat="45.0852292" lon="7.8944473"><ele>329.33333333333337</ele><time>2026-04-14T14:53:23.195Z</time></trkpt><trkpt lat="45.0851488" lon="7.8944958"><ele>329.0</ele><time>2026-04-14T14:53:24.195Z</time></trkpt><trkpt lat="45.0850674" lon="7.8945459"><ele>329.0</ele><time>2026-04-14T14:53:25.194Z</time></trkpt><trkpt lat="45.0849871" lon="7.8945929"><ele>329.0</ele><time>2026-04-14T14:53:26.195Z</time></trkpt><trkpt lat="45.08491" lon="7.8946403"><ele>329.0</ele><time>2026-04-14T14:53:27.194Z</time></trkpt><trkpt lat="45.0848336" lon="7.8946873"><ele>329.0</ele><time>2026-04-14T14:53:28.194Z</time></trkpt><trkpt lat="45.0847625" lon="7.8947391"><ele>329.0</ele><time>2026-04-14T14:53:29.193Z</time></trkpt><trkpt lat="45.0846967" lon="7.8947925"><ele>329.0</ele><time>2026-04-14T14:53:30.194Z</time></trkpt><trkpt lat="45.0846372" lon="7.8948486"><ele>328.42857142857144</ele><time>2026-04-14T14:53:31.194Z</time></trkpt><trkpt lat="45.0845792" lon="7.8949042"><ele>327.8571428571429</ele><time>2026-04-14T14:53:32.195Z</time></trkpt><trkpt lat="45.0845215" lon="7.8949636"><ele>327.2857142857143</ele><time>2026-04-14T14:53:33.195Z</time></trkpt><trkpt lat="45.0844665" lon="7.8950257"><ele>326.7142857142857</ele><time>2026-04-14T14:53:34.195Z</time></trkpt><trkpt lat="45.0844085" lon="7.8950881"><ele>326.14285714285717</ele><time>2026-04-14T14:53:35.197Z</time></trkpt><trkpt lat="45.084356" lon="7.8951527"><ele>325.57142857142856</ele><time>2026-04-14T14:53:36.194Z</time></trkpt><trkpt lat="45.0843022" lon="7.8952131"><ele>325.0</ele><time>2026-04-14T14:53:37.194Z</time></trkpt><trkpt lat="45.0842567" lon="7.895276"><ele>325.0</ele><time>2026-04-14T14:53:38.194Z</time></trkpt><trkpt lat="45.0842136" lon="7.8953419"><ele>325.0</ele><time>2026-04-14T14:53:39.193Z</time></trkpt><trkpt lat="45.0841681" lon="7.8954079"><ele>325.0</ele><time>2026-04-14T14:53:40.194Z</time></trkpt><trkpt lat="45.0841242" lon="7.8954805"><ele>325.0</ele><time>2026-04-14T14:53:41.193Z</time></trkpt><trkpt lat="45.0840796" lon="7.895555"><ele>325.0</ele><time>2026-04-14T14:53:42.194Z</time></trkpt><trkpt lat="45.0840336" lon="7.8956336"><ele>325.0</ele><time>2026-04-14T14:53:43.194Z</time></trkpt><trkpt lat="45.0839871" lon="7.8957036"><ele>325.0</ele><time>2026-04-14T14:53:44.193Z</time></trkpt><trkpt lat="45.0839405" lon="7.8957737"><ele>325.4285714285714</ele><time>2026-04-14T14:53:45.194Z</time></trkpt><trkpt lat="45.0838937" lon="7.8958437"><ele>325.8571428571429</ele><time>2026-04-14T14:53:46.194Z</time></trkpt><trkpt lat="45.0838469" lon="7.8959139"><ele>326.2857142857143</ele><time>2026-04-14T14:53:47.194Z</time></trkpt><trkpt lat="45.0838" lon="7.8959829"><ele>326.71428571428567</ele><time>2026-04-14T14:53:48.193Z</time></trkpt><trkpt lat="45.0837522" lon="7.8960503"><ele>327.1428571428571</ele><time>2026-04-14T14:53:49.194Z</time></trkpt><trkpt lat="45.0837078" lon="7.8961158"><ele>327.57142857142856</ele><time>2026-04-14T14:53:50.193Z</time></trkpt><trkpt lat="45.0836619" lon="7.8961797"><ele>328.0</ele><time>2026-04-14T14:53:51.194Z</time></trkpt><trkpt lat="45.0836154" lon="7.8962444"><ele>328.0</ele><time>2026-04-14T14:53:52.196Z</time></trkpt><trkpt lat="45.0835701" lon="7.8963081"><ele>328.0</ele><time>2026-04-14T14:53:53.193Z</time></trkpt><trkpt lat="45.0834911" lon="7.8964361"><ele>328.0</ele><time>2026-04-14T14:53:55.195Z</time></trkpt><trkpt lat="45.0834021" lon="7.8965577"><ele>328.0</ele><time>2026-04-14T14:53:57.194Z</time></trkpt><trkpt lat="45.0833081" lon="7.8966691"><ele>328.0</ele><time>2026-04-14T14:53:59.194Z</time></trkpt><trkpt lat="45.0832581" lon="7.8967295"><ele>328.85714285714283</ele><time>2026-04-14T14:54:00.196Z</time></trkpt><trkpt lat="45.0832104" lon="7.8967944"><ele>329.7142857142857</ele><time>2026-04-14T14:54:01.194Z</time></trkpt><trkpt lat="45.0831595" lon="7.8968595"><ele>330.57142857142856</ele><time>2026-04-14T14:54:02.194Z</time></trkpt><trkpt lat="45.0831129" lon="7.8969244"><ele>331.42857142857144</ele><time>2026-04-14T14:54:03.193Z</time></trkpt><trkpt lat="45.0830676" lon="7.8969945"><ele>332.2857142857143</ele><time>2026-04-14T14:54:04.194Z</time></trkpt><trkpt lat="45.0830215" lon="7.8970648"><ele>333.1428571428571</ele><time>2026-04-14T14:54:05.195Z</time></trkpt><trkpt lat="45.0829777" lon="7.8971347"><ele>334.0</ele><time>2026-04-14T14:54:06.194Z</time></trkpt><trkpt lat="45.0829343" lon="7.8972021"><ele>334.0</ele><time>2026-04-14T14:54:07.196Z</time></trkpt><trkpt lat="45.0828886" lon="7.8972666"><ele>334.0</ele><time>2026-04-14T14:54:08.195Z</time></trkpt><trkpt lat="45.0828397" lon="7.8973289"><ele>334.0</ele><time>2026-04-14T14:54:09.193Z</time></trkpt><trkpt lat="45.0827897" lon="7.8973881"><ele>334.0</ele><time>2026-04-14T14:54:10.194Z</time></trkpt><trkpt lat="45.082738" lon="7.897447"><ele>334.0</ele><time>2026-04-14T14:54:11.193Z</time></trkpt><trkpt lat="45.0826844" lon="7.8975023"><ele>334.0</ele><time>2026-04-14T14:54:12.195Z</time></trkpt><trkpt lat="45.0826306" lon="7.8975529"><ele>334.0</ele><time>2026-04-14T14:54:13.2Z</time></trkpt><trkpt lat="45.0825208" lon="7.8976368"><ele>332.2857142857143</ele><time>2026-04-14T14:54:15.198Z</time></trkpt><trkpt lat="45.0824614" lon="7.8976731"><ele>330.57142857142856</ele><time>2026-04-14T14:54:16.195Z</time></trkpt><trkpt lat="45.0824022" lon="7.8977078"><ele>328.8571428571429</ele><time>2026-04-14T14:54:17.193Z</time></trkpt><trkpt lat="45.0823418" lon="7.8977407"><ele>327.1428571428571</ele><time>2026-04-14T14:54:18.194Z</time></trkpt><trkpt lat="45.0822788" lon="7.897778"><ele>325.42857142857144</ele><time>2026-04-14T14:54:19.195Z</time></trkpt><trkpt lat="45.0822132" lon="7.897814"><ele>323.7142857142857</ele><time>2026-04-14T14:54:20.194Z</time></trkpt><trkpt lat="45.0821492" lon="7.897852"><ele>322.0</ele><time>2026-04-14T14:54:21.196Z</time></trkpt><trkpt lat="45.0820858" lon="7.8978951"><ele>322.0</ele><time>2026-04-14T14:54:22.193Z</time></trkpt><trkpt lat="45.0820238" lon="7.8979417"><ele>322.0</ele><time>2026-04-14T14:54:23.194Z</time></trkpt><trkpt lat="45.0819636" lon="7.8979902"><ele>322.0</ele><time>2026-04-14T14:54:24.193Z</time></trkpt><trkpt lat="45.0819026" lon="7.8980396"><ele>322.0</ele><time>2026-04-14T14:54:25.194Z</time></trkpt><trkpt lat="45.0818394" lon="7.8980839"><ele>322.0</ele><time>2026-04-14T14:54:26.193Z</time></trkpt><trkpt lat="45.0817783" lon="7.898128"><ele>322.0</ele><time>2026-04-14T14:54:27.194Z</time></trkpt><trkpt lat="45.0817196" lon="7.8981737"><ele>322.0</ele><time>2026-04-14T14:54:28.195Z</time></trkpt><trkpt lat="45.081664" lon="7.8982182"><ele>322.0</ele><time>2026-04-14T14:54:29.193Z</time></trkpt><trkpt lat="45.0816091" lon="7.8982644"><ele>322.0</ele><time>2026-04-14T14:54:30.194Z</time></trkpt><trkpt lat="45.0815529" lon="7.898311"><ele>322.0</ele><time>2026-04-14T14:54:31.193Z</time></trkpt><trkpt lat="45.0814964" lon="7.8983577"><ele>322.0</ele><time>2026-04-14T14:54:32.194Z</time></trkpt><trkpt lat="45.0814412" lon="7.8984028"><ele>322.0</ele><time>2026-04-14T14:54:33.196Z</time></trkpt><trkpt lat="45.0813313" lon="7.8984911"><ele>322.0</ele><time>2026-04-14T14:54:35.2Z</time></trkpt><trkpt lat="45.0812752" lon="7.8985318"><ele>322.0</ele><time>2026-04-14T14:54:36.195Z</time></trkpt><trkpt lat="45.0812199" lon="7.8985749"><ele>321.57142857142856</ele><time>2026-04-14T14:54:37.196Z</time></trkpt><trkpt lat="45.081165" lon="7.8986226"><ele>321.1428571428571</ele><time>2026-04-14T14:54:38.195Z</time></trkpt><trkpt lat="45.0811127" lon="7.8986724"><ele>320.7142857142857</ele><time>2026-04-14T14:54:39.195Z</time></trkpt><trkpt lat="45.0810113" lon="7.8987682"><ele>320.2857142857143</ele><time>2026-04-14T14:54:41.195Z</time></trkpt><trkpt lat="45.080958" lon="7.8988162"><ele>319.85714285714283</ele><time>2026-04-14T14:54:42.196Z</time></trkpt><trkpt lat="45.0809032" lon="7.8988621"><ele>319.42857142857144</ele><time>2026-04-14T14:54:43.195Z</time></trkpt><trkpt lat="45.0808466" lon="7.8989052"><ele>319.0</ele><time>2026-04-14T14:54:44.195Z</time></trkpt><trkpt lat="45.0807884" lon="7.8989471"><ele>318.66666666666663</ele><time>2026-04-14T14:54:45.196Z</time></trkpt><trkpt lat="45.0807301" lon="7.8989889"><ele>318.3333333333333</ele><time>2026-04-14T14:54:46.195Z</time></trkpt><trkpt lat="45.0806731" lon="7.8990319"><ele>318.0</ele><time>2026-04-14T14:54:47.195Z</time></trkpt><trkpt lat="45.0806152" lon="7.8990727"><ele>317.6666666666667</ele><time>2026-04-14T14:54:48.195Z</time></trkpt><trkpt lat="45.0805584" lon="7.8991152"><ele>317.33333333333337</ele><time>2026-04-14T14:54:49.195Z</time></trkpt><trkpt lat="45.0804512" lon="7.8992096"><ele>317.0</ele><time>2026-04-14T14:54:51.193Z</time></trkpt><trkpt lat="45.0803414" lon="7.899289"><ele>316.4</ele><time>2026-04-14T14:54:53.195Z</time></trkpt><trkpt lat="45.0802366" lon="7.899366"><ele>315.79999999999995</ele><time>2026-04-14T14:54:55.194Z</time></trkpt><trkpt lat="45.0801309" lon="7.8994295"><ele>315.2</ele><time>2026-04-14T14:54:57.194Z</time></trkpt><trkpt lat="45.0800268" lon="7.8994833"><ele>314.59999999999997</ele><time>2026-04-14T14:54:59.195Z</time></trkpt><trkpt lat="45.079931" lon="7.8995415"><ele>314.0</ele><time>2026-04-14T14:55:01.192Z</time></trkpt><trkpt lat="45.0798395" lon="7.899596"><ele>313.83333333333337</ele><time>2026-04-14T14:55:03.193Z</time></trkpt><trkpt lat="45.0797556" lon="7.8995839"><ele>313.6666666666667</ele><time>2026-04-14T14:55:05.193Z</time></trkpt><trkpt lat="45.0797188" lon="7.8994997"><ele>313.5</ele><time>2026-04-14T14:55:07.195Z</time></trkpt><trkpt lat="45.0797196" lon="7.899404"><ele>313.3333333333333</ele><time>2026-04-14T14:55:09.195Z</time></trkpt><trkpt lat="45.079706" lon="7.8992197"><ele>313.16666666666663</ele><time>2026-04-14T14:55:13.267Z</time></trkpt><trkpt lat="45.0797039" lon="7.899126"><ele>313.0</ele><time>2026-04-14T14:55:15.318Z</time></trkpt><trkpt lat="45.079689" lon="7.8990107"><ele>314.16666666666663</ele><time>2026-04-14T14:55:18.194Z</time></trkpt><trkpt lat="45.0796709" lon="7.898883"><ele>315.3333333333333</ele><time>2026-04-14T14:55:21.324Z</time></trkpt><trkpt lat="45.079655" lon="7.8987757"><ele>316.5</ele><time>2026-04-14T14:55:24.415Z</time></trkpt><trkpt lat="45.0796331" lon="7.8986641"><ele>317.6666666666667</ele><time>2026-04-14T14:55:28.026Z</time></trkpt><trkpt lat="45.0795879" lon="7.8985704"><ele>318.83333333333337</ele><time>2026-04-14T14:55:31.318Z</time></trkpt><trkpt lat="45.0795359" lon="7.8985095"><ele>320.0</ele><time>2026-04-14T14:55:34.228Z</time></trkpt><trkpt lat="45.079478" lon="7.8984546"><ele>319.57142857142856</ele><time>2026-04-14T14:55:37.281Z</time></trkpt><trkpt lat="45.0794079" lon="7.8983984"><ele>319.14285714285717</ele><time>2026-04-14T14:55:41.289Z</time></trkpt><trkpt lat="45.0793389" lon="7.8983399"><ele>318.7142857142857</ele><time>2026-04-14T14:55:45.24Z</time></trkpt><trkpt lat="45.0792772" lon="7.89829"><ele>318.2857142857143</ele><time>2026-04-14T14:55:48.232Z</time></trkpt><trkpt lat="45.0792245" lon="7.8982284"><ele>317.85714285714283</ele><time>2026-04-14T14:55:51.225Z</time></trkpt><trkpt lat="45.0791695" lon="7.8981624"><ele>317.42857142857144</ele><time>2026-04-14T14:55:54.336Z</time></trkpt><trkpt lat="45.0791213" lon="7.898098"><ele>317.0</ele><time>2026-04-14T14:55:57.209Z</time></trkpt><trkpt lat="45.0790719" lon="7.8980292"><ele>317.0</ele><time>2026-04-14T14:56:00.201Z</time></trkpt><trkpt lat="45.0790269" lon="7.8979645"><ele>317.0</ele><time>2026-04-14T14:56:03.312Z</time></trkpt><trkpt lat="45.078977" lon="7.8978965"><ele>317.0</ele><time>2026-04-14T14:56:06.304Z</time></trkpt><trkpt lat="45.0789591" lon="7.897782"><ele>317.0</ele><time>2026-04-14T14:56:10.253Z</time></trkpt><trkpt lat="45.0789585" lon="7.8976823"><ele>317.0</ele><time>2026-04-14T14:56:13.245Z</time></trkpt><trkpt lat="45.0789834" lon="7.8975938"><ele>317.0</ele><time>2026-04-14T14:56:16.2Z</time></trkpt><trkpt lat="45.0790652" lon="7.8975895"><ele>317.0</ele><time>2026-04-14T14:56:19.23Z</time></trkpt><trkpt lat="45.0791383" lon="7.8976314"><ele>318.2857142857143</ele><time>2026-04-14T14:56:22.222Z</time></trkpt><trkpt lat="45.0791951" lon="7.8976712"><ele>319.57142857142856</ele><time>2026-04-14T14:56:25.213Z</time></trkpt><trkpt lat="45.0792625" lon="7.8977147"><ele>320.8571428571429</ele><time>2026-04-14T14:56:29.284Z</time></trkpt><trkpt lat="45.079332" lon="7.8976965"><ele>322.1428571428571</ele><time>2026-04-14T14:56:33.233Z</time></trkpt><trkpt lat="45.0794014" lon="7.8976962"><ele>323.4285714285714</ele><time>2026-04-14T14:56:38.259Z</time></trkpt><trkpt lat="45.0794575" lon="7.8976282"><ele>324.7142857142857</ele><time>2026-04-14T14:56:43.287Z</time></trkpt><trkpt lat="45.0795243" lon="7.8975414"><ele>326.0</ele><time>2026-04-14T14:57:20.268Z</time></trkpt><trkpt lat="45.079545" lon="7.897443"><ele>327.7142857142857</ele><time>2026-04-14T14:57:25.294Z</time></trkpt><trkpt lat="45.0795357" lon="7.8973466"><ele>329.4285714285714</ele><time>2026-04-14T14:57:28.286Z</time></trkpt><trkpt lat="45.0795239" lon="7.8972464"><ele>331.1428571428571</ele><time>2026-04-14T14:57:32.235Z</time></trkpt><trkpt lat="45.0795778" lon="7.8971668"><ele>332.8571428571429</ele><time>2026-04-14T14:57:34.273Z</time></trkpt><trkpt lat="45.0796238" lon="7.897097"><ele>334.57142857142856</ele><time>2026-04-14T14:57:37.285Z</time></trkpt><trkpt lat="45.0796774" lon="7.8970339"><ele>336.2857142857143</ele><time>2026-04-14T14:58:19.264Z</time></trkpt><trkpt lat="45.0797445" lon="7.8969792"><ele>338.0</ele><time>2026-04-14T14:58:23.331Z</time></trkpt><trkpt lat="45.0797301" lon="7.8968761"><ele>338.0</ele><time>2026-04-14T14:58:24.287Z</time></trkpt><trkpt lat="45.0797599" lon="7.8967848"><ele>338.0</ele><time>2026-04-14T14:58:27.279Z</time></trkpt><trkpt lat="45.0798078" lon="7.8966757"><ele>338.0</ele><time>2026-04-14T14:59:01.282Z</time></trkpt><trkpt lat="45.0798463" lon="7.8965988"><ele>338.0</ele><time>2026-04-14T14:59:04.252Z</time></trkpt><trkpt lat="45.0799212" lon="7.8964555"><ele>338.0</ele><time>2026-04-14T14:59:35.246Z</time></trkpt><trkpt lat="45.0799787" lon="7.8963538"><ele>338.0</ele><time>2026-04-14T14:59:55.233Z</time></trkpt><trkpt lat="45.0800358" lon="7.8962896"><ele>341.1666666666667</ele><time>2026-04-14T15:00:08.278Z</time></trkpt><trkpt lat="45.0801284" lon="7.8961828"><ele>344.33333333333337</ele><time>2026-04-14T15:00:29.222Z</time></trkpt><trkpt lat="45.0801919" lon="7.8961159"><ele>347.5</ele><time>2026-04-14T15:00:32.214Z</time></trkpt><trkpt lat="45.0802653" lon="7.8960667"><ele>350.6666666666667</ele><time>2026-04-14T15:00:35.205Z</time></trkpt><trkpt lat="45.0803432" lon="7.8960202"><ele>353.8333333333333</ele><time>2026-04-14T15:00:38.317Z</time></trkpt><trkpt lat="45.0804192" lon="7.8959756"><ele>357.0</ele><time>2026-04-14T15:00:41.308Z</time></trkpt><trkpt lat="45.0804795" lon="7.8959484"><ele>359.8333333333333</ele><time>2026-04-14T15:00:44.3Z</time></trkpt><trkpt lat="45.0805618" lon="7.8959003"><ele>362.6666666666667</ele><time>2026-04-14T15:00:48.25Z</time></trkpt><trkpt lat="45.0806353" lon="7.8958473"><ele>365.5</ele><time>2026-04-14T15:00:51.324Z</time></trkpt><trkpt lat="45.0807016" lon="7.8957864"><ele>368.33333333333337</ele><time>2026-04-14T15:00:55.31Z</time></trkpt><trkpt lat="45.0807641" lon="7.8957403"><ele>371.1666666666667</ele><time>2026-04-14T15:00:59.261Z</time></trkpt><trkpt lat="45.080837" lon="7.8957279"><ele>374.0</ele><time>2026-04-14T15:01:03.311Z</time></trkpt><trkpt lat="45.0809095" lon="7.8957303"><ele>374.57142857142856</ele><time>2026-04-14T15:01:07.32Z</time></trkpt><trkpt lat="45.0809892" lon="7.8957454"><ele>375.14285714285717</ele><time>2026-04-14T15:01:11.227Z</time></trkpt><trkpt lat="45.0810532" lon="7.895744"><ele>375.7142857142857</ele><time>2026-04-14T15:01:14.219Z</time></trkpt><trkpt lat="45.0811185" lon="7.8957592"><ele>376.2857142857143</ele><time>2026-04-14T15:01:17.211Z</time></trkpt><trkpt lat="45.0811992" lon="7.8957688"><ele>376.8571428571429</ele><time>2026-04-14T15:01:20.203Z</time></trkpt><trkpt lat="45.0812709" lon="7.8957859"><ele>377.42857142857144</ele><time>2026-04-14T15:01:23.313Z</time></trkpt><trkpt lat="45.0813292" lon="7.895842"><ele>378.0</ele><time>2026-04-14T15:01:26.306Z</time></trkpt><trkpt lat="45.0813943" lon="7.8958618"><ele>378.0</ele><time>2026-04-14T15:01:29.297Z</time></trkpt><trkpt lat="45.0814676" lon="7.8958738"><ele>378.0</ele><time>2026-04-14T15:01:32.211Z</time></trkpt><trkpt lat="45.0815286" lon="7.8958978"><ele>378.0</ele><time>2026-04-14T15:01:35.282Z</time></trkpt><trkpt lat="45.0815915" lon="7.895937"><ele>378.0</ele><time>2026-04-14T15:01:39.229Z</time></trkpt><trkpt lat="45.0816844" lon="7.8959787"><ele>378.0</ele><time>2026-04-14T15:02:36.194Z</time></trkpt><trkpt lat="45.0818095" lon="7.8959477"><ele>378.0</ele><time>2026-04-14T15:02:55.221Z</time></trkpt><trkpt lat="45.0818812" lon="7.8958736"><ele>380.4</ele><time>2026-04-14T15:03:32.198Z</time></trkpt><trkpt lat="45.0819314" lon="7.8956862"><ele>382.79999999999995</ele><time>2026-04-14T15:03:45.241Z</time></trkpt><trkpt lat="45.0819553" lon="7.8954962"><ele>385.2</ele><time>2026-04-14T15:03:49.308Z</time></trkpt><trkpt lat="45.0819629" lon="7.8953902"><ele>387.6</ele><time>2026-04-14T15:03:52.301Z</time></trkpt><trkpt lat="45.0819758" lon="7.895293"><ele>390.0</ele><time>2026-04-14T15:03:54.216Z</time></trkpt><trkpt lat="45.0819928" lon="7.8952035"><ele>392.6666666666667</ele><time>2026-04-14T15:03:56.25Z</time></trkpt><trkpt lat="45.0820186" lon="7.8950863"><ele>395.33333333333337</ele><time>2026-04-14T15:03:59.285Z</time></trkpt><trkpt lat="45.0820289" lon="7.894976"><ele>398.0</ele><time>2026-04-14T15:04:02.234Z</time></trkpt><trkpt lat="45.0820554" lon="7.8948508"><ele>400.6666666666667</ele><time>2026-04-14T15:04:05.706Z</time></trkpt><trkpt lat="45.0820884" lon="7.8947662"><ele>403.33333333333337</ele><time>2026-04-14T15:04:08.217Z</time></trkpt><trkpt lat="45.0821226" lon="7.8946656"><ele>406.0</ele><time>2026-04-14T15:04:11.209Z</time></trkpt><trkpt lat="45.0821493" lon="7.8945753"><ele>406.00000000000006</ele><time>2026-04-14T15:04:14.201Z</time></trkpt><trkpt lat="45.082139" lon="7.8944564"><ele>406.0</ele><time>2026-04-14T15:04:17.313Z</time></trkpt><trkpt lat="45.0821344" lon="7.8943261"><ele>406.0</ele><time>2026-04-14T15:04:20.305Z</time></trkpt><trkpt lat="45.0821258" lon="7.8942197"><ele>406.0</ele><time>2026-04-14T15:04:23.297Z</time></trkpt><trkpt lat="45.0821" lon="7.8941352"><ele>406.00000000000006</ele><time>2026-04-14T15:04:26.29Z</time></trkpt><trkpt lat="45.0820882" lon="7.8940103"><ele>406.0</ele><time>2026-04-14T15:04:29.344Z</time></trkpt><trkpt lat="45.0820766" lon="7.8938909"><ele>406.00000000000006</ele><time>2026-04-14T15:04:32.274Z</time></trkpt><trkpt lat="45.0820501" lon="7.8937948"><ele>406.0</ele><time>2026-04-14T15:04:36.224Z</time></trkpt><trkpt lat="45.0819538" lon="7.8937971"><ele>406.0</ele><time>2026-04-14T15:04:39.216Z</time></trkpt><trkpt lat="45.0818852" lon="7.8938307"><ele>406.0</ele><time>2026-04-14T15:04:41.25Z</time></trkpt><trkpt lat="45.0818665" lon="7.8939359"><ele>406.00000000000006</ele><time>2026-04-14T15:04:43.284Z</time></trkpt><trkpt lat="45.0817981" lon="7.8940313"><ele>406.0</ele><time>2026-04-14T15:04:45.318Z</time></trkpt><trkpt lat="45.0817254" lon="7.8940872"><ele>406.0</ele><time>2026-04-14T15:04:47.234Z</time></trkpt><trkpt lat="45.0816503" lon="7.8941525"><ele>406.0</ele><time>2026-04-14T15:04:49.268Z</time></trkpt><trkpt lat="45.0815803" lon="7.8942157"><ele>406.0</ele><time>2026-04-14T15:04:51.303Z</time></trkpt><trkpt lat="45.0815179" lon="7.8942746"><ele>406.0</ele><time>2026-04-14T15:04:53.278Z</time></trkpt><trkpt lat="45.0814594" lon="7.8943192"><ele>406.0</ele><time>2026-04-14T15:04:55.252Z</time></trkpt><trkpt lat="45.0814019" lon="7.8943593"><ele>406.0</ele><time>2026-04-14T15:04:57.287Z</time></trkpt><trkpt lat="45.0813331" lon="7.8943765"><ele>406.0</ele><time>2026-04-14T15:04:59.321Z</time></trkpt><trkpt lat="45.0812646" lon="7.8943867"><ele>405.33333333333337</ele><time>2026-04-14T15:05:01.239Z</time></trkpt><trkpt lat="45.0811932" lon="7.89441"><ele>404.6666666666667</ele><time>2026-04-14T15:05:03.233Z</time></trkpt><trkpt lat="45.0811224" lon="7.894445"><ele>404.0</ele><time>2026-04-14T15:05:05.305Z</time></trkpt><trkpt lat="45.0810306" lon="7.894462"><ele>403.33333333333337</ele><time>2026-04-14T15:05:08.297Z</time></trkpt><trkpt lat="45.0809661" lon="7.8944684"><ele>402.6666666666667</ele><time>2026-04-14T15:05:10.212Z</time></trkpt><trkpt lat="45.0808934" lon="7.8944653"><ele>402.0</ele><time>2026-04-14T15:05:12.245Z</time></trkpt><trkpt lat="45.0808227" lon="7.8944331"><ele>401.3333333333333</ele><time>2026-04-14T15:05:14.281Z</time></trkpt><trkpt lat="45.080756" lon="7.8943896"><ele>400.66666666666663</ele><time>2026-04-14T15:05:16.315Z</time></trkpt><trkpt lat="45.0806926" lon="7.8943363"><ele>400.0</ele><time>2026-04-14T15:05:18.229Z</time></trkpt><trkpt lat="45.0806172" lon="7.8942839"><ele>399.3333333333333</ele><time>2026-04-14T15:05:20.263Z</time></trkpt><trkpt lat="45.0805295" lon="7.8942367"><ele>398.66666666666663</ele><time>2026-04-14T15:05:22.242Z</time></trkpt><trkpt lat="45.0804338" lon="7.8941852"><ele>398.0</ele><time>2026-04-14T15:05:24.195Z</time></trkpt><trkpt lat="45.0803456" lon="7.8940994"><ele>397.99999999999994</ele><time>2026-04-14T15:05:26.194Z</time></trkpt><trkpt lat="45.0802717" lon="7.8940272"><ele>398.0</ele><time>2026-04-14T15:05:28.194Z</time></trkpt><trkpt lat="45.0801965" lon="7.8939857"><ele>398.0</ele><time>2026-04-14T15:06:27.29Z</time></trkpt><trkpt lat="45.0801507" lon="7.8938681"><ele>398.0</ele><time>2026-04-14T15:06:30.283Z</time></trkpt><trkpt lat="45.0801146" lon="7.8937734"><ele>397.99999999999994</ele><time>2026-04-14T15:06:32.301Z</time></trkpt><trkpt lat="45.0800691" lon="7.8936896"><ele>398.0</ele><time>2026-04-14T15:06:34.233Z</time></trkpt><trkpt lat="45.0799971" lon="7.8936719"><ele>398.0</ele><time>2026-04-14T15:06:37.225Z</time></trkpt><trkpt lat="45.079927" lon="7.89372"><ele>384.0</ele><time>2026-04-14T15:08:55.217Z</time></trkpt><trkpt lat="45.0799569" lon="7.8938009"><ele>398.0</ele><time>2026-04-14T15:10:07.264Z</time></trkpt></trkseg></trk></gpx>